GFSNGP_850_spd_000.txt.gz
Wind_Speed
5 8 7 11 11 8 8 8 6 16 9 11 9 8 10 16 23 26 30 22 22 17 22 23 23 26 33 28 32 35 29 25 23 20 20 16 13 12 14 18 22 18 20 16
4 3 5 8 11 11 9 6 11 14 15 12 10 5 14 27 29 26 29 21 17 18 20 21 25 28 30 33 36 28 23 22 16 16 16 14 12 14 17 21 22 23 21 20
5 4 8 8 5 4 3 6 6 6 11 3 3 11 22 26 25 28 18 15 22 23 25 25 26 28 32 32 25 22 23 12 6 7 13 20 22 23 23 23 22 21 24 27
3 4 2 8 2 7 7 8 10 7 7 7 9 22 23 22 23 19 15 21 20 20 27 27 27 33 30 22 24 26 18 16 18 18 16 18 20 23 24 25 25 25 25 25
3 3 6 9 8 1 4 7 4 3 5 9 24 27 19 16 8 12 15 21 25 27 23 28 33 28 21 24 26 18 14 20 19 18 20 23 25 24 23 24 25 26 24 25
1 3 5 7 3 3 2 6 1 7 18 28 21 10 10 8 10 14 19 21 28 21 26 31 26 16 21 20 17 15 19 20 19 21 22 23 23 24 24 25 24 24 26 27
6 5 8 9 9 1 3 3 19 20 24 22 7 4 8 15 19 20 22 25 19 24 29 27 20 19 19 15 16 17 20 18 21 21 21 22 23 23 23 24 26 27 28 27
2 3 8 4 2 2 10 18 22 28 17 4 1 7 13 18 21 23 27 25 22 27 28 23 20 22 19 16 13 19 17 19 20 20 21 23 23 23 24 25 27 28 30 31
8 7 6 4 16 30 24 22 17 9 4 4 10 14 20 23 26 28 29 20 25 26 27 23 21 17 16 14 16 16 18 19 20 21 23 24 24 25 26 26 28 29 31 33
3 6 12 23 33 22 14 12 9 4 9 8 15 19 26 27 29 30 26 25 30 26 23 20 14 13 17 20 17 16 17 19 20 22 25 25 25 25 25 26 27 28 30 31
6 18 20 18 12 13 13 12 16 7 10 14 20 24 25 27 32 31 30 29 27 23 20 18 15 17 20 20 16 16 18 19 21 22 25 27 25 23 24 24 25 27 27 28
11 15 12 18 12 11 10 4 4 11 18 23 23 22 24 31 33 31 30 29 24 20 19 21 21 20 20 19 18 18 19 21 22 24 26 25 23 24 22 21 24 23 23 23
10 20 16 13 4 1 3 9 12 16 21 23 25 26 30 32 32 30 30 26 21 20 20 23 18 21 21 18 19 19 21 22 22 24 24 23 23 24 25 23 22 21 22 21
11 12 3 2 4 8 10 12 15 20 22 23 25 29 29 30 32 32 26 27 25 23 19 17 21 22 19 18 19 20 20 19 20 22 20 20 23 21 21 24 26 26 22 21
10 6 3 8 7 7 11 19 24 25 26 28 27 25 25 27 32 33 31 26 27 17 17 21 21 19 17 17 17 17 16 17 18 16 19 21 22 20 20 21 21 24 24 22
6 10 8 7 13 17 21 22 22 27 28 29 30 29 30 29 32 32 28 27 15 16 21 20 18 16 18 18 15 15 15 14 14 16 18 21 19 18 19 20 20 22 23 24
10 8 13 20 23 26 24 18 22 28 29 29 30 31 33 33 33 32 25 16 15 18 19 16 15 16 16 16 14 13 10 10 14 15 19 18 19 18 19 20 19 20 20 21
9 11 16 18 21 24 26 25 27 27 29 31 31 32 31 31 32 30 20 15 16 17 17 15 16 16 14 14 13 11 8 11 16 18 17 15 16 18 17 17 17 19 19 19
14 18 21 23 22 23 26 28 30 30 33 33 31 31 31 32 29 24 17 14 13 17 14 17 14 12 12 12 12 9 9 12 16 16 16 13 14 17 17 16 16 17 18 17
20 21 21 22 24 26 29 29 28 30 30 29 31 32 30 30 24 19 13 10 15 15 15 14 12 10 11 12 11 8 9 11 14 17 14 13 14 16 17 15 15 16 16 16
21 21 24 25 28 30 29 28 27 29 29 28 31 25 25 27 22 15 11 13 14 15 16 16 12 10 12 13 13 12 8 10 14 17 16 14 13 14 16 17 14 15 15 14
20 25 26 27 28 32 33 31 29 27 30 30 26 22 25 25 19 12 10 15 13 13 16 13 11 11 13 14 15 9 7 11 14 16 16 14 14 14 15 16 14 14 14 12
25 25 26 28 30 34 35 31 31 30 30 27 24 23 25 23 13 12 14 14 14 13 14 12 10 11 11 13 13 9 10 12 14 16 16 15 15 14 14 14 14 13 12 10
25 25 27 29 32 32 30 28 27 28 26 23 20 22 23 18 13 13 16 16 14 13 11 10 11 9 10 11 12 11 10 12 13 15 15 14 14 15 13 13 12 12 11 9
24 26 28 30 30 28 28 27 29 28 27 24 23 24 19 12 13 14 14 14 15 15 13 12 12 11 10 12 13 13 16 16 15 15 13 14 14 14 14 13 12 12 11 10
23 27 30 28 24 27 27 27 28 28 27 28 25 21 12 12 14 13 10 11 12 12 14 14 13 14 14 14 15 15 15 16 15 16 17 16 14 13 14 14 13 12 12 10
26 29 30 29 21 23 28 27 27 27 26 26 26 14 11 13 13 13 13 14 17 13 13 14 14 15 14 13 14 15 16 15 16 16 16 16 16 15 14 14 14 13 12 11

GFSNGP_850_spd_003.txt.gz
Wind_Speed
4 8 6 10 12 11 12 12 7 13 14 19 14 12 10 13 21 23 24 22 20 15 18 18 17 19 22 24 27 28 25 23 26 21 17 15 12 14 19 20 22 22 23 24
3 5 5 9 12 12 12 12 12 17 19 17 11 4 7 18 22 20 18 15 10 13 14 18 22 23 22 28 25 19 23 23 17 18 17 16 16 19 22 23 23 23 22 23
3 5 9 6 3 4 3 5 4 5 7 7 7 8 21 23 18 15 8 9 16 17 14 16 24 23 30 29 19 23 18 13 15 16 17 17 20 24 26 25 24 23 22 23
2 5 1 2 2 6 7 12 7 7 5 7 14 22 18 10 10 8 9 15 16 17 21 20 20 29 30 22 23 22 14 14 17 19 20 22 24 24 24 24 25 26 24 22
2 3 7 10 6 3 5 6 2 2 8 18 24 24 12 7 8 13 19 15 17 22 22 19 25 28 24 22 24 19 15 17 18 20 22 22 23 24 25 26 25 24 24 25
2 3 5 5 1 3 4 6 4 11 23 29 22 11 8 8 18 18 21 21 26 25 18 23 25 24 21 21 20 17 15 20 19 21 21 22 22 24 25 25 25 25 26 25
5 5 8 8 5 3 1 3 9 21 23 20 8 1 17 16 18 24 25 28 29 22 21 24 23 20 21 22 24 19 14 19 19 19 20 21 23 25 26 26 26 26 28 27
2 4 7 3 3 2 5 18 14 16 12 6 14 14 13 15 20 23 25 28 25 22 25 25 22 21 16 13 12 15 18 17 18 19 20 22 25 26 26 26 27 28 30 26
7 6 6 3 5 11 7 8 10 8 11 11 8 13 19 23 24 27 31 32 30 28 29 23 19 17 14 13 18 21 19 17 18 19 21 24 25 26 26 24 24 25 22 24
1 6 13 13 13 8 18 14 10 9 10 10 14 19 22 25 27 31 35 35 31 29 27 21 15 13 15 18 21 22 18 17 18 21 22 24 25 24 22 22 20 20 22 22
5 19 12 9 12 19 7 6 6 7 9 13 18 21 22 26 30 34 35 35 34 31 26 20 18 17 21 21 22 22 18 18 19 22 23 25 23 21 21 21 21 20 19 19
6 9 5 6 10 7 3 4 5 8 13 15 19 23 25 30 34 34 33 34 34 31 25 22 19 23 18 21 21 18 18 18 20 21 22 22 21 21 19 17 19 18 20 20
8 7 8 7 1 1 1 4 6 8 15 21 24 25 27 31 32 32 32 34 33 29 25 23 24 16 21 20 18 17 18 19 18 18 20 18 20 22 21 20 17 16 19 21
6 5 4 2 2 1 4 7 12 17 23 23 25 28 28 30 32 32 33 35 33 27 28 24 16 20 18 17 16 16 16 15 16 16 14 17 20 20 19 20 22 22 21 22
1 2 6 8 2 6 11 18 23 24 24 28 29 30 30 32 33 34 34 33 35 29 18 14 17 17 15 16 17 15 14 14 11 11 14 17 19 18 19 20 20 20 23 22
12 8 4 5 11 15 19 21 22 26 27 29 33 35 35 37 37 35 32 32 31 23 16 16 14 14 14 16 17 15 11 9 9 13 15 17 17 17 19 19 18 19 22 23
3 1 8 12 15 19 22 24 25 28 32 35 37 37 37 36 34 33 32 30 24 18 14 12 15 13 15 14 14 13 11 7 10 14 17 15 14 17 19 18 18 18 19 20
3 6 11 16 20 24 27 29 31 33 34 35 35 36 36 34 33 30 30 24 18 13 10 14 14 15 12 12 12 11 10 10 11 15 16 14 13 16 18 17 16 17 18 17
10 15 17 19 21 24 27 28 29 30 31 31 32 33 33 33 29 26 24 20 13 10 13 14 15 11 10 11 12 10 7 8 11 14 16 15 14 15 17 17 16 17 17 16
16 17 18 19 21 22 25 26 29 32 32 31 30 33 34 31 23 26 23 17 11 13 14 15 14 10 10 11 11 12 10 8 10 14 15 16 14 14 16 17 16 15 16 14
19 18 18 22 24 25 26 29 32 32 33 32 32 34 33 25 23 25 23 16 10 13 11 12 13 11 9 11 12 14 9 6 9 14 15 15 14 14 15 16 16 15 15 14
19 19 22 25 26 28 29 31 30 30 30 30 31 28 25 22 23 25 19 13 12 12 11 12 16 11 10 10 13 11 7 8 11 13 15 16 15 14 15 15 15 14 14 13
19 21 25 24 25 29 32 31 31 29 29 28 27 27 25 22 23 24 17 10 12 11 11 12 13 11 10 9 12 11 8 9 11 12 13 15 14 14 15 14 14 14 13 12
22 25 24 23 26 30 32 31 30 32 29 24 24 25 26 28 27 16 11 13 13 11 10 12 12 13 10 9 11 12 11 15 14 13 13 14 14 13 14 14 13 14 13 12
24 24 24 24 29 32 32 27 30 33 29 30 28 26 25 25 19 10 11 11 10 10 13 13 13 15 13 12 12 12 12 13 13 13 14 15 15 14 14 14 14 14 14 13
23 24 24 26 29 31 27 24 28 29 29 31 29 27 26 20 11 10 10 9 7 10 11 12 14 15 14 14 14 13 12 12 12 12 13 13 14 14 13 14 14 15 15 14
21 23 26 30 31 33 28 21 24 28 29 28 27 24 24 14 11 11 11 13 13 15 13 15 14 14 14 14 13 13 12 11 11 12 12 12 13 14 14 15 15 15 15 15

GFSNGP_850_spd_006.txt.gz
Wind_Speed
8 11 13 12 14 12 15 15 11 15 15 15 14 13 12 7 16 22 19 16 16 14 14 18 14 12 12 13 18 21 14 17 12 10 11 14 15 15 15 16 18 18 18 18
4 8 10 12 15 15 13 13 13 15 16 7 10 9 7 17 21 20 14 13 15 17 12 13 13 16 14 17 17 13 16 11 9 11 13 14 14 17 18 18 17 17 18 18
4 9 13 6 4 4 3 4 8 10 8 8 7 12 18 21 18 10 12 15 18 14 16 17 19 16 18 20 14 12 14 10 12 13 13 14 16 17 17 18 18 19 19 18
3 5 3 3 5 9 13 13 8 9 3 6 12 21 25 6 6 9 17 15 17 16 20 22 20 19 20 19 15 15 14 14 13 13 13 15 16 17 18 19 20 19 19 18
2 4 15 12 3 2 2 11 4 3 9 17 25 23 10 8 15 19 13 16 20 21 24 25 22 21 21 19 17 16 17 16 13 13 13 15 16 17 19 20 20 19 19 20
2 4 4 3 4 5 4 8 4 11 20 22 24 12 6 20 17 13 16 18 21 24 25 23 21 19 21 20 19 18 15 12 13 13 13 15 16 18 20 21 21 19 20 20
6 6 8 6 5 1 3 3 14 12 9 11 6 8 17 13 13 15 18 20 22 23 25 24 24 23 21 19 16 13 12 14 14 13 13 14 17 19 22 23 21 21 23 24
3 4 6 2 2 2 5 12 7 7 6 10 11 11 11 14 17 19 20 22 25 27 27 26 25 22 21 18 16 15 15 16 14 12 12 15 18 21 23 22 20 22 22 23
7 6 7 13 11 7 7 7 7 2 6 9 8 11 14 16 19 21 23 25 27 27 28 27 26 24 21 20 17 15 16 16 13 12 13 16 20 22 21 18 18 19 20 22
6 11 14 14 10 5 6 4 3 6 3 5 11 14 17 21 24 24 25 26 25 26 28 29 27 22 18 17 16 16 16 15 13 13 15 17 19 17 17 16 16 17 19 20
12 18 16 7 2 5 7 5 6 4 7 9 12 17 21 24 24 25 25 24 24 26 29 30 26 22 16 20 13 15 15 13 12 12 14 16 15 14 13 13 16 16 16 17
4 5 9 4 7 9 9 5 4 6 8 11 16 21 22 24 25 25 25 25 26 28 28 29 23 20 16 11 16 15 17 10 10 14 12 12 12 13 16 19 18 16 17 19
13 7 5 6 3 3 3 4 6 9 13 20 21 20 22 26 25 27 26 27 27 27 27 27 22 14 10 15 14 16 14 14 10 11 9 9 11 13 13 13 19 20 20 19
9 7 3 5 3 2 4 6 11 16 19 21 21 22 24 27 28 27 27 27 25 25 25 20 13 13 12 13 14 14 14 11 9 7 6 9 11 11 11 13 15 14 16 20
2 2 4 7 2 4 8 13 17 20 22 23 22 24 26 28 29 28 26 24 22 23 18 14 14 11 11 12 13 12 9 6 7 7 9 13 12 10 11 12 13 13 14 13
9 8 4 1 5 9 13 16 19 21 22 25 26 28 26 26 27 32 31 26 27 23 17 15 10 11 12 12 9 10 8 7 5 6 8 9 8 9 11 11 12 12 13 13
8 4 2 5 10 13 14 16 17 21 27 26 30 33 34 34 34 33 31 23 23 20 14 10 11 11 13 10 8 8 7 6 6 6 7 8 8 8 10 10 10 11 11 12
4 0 5 9 12 14 17 19 24 25 28 30 33 34 34 33 34 34 30 22 23 16 11 11 12 13 12 7 9 8 5 6 5 7 7 8 8 8 8 9 9 9 10 10
3 7 12 15 15 19 22 24 25 27 30 31 32 32 32 33 32 29 22 22 23 15 10 11 13 12 8 9 9 8 6 5 6 6 9 10 9 8 9 8 9 8 8 9
10 14 16 17 17 19 23 23 25 29 31 31 31 31 33 34 28 21 20 23 22 12 12 12 14 12 10 10 11 7 9 7 7 7 9 10 9 9 9 10 10 8 8 8
16 17 18 18 20 23 23 23 26 29 30 28 28 30 30 31 26 22 21 23 17 9 9 10 11 10 8 7 8 10 7 5 6 8 9 8 10 10 9 9 10 9 8 7
20 22 20 19 23 26 24 24 27 29 28 29 31 27 26 28 27 25 23 22 14 10 10 11 9 11 8 9 6 8 6 5 7 8 9 10 10 10 9 10 10 9 8 8
23 20 20 23 24 25 25 26 28 29 29 30 30 25 23 25 25 25 25 21 9 9 11 10 10 11 10 9 8 8 6 5 5 6 7 7 9 10 10 11 10 11 10 9
20 20 23 24 24 24 27 28 30 29 29 30 27 27 24 25 27 24 22 12 10 10 12 10 10 11 11 11 9 10 9 9 9 9 10 12 11 12 11 11 12 12 12 13
21 23 24 23 22 21 26 30 31 29 26 27 28 27 23 20 23 26 17 10 11 12 11 11 12 12 13 12 12 11 12 11 10 9 9 10 10 11 11 11 12 13 13 14
24 23 21 21 22 25 28 27 28 26 23 28 30 29 26 21 23 20 12 11 12 12 12 11 11 13 14 14 14 13 12 11 11 10 9 9 9 10 12 12 12 13 14 14
24 20 19 20 21 24 24 24 27 25 22 24 29 28 27 20 19 16 13 13 15 16 18 18 15 14 14 15 15 12 13 12 11 10 9 9 9 10 11 11 12 13 14 15

GFSNGP_850_spd_009.txt.gz
Wind_Speed
10 12 11 12 13 13 15 14 13 15 16 15 12 11 13 10 14 18 21 17 16 23 22 17 14 15 17 17 19 20 20 20 20 17 16 16 15 17 18 19 19 19 19 20
4 7 10 14 16 18 16 10 13 13 15 9 8 9 13 19 21 20 18 16 19 21 18 17 17 20 22 19 19 21 21 21 20 18 16 15 16 17 18 18 19 19 20 21
4 11 13 6 3 1 4 7 7 10 10 8 10 16 18 16 16 13 14 18 23 18 17 19 21 23 23 22 22 22 22 22 21 17 17 16 16 18 18 19 19 21 21 21
3 7 3 5 9 13 10 9 9 8 7 9 16 18 17 6 12 14 17 18 16 19 21 23 25 26 28 25 28 27 25 23 20 17 19 17 18 18 19 19 21 22 21 20
2 5 14 10 5 6 8 13 10 6 10 14 21 19 5 5 15 15 14 16 19 21 23 26 27 29 27 29 30 28 27 20 19 20 17 17 18 19 19 21 22 22 19 21
3 3 4 2 7 5 7 9 7 7 13 13 17 10 11 18 18 16 17 19 22 23 26 27 29 29 30 31 32 29 24 17 17 17 17 16 18 19 20 22 22 21 20 23
6 5 8 8 3 5 4 3 8 12 8 13 9 14 17 15 16 17 19 21 24 25 27 28 29 30 31 33 32 27 22 14 16 17 15 15 17 19 22 23 22 19 26 26
3 3 6 4 4 3 10 15 7 7 7 8 12 13 13 15 17 20 23 25 26 28 28 29 29 30 32 35 33 24 21 15 15 15 13 15 18 20 21 23 18 20 23 24
8 6 12 9 12 14 7 5 9 6 8 11 12 13 14 17 20 23 26 28 28 27 28 29 30 30 33 31 27 17 15 16 15 12 13 16 17 20 21 17 17 19 20 22
8 7 17 13 17 3 3 2 4 10 11 9 12 14 17 21 24 26 27 29 27 28 29 30 30 31 29 23 18 21 17 13 13 13 14 15 16 17 15 16 17 17 20 20
14 20 20 15 1 1 2 6 4 6 9 11 13 18 22 25 26 27 28 27 28 27 29 30 30 29 26 21 16 15 14 12 13 12 13 15 15 13 14 13 20 23 18 18
10 11 8 8 3 8 7 4 4 7 10 13 18 23 26 26 26 27 28 29 29 30 30 30 28 26 21 14 15 11 13 11 11 12 12 11 11 12 16 18 20 23 22 23
15 4 6 7 9 5 3 2 5 8 13 19 22 24 25 26 27 28 29 28 28 29 27 26 24 18 13 16 12 14 13 11 10 10 9 8 10 13 13 13 19 21 22 25
3 5 3 5 4 4 2 4 8 13 17 20 23 24 24 26 28 28 28 28 28 26 23 23 19 13 16 9 11 13 13 11 10 8 7 9 10 11 11 12 14 14 18 22
5 5 0 5 4 3 4 8 13 17 20 21 21 23 23 25 27 28 28 28 24 25 20 19 16 15 10 12 11 10 13 8 11 8 9 11 10 11 10 12 13 14 15 14
5 7 8 5 3 5 8 12 16 19 19 21 21 21 23 26 27 28 26 23 28 29 22 20 16 12 11 10 10 9 10 15 8 7 8 10 11 10 9 11 11 13 13 15
11 9 5 3 5 9 11 14 16 18 19 20 21 29 33 32 33 29 32 29 24 24 22 18 14 11 15 13 10 9 11 11 11 8 8 9 9 9 10 10 10 12 13 18
6 5 2 4 8 11 13 14 15 17 19 24 29 31 32 32 33 35 34 26 22 22 22 16 13 13 14 10 12 11 10 9 10 10 10 10 10 10 10 11 10 11 11 13
4 2 5 8 10 12 14 16 17 22 25 26 30 31 31 31 32 32 31 26 23 24 21 13 12 13 15 13 12 9 11 9 9 11 11 12 11 11 11 12 12 11 11 11
3 6 9 13 16 18 20 20 23 24 24 27 30 31 31 33 29 27 26 26 23 22 18 18 14 14 12 10 12 8 11 12 11 11 12 12 11 12 12 12 13 12 12 12
10 14 19 20 21 19 19 22 24 24 25 27 29 30 31 32 28 25 25 26 22 21 18 14 13 10 9 11 11 10 12 10 8 9 11 13 13 12 12 11 12 14 12 12
14 18 23 22 21 22 23 24 23 24 27 28 28 28 28 28 28 27 23 23 23 24 18 13 13 12 9 14 11 13 12 9 10 10 11 11 13 12 12 11 12 13 13 13
23 23 22 21 20 24 24 23 24 25 28 29 28 25 23 26 24 24 26 23 26 21 14 15 14 13 13 13 11 11 13 11 9 9 10 11 11 11 12 12 12 12 12 11
20 19 20 21 23 24 24 21 19 26 28 26 24 20 23 26 26 24 21 28 24 14 15 13 15 14 14 14 13 10 13 15 14 13 13 13 15 14 13 12 13 12 12 13
22 22 22 22 20 17 16 18 20 20 22 22 22 23 23 25 23 27 22 25 18 15 15 16 16 17 17 17 15 16 15 16 16 15 14 13 14 14 14 13 13 13 13 13
20 18 19 20 20 19 18 16 20 22 24 27 25 25 26 26 26 24 22 20 16 16 17 16 18 19 19 17 16 17 18 16 16 16 15 14 13 12 13 14 13 14 14 15
19 19 19 18 17 15 16 18 24 27 27 25 26 26 27 29 28 26 21 19 18 19 20 21 22 23 24 20 17 20 19 17 17 16 16 16 15 14 13 13 13 13 14 15

GFSNGP_850_spd_012.txt.gz
Wind_Speed
7 9 8 10 12 12 13 12 9 10 15 10 10 7 17 15 15 15 13 14 17 17 21 20 20 20 21 23 24 24 21 26 23 23 18 14 16 17 19 20 21 20 22 23
3 5 11 14 15 14 14 14 11 11 14 8 10 15 15 13 14 13 15 17 18 20 19 19 20 23 25 28 28 18 23 27 28 23 17 13 20 14 16 20 20 22 22 24
2 11 10 2 3 7 8 8 9 6 9 14 11 13 16 11 11 13 15 18 19 17 19 20 22 25 28 28 29 35 29 23 21 24 21 15 16 11 14 19 21 23 25 22
2 5 3 4 13 11 9 7 8 9 8 8 12 17 16 9 11 14 15 16 16 19 21 21 26 26 27 29 33 35 35 32 29 19 11 15 15 10 14 18 22 24 22 21
1 3 9 9 4 6 5 11 10 7 11 13 17 16 5 10 13 13 14 17 19 23 22 27 24 26 30 33 33 34 40 31 29 19 13 16 13 11 13 21 23 20 21 23
2 2 3 2 7 5 9 7 9 9 11 12 17 5 8 21 18 17 18 20 23 24 26 25 26 28 30 31 33 34 30 30 26 22 13 15 11 12 17 20 18 24 28 28
4 4 6 9 4 5 3 2 8 5 10 11 7 10 16 16 15 17 19 23 26 26 25 25 27 28 28 29 31 28 30 27 23 18 13 11 9 16 18 19 20 22 26 28
3 3 6 1 2 2 7 14 4 6 4 4 10 10 13 14 17 20 22 25 26 28 25 26 27 27 27 27 29 27 30 27 25 21 12 9 13 16 17 19 18 22 26 25
9 5 10 9 5 7 10 9 4 8 8 8 8 11 13 16 19 22 24 26 28 26 28 30 26 26 25 26 25 24 26 22 18 17 12 13 14 18 17 16 18 25 26 27
3 9 12 12 10 2 4 3 2 3 4 7 9 11 14 18 22 23 24 27 25 29 29 27 28 26 25 24 25 21 21 20 16 15 14 13 13 15 14 17 23 25 24 26
8 14 15 3 8 11 4 3 3 5 4 6 9 13 17 21 23 24 25 24 29 27 27 28 28 27 26 25 21 19 18 14 13 13 13 15 14 14 15 19 22 22 23 23
8 11 4 2 8 1 2 3 4 3 5 8 12 16 19 22 23 24 25 28 27 27 28 27 27 27 25 19 19 22 13 13 13 14 12 13 10 13 16 19 19 22 21 24
11 3 4 8 2 4 3 3 2 4 8 12 14 17 20 21 22 25 25 26 27 28 27 27 24 26 21 18 20 17 18 15 12 11 11 11 13 16 19 16 17 19 21 24
0 7 6 1 5 7 4 3 3 6 10 12 16 16 18 20 22 23 25 27 27 27 26 26 21 20 20 15 17 17 14 15 15 11 14 14 14 13 14 16 18 16 20 21
6 3 5 8 7 7 4 2 6 9 12 14 14 16 16 18 23 25 27 28 24 28 29 26 23 24 19 19 18 12 12 19 21 17 10 10 13 13 14 14 15 16 17 16
9 6 8 10 7 3 2 5 8 10 13 14 14 17 17 24 26 29 28 28 32 35 30 26 24 23 16 11 13 10 10 15 19 14 10 11 13 14 14 14 15 15 17 20
11 12 10 7 3 2 4 7 9 11 17 14 18 23 25 27 29 29 32 30 31 30 24 24 23 20 13 14 15 10 12 17 17 14 11 12 14 13 14 15 15 14 16 20
10 9 6 4 1 4 7 10 16 15 17 21 23 23 25 27 30 32 33 31 32 31 26 21 19 17 14 13 14 16 20 19 10 13 13 14 13 15 13 13 15 15 17 17
9 7 3 1 4 9 13 17 17 18 21 23 23 25 28 29 30 32 32 30 29 28 24 20 19 16 13 15 15 16 11 12 13 12 13 15 16 14 13 13 15 17 16 16
6 2 2 6 12 17 19 19 18 20 23 23 23 27 30 31 31 32 29 29 24 22 25 23 21 16 14 15 14 12 10 12 13 13 12 13 15 14 14 16 14 15 16 16
3 7 12 19 23 22 20 19 20 24 22 22 24 28 31 32 29 25 27 28 23 18 21 23 21 17 14 11 15 17 14 12 14 11 12 12 14 16 15 15 13 13 16 16
8 15 22 23 23 23 20 20 23 23 23 23 24 29 29 28 26 25 25 25 25 24 28 27 16 13 15 15 17 18 18 17 14 13 14 14 14 14 17 16 14 14 14 15
17 24 22 21 21 22 23 24 24 21 19 23 26 28 25 25 25 28 33 23 29 23 30 20 13 14 15 16 17 19 18 16 15 14 14 14 15 16 16 17 16 15 14 14
21 22 22 23 23 24 25 21 15 16 21 23 25 24 29 28 28 27 28 29 24 23 24 16 15 17 18 20 20 19 18 16 16 18 18 17 17 17 19 19 17 16 15 14
20 21 22 20 19 22 22 21 18 20 20 22 26 29 24 24 27 29 27 27 25 22 21 18 17 19 21 24 23 21 20 19 18 19 21 21 21 20 19 19 20 17 16 16
18 20 20 21 22 22 22 21 23 23 23 27 31 32 26 23 25 28 28 27 26 22 21 20 20 20 22 24 25 24 24 21 20 21 20 20 20 19 19 19 19 19 18 17
17 18 19 21 23 23 23 25 25 26 26 28 32 31 28 27 23 23 25 26 25 24 22 21 22 23 25 26 27 28 26 24 22 22 22 22 20 20 20 19 19 19 18 18

GFSNGP_850_spd_015.txt.gz
Wind_Speed
4 5 4 4 6 7 4 5 5 7 6 5 10 8 13 11 12 12 12 15 18 19 17 16 18 19 17 23 24 25 28 32 34 26 20 23 34 25 21 16 15 13 17 21
2 7 7 4 7 7 7 6 4 4 4 13 16 16 14 14 13 13 14 16 20 15 16 18 19 21 24 19 19 25 32 33 33 28 29 33 26 19 13 13 14 16 20 19
2 5 5 4 3 5 3 3 2 2 1 12 11 15 16 15 12 11 13 16 16 16 18 21 19 16 15 21 26 29 29 33 27 33 37 30 20 13 15 15 13 19 18 18
2 4 2 4 3 4 5 4 6 10 10 14 14 16 13 8 8 11 14 15 17 17 17 19 15 19 22 26 30 30 32 30 33 37 37 29 19 17 10 12 18 16 15 20
3 1 6 5 2 3 4 3 7 8 9 10 8 8 11 9 11 8 11 13 16 16 18 18 20 23 28 31 30 26 25 29 34 35 28 24 19 15 17 16 17 13 21 24
2 4 6 5 4 6 2 3 4 9 8 7 5 2 3 12 10 7 11 14 17 18 19 21 22 28 30 29 23 22 26 29 33 32 25 25 16 8 12 15 12 19 21 23
4 3 7 8 5 5 3 6 7 7 5 2 2 5 7 8 6 11 13 15 16 19 20 21 27 32 25 19 24 25 29 32 29 27 22 17 10 11 11 15 16 18 21 25
3 3 7 11 6 7 6 5 11 8 2 4 5 5 5 6 11 13 15 16 18 20 21 26 25 20 22 23 24 27 31 32 27 22 16 12 13 13 13 14 17 20 24 28
9 6 9 14 13 14 8 5 10 2 0 3 2 4 4 10 12 14 16 19 20 21 26 22 21 22 23 26 29 33 35 24 21 14 13 11 10 10 15 18 19 22 25 26
4 7 11 10 10 10 11 11 8 2 2 2 6 5 8 9 13 14 16 16 19 23 21 22 24 23 26 29 35 34 27 25 16 12 11 12 15 18 16 17 20 23 23 23
3 3 1 6 10 15 14 8 4 4 4 3 2 4 9 10 13 16 18 22 22 22 24 26 28 32 33 30 28 28 24 18 13 14 15 13 14 12 16 19 22 20 20 21
5 4 6 11 15 11 8 9 7 7 5 2 5 6 9 13 16 19 21 24 26 27 29 29 31 34 29 24 26 25 25 16 16 12 13 11 12 15 16 18 16 17 18 21
4 7 8 17 13 7 6 10 9 8 3 2 4 9 15 16 18 21 23 24 25 28 29 27 31 34 21 21 22 18 20 19 15 17 15 14 15 18 19 13 12 15 18 19
10 13 13 12 6 10 10 9 6 4 1 4 9 17 17 19 20 21 23 24 26 25 29 30 28 26 23 23 22 17 19 14 17 20 20 17 14 11 12 14 16 15 17 18
16 11 6 7 13 12 8 8 5 0 5 11 15 17 17 19 20 22 24 24 25 28 28 29 26 23 22 20 15 15 13 13 15 19 19 16 10 11 13 13 13 14 14 18
13 8 9 12 13 11 9 4 1 5 10 14 17 16 18 19 21 23 24 24 27 31 30 29 26 23 20 19 12 14 11 13 15 17 20 13 11 13 14 13 15 14 15 17
18 15 15 13 11 7 3 3 7 11 16 17 16 18 21 21 23 24 26 28 30 29 27 25 22 20 19 18 13 14 13 16 20 22 21 13 12 13 13 16 13 14 15 18
10 15 17 12 7 3 4 8 12 16 17 16 17 20 20 21 25 28 30 32 32 29 24 16 19 21 20 19 15 14 17 20 24 21 11 12 12 13 16 13 13 14 15 17
15 15 11 6 3 4 9 14 15 16 16 17 21 22 21 24 27 30 30 28 26 29 23 21 19 23 21 16 15 16 17 16 12 12 12 11 13 13 15 13 14 15 14 14
13 8 5 0 6 12 14 15 15 16 16 19 20 21 24 25 30 29 25 25 23 23 22 23 22 25 24 17 15 15 12 12 12 11 12 11 12 12 13 15 14 14 13 13
4 1 4 12 16 15 15 16 16 17 18 17 19 19 23 26 26 24 23 28 28 25 21 27 27 33 22 15 16 16 15 15 15 16 15 12 14 14 14 15 16 16 14 14
5 7 13 15 15 17 16 17 18 21 21 19 15 19 22 26 28 29 25 26 29 28 29 27 26 31 16 13 18 19 18 18 19 19 18 16 17 16 16 16 18 16 15 15
10 14 16 17 18 20 21 20 18 17 16 15 17 20 23 27 30 29 31 27 28 29 28 27 25 22 16 16 18 20 21 21 21 20 19 17 16 16 16 17 18 19 16 15
13 16 17 16 17 16 18 19 18 17 19 19 21 20 22 28 34 27 26 29 29 30 28 26 22 21 18 21 23 24 25 24 22 21 19 17 19 20 19 19 19 18 18 18
14 13 15 16 17 19 20 21 22 22 22 24 23 22 22 27 26 27 26 28 27 26 26 25 21 21 21 21 23 26 28 29 27 24 21 20 21 22 23 24 23 21 19 20
14 14 14 15 19 22 25 25 27 28 27 28 29 25 27 29 26 20 20 22 23 23 24 24 23 21 22 23 24 24 25 26 29 28 26 22 22 23 22 22 21 20 21 21
14 16 19 23 27 26 24 23 25 27 27 25 25 26 27 24 21 19 21 23 24 23 24 25 25 23 22 23 25 26 25 27 28 29 27 23 22 21 21 21 20 20 20 21

GFSNGP_850_spd_018.txt.gz
Wind_Speed
3 4 2 0 2 2 5 4 5 6 7 3 7 9 15 19 13 7 5 8 11 8 6 9 13 12 13 16 17 18 23 28 32 32 27 30 29 29 31 23 16 12 11 16
1 4 6 3 4 4 4 3 3 4 4 4 10 14 16 13 8 5 6 7 6 5 8 10 8 13 11 15 21 25 28 29 29 31 31 33 35 26 17 17 6 13 14 17
3 4 5 5 5 3 1 3 3 5 6 9 6 13 12 9 5 2 4 4 5 8 8 9 11 12 17 20 24 24 23 24 31 30 33 38 27 24 19 17 6 11 15 17
2 3 1 4 3 4 7 3 8 9 6 9 14 12 11 6 1 1 2 5 7 6 10 9 13 16 19 23 20 20 23 29 29 32 36 32 21 23 16 5 13 12 11 17
3 3 5 2 5 5 5 5 6 9 10 9 17 13 7 2 2 1 4 7 5 10 11 13 14 19 23 19 21 25 26 28 30 32 33 26 18 10 7 9 11 7 18 20
2 4 6 5 3 9 8 4 15 14 14 10 15 3 4 3 2 2 4 4 7 10 14 17 22 25 25 22 21 25 27 27 30 31 24 17 14 9 7 11 9 15 14 18
2 2 8 7 6 7 5 7 19 18 16 14 5 5 3 2 3 2 4 7 10 15 19 20 23 24 24 22 25 25 24 30 29 22 17 10 11 10 9 9 8 11 16 20
3 2 8 14 6 7 6 14 18 15 14 10 7 6 7 4 1 2 5 8 13 16 18 20 19 21 24 26 25 27 30 28 21 20 13 12 10 9 8 10 11 15 18 20
10 7 6 23 12 18 12 14 19 19 13 9 7 7 6 3 2 4 8 11 13 18 20 18 19 24 25 25 29 33 29 26 24 17 10 9 10 12 13 13 14 17 19 19
3 6 16 14 19 13 17 14 17 14 11 11 7 7 6 3 3 8 12 17 21 22 24 23 23 24 27 29 33 26 25 23 21 13 13 12 13 12 11 13 17 18 17 17
4 5 2 6 13 15 14 13 14 8 4 9 12 9 5 3 8 12 17 19 21 23 23 24 25 26 28 31 30 20 22 21 17 14 13 12 9 10 13 16 18 15 15 17
6 8 9 10 15 17 17 15 10 11 13 11 7 5 3 8 13 17 18 22 22 22 23 23 23 27 30 28 21 18 21 17 16 13 12 11 12 13 15 17 12 12 15 16
10 17 16 13 18 17 14 12 13 16 13 9 5 3 7 15 16 20 21 20 21 23 22 24 26 27 26 24 23 22 22 16 16 13 13 15 15 17 16 7 9 11 13 15
17 13 10 21 14 15 13 14 17 13 10 5 2 8 16 18 19 19 19 20 22 23 24 26 27 27 22 22 23 20 15 15 13 14 15 17 16 12 9 12 14 12 13 15
17 17 11 16 13 17 15 18 16 11 5 2 8 15 19 17 18 19 19 21 24 25 27 28 27 24 20 19 20 15 14 14 14 15 13 15 16 14 12 12 10 13 13 14
20 13 15 19 19 15 18 15 11 5 3 9 15 17 16 17 19 20 20 23 26 29 29 27 24 17 18 18 19 17 15 15 15 14 15 16 17 16 12 12 12 13 11 13
21 19 17 16 18 18 13 7 2 3 10 14 16 15 16 19 21 20 23 26 29 28 27 23 18 17 18 19 20 20 16 16 15 15 18 20 18 15 13 13 14 10 11 12
15 19 21 21 17 13 4 0 6 10 14 15 15 15 18 19 20 23 26 29 29 26 22 18 20 20 19 19 21 19 19 16 17 19 19 14 13 14 14 14 13 11 13 12
20 22 21 13 7 3 3 8 12 13 12 12 14 16 17 17 19 22 25 27 28 26 23 22 21 21 23 23 28 18 19 16 14 14 14 14 14 13 14 14 13 13 13 12
17 8 8 7 2 7 10 10 10 11 11 12 16 17 17 15 18 21 24 26 24 24 24 25 22 28 25 23 28 17 18 16 14 13 12 13 14 13 14 14 14 15 14 15
8 5 0 5 10 9 10 11 12 13 13 15 18 18 15 16 18 20 26 31 28 20 24 25 26 27 24 26 20 15 17 18 17 17 17 17 18 17 15 16 16 16 17 18
3 3 8 12 12 13 12 14 14 14 15 16 15 14 17 20 21 24 26 29 29 24 26 28 28 27 23 22 19 16 18 21 21 21 20 20 22 20 19 18 18 18 18 16
6 10 11 13 14 14 13 12 13 14 16 17 19 20 22 24 24 26 33 32 30 25 26 28 27 26 23 21 19 19 21 23 24 25 23 22 23 23 20 18 19 19 19 18
9 11 12 11 12 12 13 14 16 17 19 20 21 22 24 27 26 26 27 32 27 23 24 24 24 23 22 22 21 20 23 27 28 30 31 28 27 24 22 22 22 22 21 19
10 10 10 10 11 14 19 22 25 25 25 24 25 25 24 23 26 27 29 24 23 21 23 23 22 22 21 20 22 24 24 25 27 28 29 30 32 29 24 19 22 24 25 24
11 11 13 15 17 20 25 25 25 25 26 28 30 26 22 25 26 24 24 21 22 22 24 23 22 21 20 22 23 23 24 26 27 27 28 28 28 29 26 22 20 21 22 22
13 17 20 22 25 25 27 26 25 28 30 34 31 27 25 25 20 21 23 21 23 21 21 21 20 20 20 21 23 24 25 25 26 27 27 27 26 25 23 20 18 17 17 19

GFSNGP_850_spd_021.txt.gz
Wind_Speed
3 4 2 1 3 5 6 5 5 5 7 5 10 9 20 23 17 12 7 2 2 2 2 4 6 8 10 13 14 20 24 27 26 27 27 28 31 35 25 21 23 22 15 10
1 4 5 3 5 7 6 4 7 5 5 3 11 14 19 20 15 9 5 3 2 2 5 8 7 9 10 15 19 24 28 25 22 23 27 29 34 30 21 18 20 19 13 11
3 4 4 6 8 8 5 4 6 6 8 11 6 16 23 18 13 9 6 4 3 5 6 7 6 10 15 19 23 24 21 18 20 24 28 33 32 24 21 20 12 7 12 14
2 3 2 6 3 4 6 4 3 2 7 15 15 16 14 12 11 8 7 5 6 6 7 7 10 13 17 22 22 19 16 19 24 29 33 32 26 19 15 8 9 11 13 11
4 3 5 4 5 7 7 7 7 6 7 12 11 9 10 14 10 9 8 8 7 6 8 10 12 17 22 21 21 17 21 26 29 32 31 25 18 15 8 8 11 7 12 16
2 4 6 6 3 8 6 5 15 16 15 15 16 3 5 20 13 12 10 8 7 7 9 13 16 20 19 17 19 23 27 27 29 27 23 22 15 12 10 10 8 12 12 17
2 4 8 6 6 8 5 7 21 24 27 23 10 13 5 15 12 11 9 8 6 8 11 15 18 17 18 21 24 25 26 27 25 22 23 18 14 13 12 10 10 11 16 18
3 1 8 12 5 8 6 8 20 25 26 31 27 11 12 13 13 10 10 7 8 12 15 17 19 20 21 22 23 25 26 24 23 22 21 14 11 9 9 10 11 13 15 16
9 6 4 20 9 22 9 10 22 23 26 23 19 14 13 14 12 11 8 7 10 15 18 19 20 19 21 23 24 26 26 21 21 21 16 13 13 13 12 10 11 14 15 14
2 6 14 14 26 16 16 20 15 21 21 19 15 14 14 15 11 8 7 9 14 17 20 20 20 21 21 23 26 27 20 17 20 19 16 15 14 12 11 11 13 15 14 13
5 10 11 14 19 24 24 19 15 17 19 18 15 16 17 14 9 6 8 13 17 20 20 21 22 21 23 25 24 23 18 18 21 17 14 13 10 10 13 15 16 15 13 13
7 14 10 10 10 14 18 20 19 19 17 15 15 18 14 8 4 9 12 16 18 19 21 21 22 24 25 26 22 21 21 20 20 16 12 12 12 13 14 17 15 12 13 12
18 18 14 18 16 16 19 19 17 17 16 18 13 9 5 3 8 12 14 16 18 20 21 23 25 27 26 23 21 20 20 20 15 16 13 13 15 16 18 7 9 11 13 12
21 18 13 14 10 19 17 16 18 20 15 11 10 6 5 9 12 12 15 17 19 21 23 26 28 29 22 19 19 19 20 16 16 17 16 17 15 15 14 14 12 12 11 12
24 20 18 11 10 19 18 20 21 17 13 12 6 4 9 12 12 14 16 18 21 24 26 29 29 25 15 17 18 19 19 17 16 16 16 14 14 14 14 15 15 12 13 12
10 15 12 14 20 19 24 20 16 11 10 4 5 9 12 13 14 16 17 19 23 26 28 28 25 17 17 19 20 19 19 21 18 17 14 14 16 17 16 15 15 13 14 11
10 12 18 21 24 22 15 10 7 4 5 8 10 12 12 14 15 16 15 18 22 24 25 23 21 19 19 19 20 20 21 20 21 17 16 17 19 19 16 16 15 14 12 12
5 14 17 18 16 17 11 5 2 7 9 11 12 13 14 15 16 15 16 18 21 23 22 20 20 23 22 20 23 24 26 24 22 19 17 18 17 12 15 16 17 16 14 12
16 23 24 22 13 7 4 4 7 9 10 12 13 13 14 15 15 14 15 17 21 26 26 22 22 24 24 23 21 20 27 26 20 19 15 14 14 13 15 16 16 17 16 15
17 14 15 13 6 3 7 8 8 9 10 11 12 15 18 17 15 15 17 20 21 25 26 23 24 23 24 25 22 22 23 19 17 18 17 16 15 14 14 17 18 18 18 18
14 11 6 4 3 4 6 8 9 10 10 12 15 16 17 17 15 18 23 26 26 27 27 24 23 26 27 26 25 23 22 20 18 20 21 20 20 20 20 18 19 21 21 20
2 4 7 7 8 7 8 8 10 12 13 14 16 18 21 22 23 24 25 29 29 30 31 28 24 23 23 24 25 24 22 21 20 21 23 24 25 26 24 22 21 21 22 22
6 8 9 11 10 10 9 9 10 14 17 18 21 22 23 25 26 27 30 27 29 30 27 25 23 23 21 23 24 24 22 22 22 24 26 28 29 30 28 27 26 23 20 23
9 9 9 10 9 10 12 15 18 21 24 25 24 22 24 28 30 27 26 27 27 26 23 24 24 24 22 22 23 24 23 23 24 25 25 26 28 30 32 33 33 29 25 23
8 8 8 11 13 15 19 22 27 27 27 27 25 25 29 30 27 25 25 26 26 24 26 25 27 24 21 19 19 22 25 24 26 27 26 27 28 28 29 29 28 30 24 22
8 10 12 14 17 20 24 26 29 31 31 32 31 31 32 32 25 25 26 22 22 25 23 25 23 23 22 22 22 22 24 25 26 26 27 28 28 28 28 27 26 25 24 18
12 17 20 23 24 26 28 29 32 34 32 32 34 31 29 25 22 22 21 21 24 22 25 26 25 24 22 23 23 24 25 26 25 25 25 25 27 26 25 23 21 19 18 16

GFSNGP_850_spd_024.txt.gz
Wind_Speed
2 3 1 2 4 6 7 5 6 5 7 7 9 9 20 24 25 21 17 12 8 7 7 5 7 8 7 9 11 16 20 22 18 17 20 26 30 32 32 24 20 18 20 18
1 4 5 4 6 7 5 4 7 4 10 7 6 15 18 25 26 20 16 11 8 8 8 8 7 7 9 11 15 20 20 18 17 19 25 28 31 32 26 22 20 18 16 10
3 4 5 6 9 10 5 5 7 6 9 6 5 13 23 27 24 20 15 11 11 10 8 7 8 8 10 14 18 18 18 18 17 23 27 30 29 26 21 20 12 6 10 13
2 3 2 6 2 3 7 4 7 2 4 9 8 16 20 25 23 18 14 12 11 9 8 9 9 10 13 16 18 17 16 17 22 25 28 28 24 23 18 15 12 13 13 9
4 3 6 4 5 7 8 8 9 7 4 7 8 11 13 21 20 16 13 11 9 9 8 8 9 12 16 18 18 17 19 21 23 26 27 25 25 20 15 14 15 13 10 12
3 3 6 7 3 4 5 5 9 15 12 13 13 3 8 23 21 17 15 12 9 10 9 9 11 15 19 20 18 19 20 22 25 26 25 24 23 16 14 13 13 12 12 15
3 3 8 7 4 4 5 7 9 21 21 23 7 17 9 10 20 16 13 12 12 9 8 10 15 18 19 18 17 19 21 24 25 24 23 23 19 13 12 11 11 12 15 18
3 2 7 9 4 7 6 6 14 20 22 29 26 20 11 10 17 15 13 14 11 8 9 13 16 17 17 17 18 21 23 25 24 21 21 20 16 15 14 13 13 13 15 17
9 6 4 20 7 16 6 7 15 19 18 24 26 17 15 14 15 12 14 11 8 9 12 15 17 18 19 19 21 23 25 25 21 20 20 18 17 16 15 14 13 14 16 16
2 5 12 20 24 31 17 20 21 16 20 21 25 22 18 19 11 14 10 6 8 12 16 17 18 19 19 20 24 24 24 23 18 20 21 18 16 14 13 13 15 16 17 15
5 12 18 22 21 18 25 28 27 23 20 21 20 19 17 9 12 9 7 8 12 15 17 18 19 19 21 23 25 25 23 21 19 20 22 19 14 12 12 15 17 17 15 13
6 20 11 15 20 14 14 18 19 18 15 16 16 16 14 11 10 6 7 11 14 16 17 19 20 22 24 25 26 24 21 20 20 19 18 17 15 14 15 15 20 14 12 13
17 19 18 20 16 20 21 18 12 14 16 19 16 15 12 11 6 5 10 12 15 16 18 21 23 25 26 25 20 19 19 20 20 18 16 18 16 17 18 15 16 14 13 13
20 19 17 18 17 14 12 11 16 16 17 20 13 12 9 5 4 7 10 13 15 17 19 22 25 26 24 18 17 18 19 19 19 19 18 20 18 19 18 17 15 15 14 14
13 12 14 14 9 8 10 14 17 22 16 17 13 7 3 5 7 9 11 14 15 16 19 21 23 22 18 18 18 18 20 20 19 21 20 20 18 16 17 17 17 17 16 14
13 8 6 3 10 12 16 21 23 19 19 9 1 6 8 9 9 11 13 14 15 16 17 20 22 21 20 21 21 21 21 19 18 20 22 20 18 18 19 19 20 18 18 16
4 7 12 16 17 21 20 17 18 15 7 3 6 9 10 12 12 13 13 14 15 14 16 20 22 22 22 22 21 23 27 26 24 25 24 22 20 20 21 21 20 19 18 15
4 9 13 19 21 21 18 15 7 5 4 8 11 11 12 13 15 16 15 15 14 15 16 20 22 22 24 24 20 22 24 21 24 28 25 21 22 19 17 16 17 19 18 19
23 26 24 23 20 16 12 5 3 6 7 9 10 11 14 16 18 18 17 18 17 21 22 23 24 25 24 22 24 26 25 23 24 23 20 19 20 18 17 17 17 18 18 19
19 19 17 13 8 4 4 6 6 7 9 10 12 14 16 15 16 18 18 23 23 25 27 27 27 28 27 25 24 26 24 23 22 21 20 19 20 21 19 19 19 19 21 22
12 9 7 6 6 6 7 8 8 8 8 10 13 15 18 20 20 21 24 28 30 27 28 29 28 28 25 24 23 23 23 24 22 21 20 20 22 24 25 25 25 24 24 22
4 5 6 8 7 6 5 6 8 10 13 15 18 21 24 27 26 26 27 29 31 30 27 27 28 27 27 24 24 23 23 23 21 20 20 20 22 25 28 28 28 29 29 27
5 6 7 7 8 7 7 9 12 16 19 22 24 24 25 27 27 28 34 32 27 24 26 26 26 27 26 28 26 22 21 21 22 21 21 22 22 23 24 26 28 30 32 32
6 6 6 6 7 9 12 15 19 22 25 27 27 26 27 28 34 31 32 30 27 30 28 24 24 26 28 28 20 19 19 19 21 23 22 22 23 25 27 27 26 26 28 28
3 4 6 10 13 16 20 24 28 30 32 34 34 31 27 27 29 33 32 27 25 28 24 22 24 23 27 25 24 22 23 23 23 23 22 24 24 26 26 26 27 26 26 25
5 8 11 14 17 21 24 27 30 30 29 31 30 29 32 29 27 26 25 24 22 23 24 24 23 24 24 22 22 21 21 22 22 22 23 21 21 24 24 25 26 25 22 20
11 15 19 21 23 25 26 26 28 29 29 29 32 32 32 31 31 30 26 25 23 26 26 24 21 22 22 20 19 19 19 18 19 20 20 21 21 21 22 25 24 20 16 14

GFSNGP_850_spd_027.txt.gz
Wind_Speed
1 1 1 2 4 8 8 4 6 3 8 5 7 11 15 14 18 24 26 24 20 16 13 8 5 7 9 9 9 9 14 17 17 16 15 20 26 29 28 24 22 21 16 13
3 1 3 3 5 7 7 4 10 5 14 9 5 6 13 20 25 27 27 24 19 15 12 10 8 9 9 8 8 13 16 16 15 15 18 24 27 26 24 22 20 15 9 8
3 3 2 5 9 12 6 6 9 10 9 6 5 10 16 21 27 28 29 24 20 16 13 9 10 9 8 8 12 15 16 15 12 17 21 24 24 23 23 20 16 12 11 12
2 2 1 4 2 3 12 7 14 5 4 7 4 7 10 18 27 30 27 23 19 16 13 10 10 9 9 11 14 16 15 14 16 19 21 23 23 22 20 16 14 14 15 13
3 3 5 5 4 6 7 6 12 14 6 3 3 1 9 14 21 26 25 20 16 13 12 12 10 9 10 13 16 16 15 16 18 20 21 23 23 22 18 14 14 14 13 12
3 3 5 5 2 3 4 4 2 12 9 10 10 2 5 13 22 24 21 18 16 13 12 9 7 8 12 15 16 16 17 17 19 20 22 23 22 20 15 13 14 15 14 14
2 3 7 6 2 3 2 5 3 12 15 17 7 11 6 5 21 23 19 16 13 10 9 7 7 11 15 15 15 17 18 19 21 22 22 21 21 18 14 13 13 13 14 15
3 1 6 6 4 4 4 4 6 14 17 14 14 13 14 10 17 22 20 17 11 9 9 8 10 14 15 15 16 17 19 22 23 24 21 19 20 18 15 15 15 15 15 17
8 5 4 14 9 9 12 10 8 12 16 17 17 19 13 13 18 17 15 10 11 9 8 9 13 14 15 15 16 18 21 23 24 23 19 17 19 18 16 16 15 16 16 19
1 3 10 19 20 23 26 28 24 20 18 16 20 17 15 19 22 17 11 11 8 8 10 12 12 13 15 16 18 21 23 24 23 22 20 18 19 18 16 14 14 16 19 19
4 12 15 12 14 12 14 17 19 19 19 18 15 16 20 23 15 13 13 10 7 9 12 11 12 14 16 18 21 24 25 22 20 21 19 21 20 17 15 14 14 16 19 19
5 13 6 12 14 18 14 14 16 15 14 10 10 19 23 18 16 9 6 6 8 10 11 12 13 15 18 21 22 23 21 20 19 18 19 18 17 16 18 16 16 17 17 14
9 14 21 21 19 16 16 15 12 6 5 12 18 25 21 19 12 8 2 9 10 10 11 12 14 17 21 23 21 17 17 18 18 17 18 18 18 19 20 18 20 18 17 15
11 11 9 7 8 13 9 5 3 12 19 25 21 21 19 9 5 4 8 10 10 10 11 12 15 18 19 18 17 18 17 17 17 19 19 20 20 20 22 22 22 20 18 17
17 9 6 6 4 3 6 11 20 25 23 24 20 15 9 2 3 8 12 11 11 11 11 13 15 17 18 18 18 19 18 18 19 20 19 19 21 22 21 21 21 22 20 18
8 6 5 7 11 12 14 20 23 23 22 18 11 2 5 7 12 10 10 12 12 12 13 15 16 17 18 18 20 21 20 20 22 23 22 23 23 23 24 21 22 22 22 20
3 11 14 21 24 24 25 24 21 18 13 9 5 4 10 10 10 10 12 14 16 15 16 17 18 18 18 19 21 23 22 22 23 20 19 23 27 26 24 22 23 22 21 20
13 18 25 26 23 21 19 16 14 10 6 5 9 9 9 10 12 14 15 18 20 20 20 20 22 22 22 22 22 22 25 27 26 24 21 23 24 22 21 23 22 21 19 18
24 22 20 18 16 12 8 5 3 4 5 7 8 9 10 12 15 16 18 20 20 23 24 22 25 26 25 24 24 25 26 25 26 24 22 21 23 22 21 23 22 21 20 19
16 14 10 8 7 6 6 6 7 8 9 10 11 13 15 16 18 20 22 24 22 23 25 25 25 26 27 27 22 25 24 24 24 23 22 21 22 22 21 24 24 24 24 24
8 7 7 6 6 6 6 7 7 8 9 11 14 16 19 20 20 22 24 27 27 27 27 27 24 26 27 25 26 26 24 24 23 21 22 22 22 20 21 22 25 26 26 27
5 4 5 5 5 5 5 4 6 9 12 16 18 21 24 26 26 27 26 28 31 28 27 25 25 26 26 24 25 26 26 20 19 22 21 23 22 22 22 21 21 22 24 25
4 4 4 4 5 6 6 9 13 17 20 23 25 26 27 28 29 28 34 31 30 29 27 24 27 25 21 23 22 27 22 18 18 19 20 21 21 21 22 21 21 22 24 24
3 3 4 5 7 10 14 18 21 24 25 26 25 24 24 27 31 28 30 30 29 27 26 23 25 22 20 21 23 25 23 21 22 23 25 24 22 21 24 23 24 24 22 22
1 2 4 8 13 16 19 23 25 26 28 29 29 29 27 24 28 34 32 32 30 28 28 24 23 23 22 20 23 22 20 18 19 21 21 21 21 22 22 19 24 24 21 23
3 6 10 13 15 18 21 23 25 27 30 33 34 34 33 32 31 30 30 30 30 27 29 27 25 23 23 19 18 17 16 16 16 16 16 16 17 18 19 19 20 19 21 21
6 9 13 15 18 20 22 24 27 29 29 30 34 33 33 33 31 29 27 27 28 28 28 27 22 20 18 15 13 13 13 13 14 16 16 16 16 17 17 17 16 17 19 19

GFSNGP_850_spd_030.txt.gz
Wind_Speed
1 1 3 4 7 13 16 13 7 8 11 9 5 8 9 11 16 21 22 24 24 23 21 19 17 16 11 12 12 10 9 9 11 11 11 11 13 16 17 16 15 15 14 12
3 2 2 7 9 11 15 15 15 18 19 15 11 9 9 12 17 22 24 24 24 23 21 19 18 15 11 12 11 11 11 10 11 11 10 12 15 17 15 15 14 14 11 9
2 2 3 7 15 17 12 12 14 14 16 3 5 9 10 12 16 20 23 25 25 23 21 18 17 14 12 12 12 11 12 12 11 11 12 13 15 14 14 14 14 13 11 11
1 2 3 1 1 3 13 16 15 18 13 9 4 4 6 9 15 19 21 22 23 21 18 16 13 12 12 12 10 13 13 10 10 12 12 14 14 14 14 14 13 13 12 11
2 4 6 11 3 3 4 6 5 12 12 7 5 4 11 10 13 15 17 19 19 17 15 15 12 13 11 9 12 12 10 11 11 12 14 14 14 14 15 13 13 13 13 12
3 3 4 3 3 1 2 5 6 5 6 9 8 4 5 2 8 11 13 17 17 18 17 14 14 10 9 10 9 11 12 12 13 14 15 16 16 14 14 11 12 12 12 12
3 4 6 1 2 3 3 3 8 5 6 11 7 8 4 5 8 12 15 17 18 18 16 17 11 8 13 9 11 11 14 16 14 15 16 16 15 15 14 12 13 12 16 15
3 3 4 6 6 3 4 6 7 8 6 12 8 7 4 5 12 16 19 19 16 20 16 6 9 12 8 8 10 14 15 15 15 16 17 15 13 15 15 13 12 12 15 16
6 1 3 9 6 5 6 10 12 10 9 11 14 10 8 8 12 15 16 17 16 13 7 9 12 10 9 9 13 14 16 17 17 15 14 13 14 16 17 14 13 13 13 13
1 1 7 8 10 12 11 14 15 14 14 14 16 12 10 12 15 18 18 18 12 7 9 7 8 11 12 12 14 16 18 17 14 13 15 15 15 17 15 13 13 13 13 14
4 11 8 5 5 6 11 12 12 11 11 12 11 9 11 14 16 16 15 12 8 7 6 8 10 11 13 14 16 18 17 16 14 13 14 15 16 16 14 14 14 14 13 13
3 8 5 8 12 13 12 12 12 11 8 6 1 7 11 13 16 17 13 9 3 6 9 12 12 12 13 15 16 17 17 15 13 15 14 15 16 15 16 17 19 19 19 18
7 15 13 11 5 11 9 9 8 8 8 12 14 17 22 21 16 11 5 3 4 9 11 12 12 12 14 14 15 16 17 18 15 17 17 17 16 16 16 16 20 20 20 21
10 9 3 12 7 10 12 14 15 16 18 22 25 24 21 17 11 5 5 9 11 12 13 13 13 13 14 15 16 17 19 21 19 16 19 21 22 21 19 21 19 19 21 19
11 8 8 9 10 13 11 13 22 27 26 25 21 17 12 8 3 5 10 13 14 15 14 14 14 13 16 17 18 20 22 19 19 21 21 21 22 24 23 22 23 21 15 18
9 11 12 15 16 18 23 26 27 22 17 15 14 10 5 1 7 12 11 12 15 16 16 17 18 17 18 19 22 23 20 19 20 19 19 22 21 22 23 24 22 21 18 17
10 17 21 25 24 22 21 17 15 14 11 6 0 4 8 10 10 11 12 15 17 19 19 21 22 21 24 25 26 25 20 19 21 23 20 20 18 21 22 21 22 22 21 21
15 21 21 20 18 16 13 10 5 2 3 6 7 7 8 9 11 13 15 17 19 21 21 22 24 25 28 30 30 27 25 26 26 27 26 24 22 21 22 24 21 22 20 18
17 15 12 10 8 6 4 4 4 5 6 7 8 9 10 12 14 17 20 22 24 26 23 25 26 28 29 28 30 28 29 26 26 26 25 25 23 21 22 22 21 22 23 20
11 10 8 7 6 6 6 6 6 6 6 7 9 12 14 17 19 22 25 28 27 26 28 29 28 28 26 25 25 27 25 26 27 27 26 24 23 23 23 22 21 21 22 25
7 6 5 5 5 5 5 5 5 6 9 12 15 18 21 24 26 27 29 32 26 24 27 29 27 27 21 23 27 28 25 24 23 24 23 22 23 24 23 23 21 19 20 22
4 3 3 4 3 3 2 3 6 10 14 18 21 23 25 26 27 28 25 24 24 26 28 29 29 26 25 27 29 25 22 20 22 21 21 21 21 21 22 21 21 22 22 22
3 3 3 3 2 0 4 7 12 16 19 21 21 22 24 23 21 25 31 24 29 31 31 30 28 26 24 26 26 24 20 21 21 22 22 22 21 21 23 23 23 23 22 22
4 4 3 1 2 6 9 14 17 19 21 22 23 25 26 30 30 21 24 30 31 32 32 31 30 28 28 23 21 22 22 22 21 21 20 19 19 20 20 20 22 22 21 24
4 2 1 4 7 11 14 18 19 20 23 24 24 24 24 22 24 30 30 28 27 29 30 30 28 25 27 23 22 21 19 17 16 15 15 15 16 16 16 17 18 19 23 26
2 1 4 8 10 13 16 19 21 22 24 23 22 23 25 25 25 26 26 26 25 26 24 27 27 22 19 18 17 15 13 12 12 12 13 14 15 16 16 17 17 16 16 16
2 5 7 9 12 15 18 21 22 23 22 22 25 25 24 23 23 22 23 24 23 23 22 21 20 19 17 14 13 12 11 11 12 13 14 15 16 17 17 17 17 17 16 15

GFSNGP_850_spd_033.txt.gz
Wind_Speed
14 5 6 8 8 11 16 15 13 12 13 10 9 6 8 9 12 16 18 21 23 24 24 24 23 22 21 18 14 14 9 11 12 12 11 12 13 13 14 15 15 15 16 15
6 8 7 10 11 13 14 16 17 17 17 15 11 11 7 11 11 14 17 20 22 23 23 24 23 22 20 18 14 10 10 13 11 11 11 12 13 14 15 15 15 15 15 14
5 3 5 6 15 17 17 17 12 15 15 9 8 7 9 9 9 11 14 17 21 23 23 23 22 21 21 16 11 11 12 11 11 11 11 12 13 15 15 15 16 16 16 15
0 2 1 2 2 4 6 12 14 13 14 12 8 8 7 7 9 9 12 15 18 20 21 21 20 21 16 13 11 11 9 10 10 11 11 12 14 16 16 15 17 16 15 14
2 6 9 11 5 1 2 4 9 8 10 12 5 6 16 11 5 7 11 13 15 17 19 19 19 16 17 11 10 10 9 10 11 11 13 14 15 17 17 17 17 16 15 14
3 3 4 4 4 2 2 5 8 10 11 11 4 5 2 2 3 5 7 10 13 15 16 18 17 16 14 12 9 7 10 11 11 13 14 15 16 17 17 16 17 16 15 13
5 3 6 5 3 2 5 3 10 11 11 10 8 5 7 8 7 8 8 10 12 15 16 16 14 11 7 3 4 8 9 12 12 12 15 16 17 17 16 16 17 16 21 16
3 2 5 6 6 2 5 8 10 11 11 11 12 12 10 10 9 7 7 7 9 10 12 12 11 4 2 5 4 9 13 11 13 14 15 16 16 16 15 17 17 16 19 21
6 1 5 5 4 4 7 9 11 12 13 13 14 16 17 12 9 4 5 6 9 12 12 6 2 2 3 6 15 11 11 14 14 15 15 15 15 17 18 17 17 16 16 18
1 3 1 4 5 3 7 10 12 14 14 14 15 15 14 4 2 4 7 9 9 7 4 3 1 5 7 8 11 13 13 13 14 14 15 15 16 17 17 18 17 17 17 15
5 9 4 1 6 8 11 11 10 11 12 10 12 11 3 4 7 9 10 11 10 7 4 2 6 8 9 14 14 12 13 14 14 15 14 16 17 17 17 17 18 20 17 18
3 5 4 8 10 9 8 9 9 9 8 10 9 8 12 14 12 13 13 11 8 6 5 6 9 14 15 12 13 15 16 15 16 17 16 17 18 17 18 20 19 22 24 24
4 8 4 4 8 10 11 12 13 15 14 16 18 17 17 20 17 14 12 9 5 3 6 11 15 13 15 16 16 16 17 17 17 15 16 18 18 19 21 22 22 22 22 22
5 6 8 11 8 10 11 13 11 14 18 22 23 21 18 15 11 8 5 1 4 8 11 14 18 18 15 14 18 19 19 19 18 16 18 20 19 20 23 26 27 27 24 23
7 9 10 10 10 12 13 16 20 23 20 16 14 13 11 8 3 2 5 10 13 15 16 15 15 16 15 19 22 22 20 18 20 23 24 21 23 23 25 26 26 26 25 26
10 11 11 12 14 15 17 18 18 15 10 8 7 5 4 5 6 8 9 10 15 16 16 18 22 23 24 24 22 21 22 25 26 26 25 23 25 28 27 27 26 25 26 25
12 12 14 16 16 15 12 10 9 8 6 4 5 6 7 7 9 9 12 14 17 20 21 24 26 25 24 24 23 26 28 30 28 32 28 28 29 30 28 26 27 27 25 24
14 16 15 15 13 11 8 6 4 4 4 5 6 7 8 10 12 15 18 21 23 25 26 24 20 25 28 26 25 28 30 31 29 29 31 29 30 29 27 28 27 26 26 24
16 15 12 10 7 6 5 5 5 5 5 6 7 9 12 14 17 21 25 28 30 30 24 24 27 29 26 27 28 26 28 32 28 27 27 28 29 31 31 27 25 24 24 23
12 9 9 8 7 7 5 6 7 4 5 8 11 15 18 21 24 27 28 27 24 21 26 30 30 32 29 26 27 28 28 27 29 29 27 26 27 27 29 28 24 24 24 23
9 8 7 6 6 6 5 4 3 5 9 13 16 19 22 23 24 27 26 23 23 24 29 32 31 31 31 28 28 30 31 33 31 26 22 24 25 26 26 25 24 21 21 21
7 6 6 6 5 4 2 2 5 9 12 15 17 20 23 23 24 21 20 22 25 28 33 34 33 33 34 35 32 30 29 30 32 24 20 21 23 22 21 19 19 20 22 22
8 6 6 6 5 3 3 6 9 12 15 17 20 22 23 21 19 23 26 23 27 28 29 30 34 35 35 35 32 31 30 27 26 19 21 21 18 18 18 19 20 21 21 22
7 6 5 5 3 3 3 8 11 12 17 17 17 21 21 21 19 18 21 26 26 28 26 25 28 34 33 26 25 22 15 16 17 18 16 15 14 14 15 15 16 16 17 18
6 5 4 2 1 3 6 10 11 11 14 15 16 14 17 16 18 21 22 22 24 24 24 24 27 27 23 22 20 19 15 16 17 14 12 11 12 13 13 15 16 17 17 15
5 4 2 2 3 5 8 12 13 12 15 14 14 16 16 17 17 18 20 21 22 22 22 23 24 26 23 21 20 19 16 15 15 13 13 13 14 15 15 16 16 17 16 16
4 3 1 1 6 9 13 15 13 14 13 14 17 15 16 17 18 18 19 20 21 21 21 21 21 23 23 21 20 19 17 16 17 17 16 16 15 16 17 17 17 17 16 16

GFSNGP_850_spd_036.txt.gz
Wind_Speed
14 16 2 10 9 7 11 11 11 10 13 11 10 9 10 4 4 9 13 18 20 20 19 21 21 23 22 23 21 21 16 20 13 9 15 15 13 15 16 17 20 17 15 15
8 10 10 12 14 13 14 13 13 14 13 10 8 8 11 11 8 7 9 13 11 13 16 17 20 23 22 21 22 21 21 13 13 13 10 13 13 15 16 17 16 16 18 17
2 6 7 5 10 16 15 14 10 11 9 7 12 10 9 5 8 4 9 9 9 13 16 18 19 22 21 22 24 20 13 10 13 12 13 12 12 13 16 18 18 19 18 19
1 2 1 7 4 5 5 7 9 8 11 14 14 15 9 9 7 7 3 6 8 10 14 15 15 14 17 19 13 12 13 8 9 12 12 12 14 15 15 18 19 19 20 20
3 4 7 10 1 2 2 5 11 10 10 11 11 11 15 4 3 4 7 9 9 10 9 10 11 14 14 11 14 7 5 9 10 11 12 19 14 17 17 19 20 20 21 17
3 2 4 2 5 3 2 2 9 10 9 12 14 4 6 11 7 6 9 9 9 7 6 8 10 8 12 9 9 10 6 7 11 14 20 16 19 18 19 19 20 18 18 18
3 1 6 6 5 1 2 3 5 6 10 11 7 8 4 8 10 10 10 6 1 5 8 8 10 13 11 7 5 2 5 5 15 14 14 17 19 20 21 21 18 19 23 25
2 2 5 6 6 2 5 6 10 9 10 9 10 13 15 12 6 9 7 8 10 10 13 13 12 12 8 8 6 4 14 15 14 17 15 17 21 23 20 16 19 20 21 24
7 3 5 4 5 5 5 5 7 10 11 12 12 13 13 11 6 7 10 10 13 14 12 9 6 3 5 5 6 8 10 17 20 15 16 18 19 18 19 21 22 24 23 24
2 2 6 5 2 10 9 9 9 9 10 9 10 11 10 9 11 13 14 15 13 11 9 9 10 8 3 4 7 11 17 17 15 17 18 19 18 17 19 20 21 21 23 23
5 4 3 15 13 10 8 8 9 9 13 13 9 13 13 17 18 16 15 11 9 9 7 5 3 3 4 8 14 14 13 17 17 17 18 19 20 16 20 23 25 28 25 23
1 8 3 14 10 9 11 12 11 12 14 16 14 15 13 14 12 11 11 11 8 4 2 3 5 9 13 14 14 17 18 17 18 18 19 20 17 21 22 23 26 24 23 23
4 4 8 12 15 12 14 13 12 13 12 11 10 10 10 13 12 9 7 6 7 5 6 9 13 14 16 18 20 18 19 20 21 21 21 18 19 23 27 26 21 24 26 24
4 4 12 8 11 10 10 13 12 16 20 20 19 16 13 12 10 9 8 4 5 9 12 15 18 18 18 19 18 23 29 29 27 25 23 21 25 27 25 26 27 29 25 25
11 14 16 15 14 13 13 15 17 16 15 15 13 12 11 8 6 6 8 10 11 12 12 13 16 19 21 23 25 28 28 29 29 29 29 29 30 32 29 29 29 29 28 25
11 13 13 15 15 15 15 13 14 13 11 10 8 7 6 5 4 6 7 10 15 17 19 22 24 25 24 24 24 25 27 29 31 32 33 33 28 32 31 30 31 30 28 29
15 12 14 16 17 15 13 11 11 10 9 4 6 6 7 8 7 8 12 15 19 22 24 25 21 18 20 23 28 28 30 32 33 34 31 30 33 29 30 29 30 31 29 28
7 15 14 17 17 15 11 8 7 5 6 7 7 7 9 11 14 16 20 24 26 26 21 15 22 28 30 31 29 33 33 33 34 33 33 33 31 29 28 31 31 31 32 26
18 18 16 14 12 12 10 8 7 7 6 6 6 9 13 16 18 20 22 24 23 22 21 26 29 33 36 34 31 31 31 33 35 36 31 27 28 30 29 26 27 29 29 27
17 15 14 13 11 9 10 11 8 4 4 5 9 12 14 17 19 21 22 20 17 18 24 29 34 35 29 29 30 34 37 38 36 35 33 33 30 29 23 24 25 26 23 23
14 12 12 11 11 9 9 7 4 1 5 9 12 15 17 18 19 20 21 20 17 26 31 31 28 28 31 35 37 36 35 38 35 31 32 31 33 21 18 18 20 19 17 17
11 11 10 9 8 8 6 3 2 5 8 11 14 16 19 20 20 19 16 17 26 29 30 28 26 31 35 35 30 27 30 29 25 22 25 25 13 12 18 16 17 17 20 21
9 11 10 11 8 5 2 2 5 8 11 14 17 20 20 19 18 20 20 22 25 27 26 24 28 31 31 29 26 25 24 21 19 22 23 20 16 12 12 12 14 15 16 16
9 9 9 8 5 4 3 5 6 8 13 12 13 17 19 19 18 15 19 23 23 25 24 23 27 29 29 27 26 24 23 23 24 23 20 15 13 13 11 12 14 14 14 14
9 7 7 5 5 2 1 5 4 7 11 12 13 15 16 15 17 22 20 21 22 23 23 23 24 27 28 26 24 23 22 21 24 23 19 17 16 15 16 16 16 15 15 14
8 6 6 7 4 2 4 6 8 9 12 12 13 15 13 16 19 21 19 20 20 22 22 23 22 24 26 25 23 22 22 21 22 23 21 20 18 18 18 18 17 16 16 15
10 8 5 2 3 4 8 10 10 12 11 15 17 14 12 16 19 20 20 18 19 20 21 21 21 21 23 23 22 21 21 21 20 22 22 21 20 19 19 18 18 18 17 17

GFSNGP_850_spd_039.txt.gz
Wind_Speed
5 5 3 4 5 6 4 6 7 8 7 13 3 6 13 7 7 5 6 16 26 31 35 34 32 29 27 24 25 29 24 23 16 15 14 13 18 14 15 26 22 23 24 20
2 6 7 3 5 8 6 5 1 4 6 4 7 9 12 12 10 9 8 11 7 5 20 27 29 26 24 24 29 29 24 21 19 16 13 6 9 14 16 16 22 22 23 23
2 4 6 6 6 6 6 4 3 4 4 7 10 12 13 12 14 8 5 5 8 2 4 14 18 17 25 25 27 26 23 18 11 8 11 14 14 13 15 19 22 23 25 25
3 3 1 9 1 5 6 6 8 9 7 9 11 24 23 15 19 17 15 15 10 6 5 8 10 16 20 22 22 20 15 13 9 7 4 4 7 10 17 19 22 24 22 24
4 4 5 6 2 2 4 4 6 8 8 16 16 15 21 20 16 15 14 11 9 6 2 6 11 18 20 19 17 17 12 8 5 7 3 6 14 14 22 24 22 26 27 27
2 4 6 6 3 5 4 2 6 13 10 12 18 5 3 10 12 12 7 6 3 9 13 17 19 19 21 22 19 17 11 7 4 3 7 9 15 19 17 23 26 27 29 25
2 2 7 5 6 2 6 5 9 13 12 12 5 4 2 4 10 10 10 9 12 15 18 20 18 18 18 17 14 7 4 1 12 9 7 13 16 19 20 24 28 27 21 22
4 3 5 10 4 6 7 13 13 12 12 11 10 13 14 18 16 12 13 12 12 14 16 14 12 10 11 9 6 6 15 20 11 9 16 17 18 20 22 23 23 22 24 25
7 6 7 14 21 21 20 18 16 15 11 8 11 13 13 18 16 15 13 13 11 9 9 7 4 5 8 14 18 14 5 7 14 19 18 17 19 20 23 22 23 22 24 26
5 3 6 24 25 20 16 16 12 9 7 5 8 11 17 17 16 15 13 11 10 10 11 11 10 8 6 4 5 7 10 16 16 17 19 19 20 19 20 21 22 24 25 28
3 12 23 19 18 18 18 15 11 10 11 12 8 14 14 14 12 12 13 12 9 7 7 8 7 7 7 10 13 16 16 17 19 20 20 21 21 22 19 18 23 26 27 28
4 8 17 12 19 16 17 16 12 9 10 11 8 12 12 16 15 13 12 11 11 12 12 9 8 10 12 15 16 20 23 23 20 22 24 25 25 27 22 22 24 23 23 25
7 15 22 22 16 12 14 13 12 13 12 15 16 16 17 18 16 15 15 13 12 8 6 9 12 12 11 12 13 17 22 26 29 31 32 29 27 26 29 30 29 26 22 22
21 25 19 12 11 12 15 17 16 19 20 21 21 19 18 17 16 14 10 8 7 7 7 9 12 13 16 19 21 24 26 26 29 31 32 33 33 34 36 35 36 29 25 23
11 11 19 19 16 19 19 20 22 22 22 20 17 14 13 13 11 7 5 4 8 9 11 14 16 17 18 19 21 22 22 25 27 29 32 33 35 35 35 36 36 28 30 27
21 21 19 17 22 21 19 20 22 19 17 13 11 9 7 5 5 3 6 9 14 17 16 15 15 16 18 22 26 30 32 33 31 33 35 36 35 33 29 30 32 28 28 30
26 21 20 23 24 20 20 19 20 15 11 9 11 10 9 8 6 7 11 13 16 16 13 14 16 22 25 28 30 30 30 30 30 32 32 35 34 33 34 35 28 25 29 29
8 15 18 25 25 25 20 15 12 11 11 12 10 8 7 8 11 12 15 16 14 12 14 17 21 26 28 26 26 27 29 32 36 37 38 37 35 34 33 24 23 25 25 25
21 24 23 23 20 18 14 14 14 13 12 9 6 7 9 10 12 14 14 14 15 15 19 24 27 26 25 26 29 31 32 30 29 32 36 33 31 30 29 24 25 22 20 22
25 24 23 21 16 13 17 15 14 12 9 5 6 6 8 10 12 13 13 11 12 17 23 26 26 27 29 30 30 27 23 24 30 28 30 27 30 32 30 26 24 13 14 16
22 20 18 17 17 17 15 12 9 7 5 3 5 8 10 11 12 13 14 13 18 23 25 24 25 28 28 28 27 26 25 25 23 27 28 31 29 23 17 13 8 9 14 15
18 18 17 17 16 17 13 10 6 3 2 4 7 9 11 12 13 12 13 16 21 25 24 23 24 25 25 25 25 24 24 24 25 26 26 23 20 19 17 15 15 15 12 11
17 17 16 14 13 12 9 6 3 2 4 6 10 12 13 13 13 15 16 20 22 23 22 22 23 25 26 25 24 24 23 23 25 24 23 21 20 19 18 18 18 18 16 14
18 17 16 12 10 8 6 4 1 3 6 8 11 13 14 14 14 15 18 20 20 21 21 22 23 24 25 26 25 23 23 22 23 23 23 21 20 20 20 20 20 18 17 16
15 13 13 12 11 9 6 6 6 6 6 8 11 12 13 14 16 17 21 20 20 19 20 21 22 22 23 24 25 23 23 22 23 23 22 22 22 21 21 20 19 18 18 16
14 15 16 15 11 8 5 3 5 7 8 10 12 13 11 13 16 19 22 21 20 18 19 21 20 21 21 22 23 23 23 23 22 23 22 22 22 22 21 20 19 19 19 18
14 10 11 11 7 4 3 5 7 8 11 13 13 13 10 13 17 22 21 21 20 17 18 19 19 21 20 19 21 22 22 21 21 22 21 22 23 22 21 21 20 20 20 20

GFSNGP_850_spd_042.txt.gz
Wind_Speed
5 4 2 3 5 3 5 4 5 9 8 8 3 3 5 14 5 4 19 26 30 33 38 39 38 38 34 30 32 32 30 31 27 22 20 18 17 12 12 8 7 14 14 20
2 3 2 2 4 4 5 3 5 5 2 6 10 14 15 10 15 16 12 9 5 7 31 31 34 35 31 33 30 28 28 26 25 24 21 19 17 9 6 5 4 13 24 20
4 3 3 5 7 7 5 3 5 5 5 2 7 9 8 14 16 15 14 13 9 6 3 8 17 20 25 31 31 28 26 23 20 18 16 10 6 6 6 6 16 23 16 23
3 3 2 7 4 5 9 5 7 8 5 8 15 20 20 17 19 17 14 10 9 8 7 11 16 21 25 26 25 27 25 22 18 15 11 10 6 6 19 19 15 19 23 23
4 3 4 5 5 6 6 1 1 7 5 12 20 23 19 15 13 11 7 7 5 3 3 7 16 20 23 27 28 26 23 19 16 15 3 11 21 20 11 16 20 17 19 24
3 4 7 7 3 9 7 2 6 12 6 7 7 3 0 11 8 9 10 10 9 9 4 6 14 20 26 27 25 22 18 14 4 12 24 15 8 13 16 16 18 19 23 26
2 3 7 7 6 6 6 6 12 16 13 9 5 5 18 13 13 12 12 13 15 15 16 16 19 19 19 17 12 7 2 8 20 16 6 9 13 16 17 19 22 24 25 23
3 3 6 9 5 7 7 14 20 17 18 22 22 22 19 16 16 15 16 17 16 17 18 16 12 6 3 5 9 12 17 13 9 7 11 16 17 16 18 20 22 25 26 26
8 5 4 3 10 24 27 25 18 19 18 14 18 19 17 17 16 16 14 15 14 13 14 13 7 3 1 2 4 4 4 5 10 14 16 16 18 20 21 22 23 25 25 26
5 5 6 19 23 25 22 22 19 16 14 10 17 18 18 17 18 18 17 15 12 10 8 8 9 9 9 8 8 8 11 13 14 17 18 19 20 22 24 24 26 26 25 26
4 2 16 14 18 23 23 20 18 16 13 13 14 17 18 20 19 16 13 12 10 12 13 11 9 9 9 9 10 12 14 16 18 19 20 23 25 27 28 28 27 28 26 26
5 19 10 10 19 20 21 18 16 15 19 16 16 21 19 19 16 16 17 16 14 12 9 8 7 8 9 10 13 16 19 21 23 25 27 29 31 33 29 28 29 30 30 30
11 25 18 26 21 16 17 16 17 16 16 19 19 19 19 22 19 17 15 11 9 8 6 6 7 9 11 14 16 18 20 23 24 25 26 28 30 33 36 37 34 35 34 37
27 32 23 25 15 18 19 19 18 21 22 23 25 23 22 20 16 12 11 9 7 5 5 7 9 11 14 16 19 20 22 25 28 31 33 34 35 35 36 39 40 38 33 29
26 7 22 24 24 22 21 24 28 30 28 25 21 19 17 15 13 10 6 4 4 5 7 9 10 12 16 20 24 28 30 32 32 32 32 32 33 34 34 32 32 31 31 31
18 19 25 26 26 26 26 28 30 26 22 21 19 16 13 9 8 6 3 3 5 8 9 10 15 18 21 25 29 31 30 29 30 32 35 36 35 34 34 33 34 34 32 31
31 23 26 28 28 28 28 25 25 23 20 16 16 15 12 10 6 4 4 6 8 9 11 15 18 21 25 27 27 28 30 31 30 28 28 29 35 34 32 30 30 32 34 24
9 21 23 29 31 32 27 24 22 18 17 18 16 13 9 6 4 4 6 7 8 9 12 16 20 23 23 25 26 26 26 26 27 27 27 28 27 26 28 29 30 27 26 21
16 24 27 27 28 27 25 21 19 18 18 15 12 9 5 3 4 5 7 9 11 13 17 21 22 22 23 23 23 24 24 25 26 26 27 27 27 28 27 25 20 22 24 18
25 27 28 28 23 20 21 20 20 18 16 12 8 5 3 2 4 7 9 11 13 15 18 21 21 22 22 22 22 22 22 23 24 25 25 25 24 23 23 23 24 22 18 15
29 27 26 24 22 19 19 19 17 16 13 9 5 3 1 4 6 7 9 11 14 16 18 19 20 21 22 23 23 22 22 22 23 24 24 24 23 22 23 24 24 23 22 19
27 25 21 19 18 21 18 16 13 11 9 5 2 1 3 5 8 10 12 12 15 17 18 19 20 21 23 23 23 22 22 22 22 22 22 22 22 23 23 24 24 23 22 20
20 18 16 18 20 19 17 13 10 7 5 2 1 4 6 8 9 10 11 14 16 17 17 19 20 22 23 22 22 22 21 21 21 21 21 22 22 22 22 23 22 22 21 20
20 18 19 18 17 16 15 12 8 5 2 2 5 7 9 9 10 12 13 15 18 19 19 20 21 22 22 21 22 21 21 20 21 21 21 21 21 21 21 22 22 21 21 20
20 21 18 17 17 15 11 10 7 4 4 5 6 9 11 10 11 12 13 17 20 20 20 20 21 20 20 21 21 21 21 20 21 21 21 21 22 22 22 21 21 21 22 21
22 21 20 17 14 12 10 10 9 7 7 7 8 10 11 12 13 13 16 19 20 21 20 19 20 20 19 20 20 20 20 19 20 21 20 21 22 22 22 22 22 21 22 22
19 19 19 17 13 10 8 7 7 7 8 9 9 11 12 12 13 16 18 20 21 19 18 19 19 19 19 19 19 19 19 19 19 19 19 21 21 22 22 22 22 23 22 23

GFSNGP_850_spd_045.txt.gz
Wind_Speed
4 4 3 4 4 7 6 6 6 8 7 6 5 5 7 11 4 6 11 18 23 26 28 30 32 32 30 30 30 30 30 29 29 28 24 22 21 14 11 10 9 9 6 12
2 3 4 4 5 6 6 3 6 5 5 3 4 4 14 14 15 14 12 9 2 10 24 30 33 31 28 25 27 27 27 28 26 24 21 19 18 18 17 14 7 15 23 23
4 2 2 5 8 8 6 5 6 6 8 3 3 7 10 15 15 14 11 8 5 4 3 4 14 21 26 25 25 25 25 23 24 23 22 20 18 11 3 13 22 21 15 19
3 3 3 7 3 4 5 2 4 5 6 5 10 15 15 13 13 13 11 10 7 4 1 3 6 13 17 20 22 21 22 25 25 26 23 14 2 14 19 15 12 12 16 22
5 4 5 3 3 7 6 2 3 7 8 14 19 19 12 9 9 8 8 7 6 4 2 2 6 11 16 19 19 21 24 23 18 12 3 7 20 21 10 10 14 17 19 20
3 5 7 8 4 7 6 2 5 7 9 13 6 3 3 4 7 7 5 5 4 5 5 5 7 11 15 18 21 22 18 12 4 4 16 25 11 7 12 16 18 20 22 22
3 3 7 7 6 11 6 7 18 20 20 17 5 5 14 11 10 8 7 7 7 8 9 10 11 10 13 15 13 9 3 10 18 17 9 7 9 14 18 20 21 23 24 25
3 3 6 6 6 8 6 13 25 19 16 13 15 19 19 15 13 12 12 14 14 16 18 17 14 9 9 4 3 7 9 9 6 6 10 14 16 17 18 21 24 26 28 30
8 6 3 5 6 7 25 31 21 24 21 19 24 22 20 17 17 18 18 17 16 15 15 12 8 5 2 2 2 3 4 6 9 11 14 16 19 20 21 23 27 30 31 33
4 1 1 3 13 28 25 28 25 23 24 23 24 23 22 22 21 19 17 16 14 11 10 10 9 8 7 4 2 4 7 9 11 13 15 17 19 22 26 29 31 32 35 36
3 2 4 4 16 25 24 24 25 23 22 21 22 25 25 24 21 18 16 14 12 12 13 11 7 5 3 4 5 8 10 13 17 20 23 27 28 30 32 35 32 33 35 34
5 20 8 15 22 22 25 24 22 23 22 20 22 26 24 23 20 18 18 16 14 12 10 8 4 2 3 7 10 13 16 19 23 26 29 31 34 40 38 39 40 39 37 34
8 28 13 26 25 23 24 22 20 20 20 25 24 25 25 26 22 20 18 14 11 9 6 3 1 4 7 10 14 18 21 24 26 29 31 33 34 36 41 45 41 40 35 33
20 34 20 30 19 24 22 22 21 22 23 24 27 26 26 25 22 17 14 11 8 5 3 1 5 8 11 14 18 20 23 26 28 30 32 33 34 35 36 37 40 43 38 33
26 15 27 28 28 25 24 26 27 28 28 29 26 25 23 22 18 15 11 7 4 1 2 4 7 11 15 18 22 25 26 28 30 31 31 31 32 33 34 35 36 37 37 32
18 18 27 32 31 29 29 30 31 32 29 28 26 24 21 17 14 12 8 4 1 1 4 8 12 15 19 22 24 25 26 28 29 29 29 29 29 31 29 30 34 33 34 34
32 24 30 31 31 32 31 31 29 30 28 26 24 21 17 15 12 8 5 1 2 5 8 12 15 18 20 22 24 26 26 26 26 26 26 26 27 27 26 26 29 32 27 25
13 18 23 30 35 35 32 28 27 26 25 23 21 18 15 11 8 6 2 1 5 8 11 13 16 18 20 22 23 23 24 24 24 25 25 26 26 25 25 26 28 29 30 28
11 21 24 28 30 32 31 29 25 22 22 21 19 16 12 8 5 3 1 4 6 9 13 15 18 19 20 21 21 22 23 23 24 24 24 24 24 24 25 26 28 28 28 28
23 24 27 28 27 27 30 24 21 22 21 18 15 12 9 5 2 2 3 6 9 12 15 16 17 18 19 20 21 22 22 23 23 23 24 24 24 25 25 26 26 27 26 25
25 26 27 28 29 26 23 21 20 21 19 15 11 8 5 3 2 4 6 9 11 13 16 17 17 18 19 20 21 21 21 21 22 23 24 24 24 24 25 25 26 26 26 25
26 28 29 28 26 23 21 19 19 18 16 14 10 7 4 3 4 6 8 10 12 14 15 17 17 19 20 21 21 21 21 21 22 22 23 23 24 25 25 25 26 26 25 25
28 28 26 23 23 21 20 19 17 14 12 10 7 5 3 4 6 8 10 11 13 15 16 17 18 19 20 21 21 21 21 21 22 22 22 22 23 24 25 25 25 25 25 25
26 21 19 17 19 21 21 19 16 13 10 8 6 5 4 6 8 10 11 11 13 15 17 18 18 19 20 21 21 21 21 21 22 22 22 22 23 23 24 25 25 25 25 25
18 19 18 20 21 20 17 17 15 12 9 7 5 6 8 10 11 11 11 13 15 17 18 18 18 19 20 20 21 21 20 20 21 22 23 23 24 24 24 25 25 25 25 25
18 20 21 20 17 17 15 14 11 9 8 8 9 10 10 10 11 11 12 14 16 18 19 18 18 19 20 20 20 20 20 20 20 21 22 22 23 24 25 24 24 24 25 25
21 20 19 17 15 13 13 12 9 8 8 10 11 10 10 10 11 12 14 16 17 19 18 18 18 19 20 20 20 19 19 19 19 20 21 22 23 24 24 24 24 24 24 25

GFSNGP_850_spd_048.txt.gz
Wind_Speed
3 3 5 5 5 8 6 6 6 7 7 9 5 5 9 11 6 6 9 10 14 15 14 17 18 19 20 21 21 22 24 23 21 21 21 20 19 18 19 20 17 12 16 15
3 3 1 4 4 7 4 3 5 4 6 6 2 2 6 5 9 14 13 10 4 1 5 8 12 15 18 18 17 17 17 16 18 20 19 20 19 19 18 15 14 15 21 26
4 3 3 5 8 7 6 5 7 7 10 6 2 6 6 10 13 14 13 11 10 10 7 5 4 5 8 10 12 14 15 16 17 18 19 16 14 14 11 7 11 23 23 17
3 3 2 6 2 3 8 6 5 4 4 6 11 13 12 10 12 15 14 13 12 10 9 6 3 2 4 7 10 12 14 14 16 17 17 16 9 3 14 20 26 15 11 13
5 4 5 3 5 7 7 9 6 5 6 14 21 15 10 9 11 12 11 11 9 7 5 3 2 1 3 6 8 9 12 16 17 15 10 4 7 17 24 15 10 13 16 19
3 5 8 8 5 8 5 5 8 11 9 14 14 4 3 8 9 10 8 7 6 6 6 5 5 4 4 8 9 14 16 14 10 4 5 15 18 7 9 13 16 19 21 23
3 3 7 7 4 11 5 8 18 26 26 21 5 4 17 13 11 9 8 8 9 10 10 11 12 9 12 13 12 10 6 3 9 11 10 7 9 12 15 17 20 22 25 26
3 3 7 11 6 9 7 3 28 31 30 20 11 16 19 15 13 12 13 14 15 17 18 18 15 11 14 10 6 0 4 5 4 4 7 9 12 14 17 20 23 25 28 32
9 7 4 16 6 16 6 10 27 29 24 23 22 22 20 19 17 17 17 18 17 17 19 16 12 8 7 7 5 3 2 2 4 7 10 13 16 19 22 24 28 32 35 38
4 5 5 11 16 14 15 20 28 27 26 25 24 24 23 22 22 21 20 19 17 15 14 14 10 7 6 5 2 2 4 7 9 13 16 18 21 24 27 29 31 34 36 39
3 4 2 12 17 18 20 23 24 25 25 24 25 26 25 25 23 22 20 17 14 12 12 11 7 5 4 2 3 5 8 11 15 19 22 25 27 29 30 30 30 32 33 35
8 16 14 11 22 22 26 27 28 29 26 23 24 26 26 25 23 21 19 16 14 12 9 9 5 3 1 3 7 10 13 17 20 24 26 27 30 33 32 33 33 33 32 30
5 20 15 17 27 27 27 26 26 25 24 26 24 25 25 26 23 20 18 15 13 11 9 7 3 0 4 7 11 14 18 20 22 24 27 29 31 33 38 38 35 34 35 35
13 27 13 27 20 27 26 26 24 23 23 23 27 26 26 26 24 20 18 15 12 10 7 4 2 4 7 11 14 17 19 21 22 24 26 27 28 30 32 34 38 42 37 36
22 13 20 28 28 29 26 26 26 26 26 27 26 27 25 25 23 20 17 14 11 7 4 2 3 7 10 13 17 19 20 22 23 23 24 25 26 27 28 29 29 33 36 35
16 11 22 30 33 31 30 28 30 30 29 29 29 27 25 22 21 18 15 12 7 5 2 3 7 10 13 16 17 19 20 21 22 23 23 24 25 26 27 27 28 30 32 33
27 21 28 31 34 32 29 28 28 31 32 31 29 27 25 22 19 16 13 10 6 2 3 6 10 13 15 16 18 19 20 20 21 21 22 24 24 25 26 26 28 29 30 30
17 19 24 30 35 33 31 30 31 31 30 30 29 25 21 19 16 14 11 7 3 3 6 9 11 14 15 16 18 19 20 20 21 22 22 22 23 24 24 25 27 29 30 30
12 20 22 26 29 32 33 32 30 28 29 27 25 22 18 15 12 10 7 3 3 6 8 11 13 14 16 17 18 19 19 19 20 20 21 22 22 22 24 25 27 27 29 29
20 20 23 27 27 28 31 29 30 30 26 24 23 20 15 13 11 8 5 3 5 7 10 12 14 15 16 17 18 19 19 20 20 21 21 22 22 23 24 25 26 27 28 28
22 23 24 25 28 27 28 30 26 24 26 21 15 15 14 12 9 6 4 5 7 10 12 14 15 16 16 18 18 18 19 19 20 21 22 23 23 23 24 25 26 27 27 28
22 24 26 28 30 31 27 22 23 23 18 17 17 14 11 9 7 5 5 7 8 11 13 15 16 17 16 18 18 19 19 19 20 21 21 23 24 25 25 26 27 27 27 28
22 24 26 28 28 25 24 21 17 15 17 17 14 12 9 7 6 6 7 8 10 13 15 16 17 17 17 16 17 18 19 19 19 21 21 22 23 25 25 26 27 27 27 28
22 25 26 24 24 23 22 19 17 16 14 14 12 9 7 6 6 7 9 11 12 14 16 18 17 17 16 16 18 19 19 19 19 21 22 22 23 23 24 25 26 26 27 27
23 21 20 20 20 19 18 19 17 15 13 11 9 7 6 6 8 9 11 12 14 15 17 18 18 16 17 17 18 18 19 19 19 21 21 22 23 23 24 25 26 27 27 27
18 19 20 17 16 15 14 14 13 11 8 6 5 6 8 9 10 11 13 14 15 16 17 18 17 17 17 18 18 18 19 19 19 20 20 21 22 23 24 25 25 25 26 26
16 15 13 12 10 10 10 9 7 6 6 6 8 9 10 11 13 14 15 15 16 17 18 18 17 17 18 18 19 19 19 19 19 19 20 21 21 23 23 24 24 24 24 24

GFSNGP_850_spd_051.txt.gz
Wind_Speed
5 5 6 6 6 11 10 7 8 8 9 9 6 6 5 9 7 1 4 5 6 6 7 7 7 8 9 11 14 15 14 14 11 10 9 9 10 12 13 16 19 19 17 15
4 4 7 6 5 8 10 4 9 7 6 9 4 3 1 2 6 10 12 12 11 9 8 7 5 3 3 4 4 5 6 7 6 6 8 10 11 13 15 18 19 15 12 15
5 2 3 3 8 10 6 5 7 8 11 6 6 7 7 8 12 14 15 17 18 17 14 12 9 6 4 3 3 3 3 4 6 7 9 10 11 12 12 7 7 10 16 20
3 1 5 2 2 3 8 5 9 5 4 6 5 8 10 11 14 16 16 17 17 15 13 11 9 8 7 6 6 6 8 9 10 11 12 12 10 8 3 6 13 19 13 10
4 4 4 1 4 7 7 15 9 13 7 8 16 12 5 12 14 16 16 16 15 13 12 12 11 11 9 11 11 11 12 14 15 14 11 10 6 7 13 13 8 10 13 16
3 5 8 6 4 7 4 12 9 12 11 19 17 8 6 15 15 16 15 14 14 15 15 13 14 13 12 16 16 16 14 12 10 6 5 9 11 8 7 9 13 15 17 19
3 4 6 6 5 12 5 10 9 19 19 27 10 3 23 21 18 16 16 16 16 16 16 16 16 15 18 18 17 14 9 5 3 6 6 5 5 8 11 14 17 20 23 24
3 2 7 11 8 9 8 6 11 19 24 24 16 21 27 23 21 19 19 19 18 20 21 20 18 14 16 13 10 6 2 1 0 1 2 5 8 11 14 18 21 25 28 31
9 7 3 26 9 23 10 8 9 23 30 32 26 28 28 27 24 22 21 22 22 22 23 20 16 12 11 11 7 4 3 2 0 3 6 9 13 16 18 21 23 26 28 31
3 5 7 16 24 14 18 15 11 24 36 33 29 31 29 28 27 26 24 24 23 21 20 19 14 11 8 8 6 4 2 1 4 7 10 13 16 18 19 21 23 25 26 28
4 5 3 16 25 25 21 15 14 24 33 31 29 31 31 31 29 28 26 25 22 20 19 18 14 11 10 7 4 1 2 5 8 12 14 17 18 19 20 20 22 23 22 23
7 13 11 15 28 26 21 21 22 30 30 28 29 32 32 30 29 29 27 24 21 19 17 16 13 10 8 4 1 3 6 9 12 15 17 18 19 20 21 22 22 22 21 22
5 11 20 13 12 25 24 24 27 29 31 33 29 30 31 32 30 28 25 23 20 18 16 14 10 7 3 1 4 7 10 12 14 16 17 18 20 22 24 23 22 22 23 24
16 9 7 13 10 22 24 26 26 25 26 27 30 30 31 31 30 27 25 22 19 16 14 11 7 3 1 4 7 9 11 13 14 15 16 18 20 21 23 24 26 26 25 26
18 18 13 21 17 23 26 28 29 29 29 29 29 32 32 33 31 28 24 21 18 15 12 8 5 1 3 6 8 10 12 13 14 15 16 18 19 20 22 23 25 27 28 28
22 19 12 20 26 29 30 31 32 32 32 33 34 34 33 31 30 27 23 19 16 14 10 6 2 2 5 8 10 11 12 13 15 15 16 17 19 20 22 23 24 26 27 29
23 18 21 23 31 34 34 32 31 32 33 35 37 37 35 32 28 25 23 18 13 10 6 3 1 4 7 9 11 12 13 14 14 15 16 17 19 20 21 22 23 25 25 25
18 10 15 22 30 31 27 27 30 33 36 36 35 34 33 27 26 24 20 16 11 7 3 1 4 7 9 10 11 12 13 13 14 15 16 17 18 19 20 21 22 24 25 25
7 10 16 20 24 26 28 29 31 32 33 34 34 29 24 24 22 20 16 12 8 5 2 3 6 8 9 11 12 13 13 13 14 15 15 16 17 18 19 21 22 23 24 26
12 14 18 21 24 26 29 28 28 29 30 29 27 25 24 21 17 14 12 10 7 4 3 4 7 8 10 11 12 13 13 14 14 15 15 16 17 18 19 20 21 23 24 25
17 19 20 22 24 22 24 27 28 30 28 22 19 20 18 14 12 12 11 8 6 5 4 5 7 10 11 12 13 13 13 14 14 15 16 17 17 18 19 20 21 23 24 25
17 17 19 22 25 27 25 25 25 26 23 21 18 13 12 14 15 12 9 6 5 5 5 7 9 11 12 13 13 14 14 14 15 15 16 17 18 19 19 20 22 23 24 25
16 18 20 22 25 28 25 24 24 23 21 16 13 13 14 12 10 8 7 6 5 6 8 10 12 13 14 14 14 14 15 15 15 16 16 17 18 18 19 21 21 23 24 25
18 18 21 25 26 27 27 25 18 14 12 12 12 11 8 8 7 5 6 6 7 8 9 12 14 16 16 15 15 16 16 16 16 16 17 17 18 18 19 21 22 22 24 24
22 24 24 22 22 21 20 17 16 14 13 12 10 8 6 5 5 5 7 7 8 10 12 14 16 17 17 16 16 17 17 17 17 17 17 17 18 18 19 20 21 23 23 24
22 21 19 16 15 14 14 13 11 10 7 7 6 5 5 7 8 8 9 10 12 13 15 17 18 18 17 17 17 17 17 17 17 17 17 18 18 19 20 20 21 21 22 22
20 17 16 16 13 10 8 7 5 5 4 4 5 7 8 9 9 10 11 13 15 16 17 18 18 18 17 17 17 17 18 18 18 18 18 18 18 19 20 20 21 21 21 21

GFSNGP_850_spd_054.txt.gz
Wind_Speed
17 16 15 16 14 15 16 16 13 13 15 13 12 10 4 5 4 6 8 8 9 10 10 9 8 9 10 9 9 10 10 10 7 5 4 5 6 8 10 11 11 14 18 17
12 13 13 16 17 18 18 17 12 16 17 13 13 7 6 5 6 7 8 8 8 11 11 11 10 9 8 7 6 6 5 6 5 5 5 6 8 7 9 10 12 10 10 10
13 8 8 6 15 16 16 14 14 14 14 12 11 12 10 7 9 11 11 12 12 13 13 14 13 12 11 10 9 8 7 9 8 8 8 9 8 8 8 7 8 10 11 15
5 4 7 10 3 17 18 15 14 15 13 13 12 4 8 6 11 14 14 15 14 15 16 16 15 14 14 13 12 11 12 11 11 11 11 9 7 6 4 5 7 11 13 10
4 9 10 3 5 8 13 15 16 18 18 12 7 10 6 9 13 15 15 15 15 16 17 17 16 16 15 17 16 15 16 14 13 10 7 4 1 2 6 6 3 4 6 9
3 7 8 9 12 14 4 14 11 13 13 10 15 8 7 18 17 18 17 17 17 17 18 18 18 18 19 19 18 17 15 14 11 9 5 2 3 2 2 2 5 8 10 13
11 7 6 4 10 14 10 15 5 10 10 17 13 6 20 24 19 17 18 19 19 18 18 18 19 19 20 19 17 15 13 9 7 4 3 1 1 1 4 6 9 13 16 18
7 6 11 13 11 12 14 6 9 12 14 20 14 14 23 24 22 21 20 20 18 19 19 18 18 17 18 17 15 12 8 6 5 5 3 1 2 5 8 11 13 14 15 15
7 6 4 27 19 24 10 11 10 13 15 20 20 21 24 24 23 21 21 21 20 21 21 18 17 16 17 15 13 10 8 7 6 3 1 3 6 8 8 9 10 11 11 12
5 10 13 17 23 10 12 12 9 11 17 24 27 27 26 24 23 22 22 22 22 22 21 20 17 16 14 13 11 10 9 6 4 2 3 5 6 7 7 9 11 12 12 13
14 14 15 17 19 20 15 15 14 12 19 25 28 28 28 26 25 24 23 22 21 21 20 20 19 17 15 13 11 9 7 4 2 3 3 4 6 6 7 10 13 13 13 16
10 16 12 20 8 17 21 22 17 18 21 24 28 31 29 27 26 25 25 24 22 21 22 21 20 17 15 13 10 7 4 3 2 4 5 4 4 4 12 11 13 14 15 17
12 16 15 15 12 9 17 18 19 21 25 32 28 30 30 30 29 28 26 24 24 24 23 22 19 16 14 11 8 5 2 2 4 5 4 5 5 6 5 10 15 15 16 17
19 15 10 14 7 8 13 18 20 19 22 26 31 30 31 30 30 27 26 25 25 25 23 21 18 15 11 8 4 2 2 4 4 5 5 6 7 8 8 9 10 11 15 19
19 19 15 10 9 9 14 17 22 25 27 27 32 34 34 33 31 28 28 28 27 25 21 19 16 12 8 5 2 2 3 4 5 6 7 7 8 9 10 10 11 12 14 15
15 15 16 14 13 16 19 22 23 27 29 30 30 30 30 29 30 29 28 28 27 23 21 17 13 9 6 3 2 3 4 5 6 6 8 8 9 10 10 11 12 12 14 16
7 9 13 13 14 19 20 17 20 22 24 26 28 30 30 29 29 26 25 28 22 20 17 14 10 7 4 2 3 3 4 7 7 7 8 9 10 11 12 12 13 14 14 17
11 13 11 12 15 16 16 19 21 24 25 24 27 33 33 32 32 28 24 18 19 18 13 10 6 4 2 2 3 5 6 7 7 8 9 10 11 12 13 14 15 16 17 18
6 6 7 9 12 16 17 18 21 25 29 30 33 32 32 28 27 23 22 22 14 10 8 7 4 2 1 3 5 6 7 8 9 10 10 11 12 13 14 15 16 17 18 19
5 5 8 11 13 20 25 26 25 25 27 30 31 29 28 24 22 23 19 14 10 8 8 4 2 2 4 6 7 8 8 9 10 11 11 12 13 13 14 15 16 17 18 18
10 11 13 16 16 17 16 19 24 29 30 29 30 28 26 24 21 16 13 10 9 9 6 4 3 5 7 9 9 9 10 10 11 12 12 13 13 13 14 15 16 17 18 19
15 16 19 20 21 23 23 25 29 31 30 26 23 23 22 20 17 13 10 9 9 7 5 5 6 7 9 9 10 10 11 12 13 13 13 14 14 14 15 15 16 17 19 20
18 19 21 23 26 28 28 29 28 25 23 22 20 18 16 14 10 8 8 7 6 6 6 7 9 10 11 10 11 12 13 13 14 14 15 15 15 16 16 16 17 18 19 20
23 25 27 29 30 30 29 23 22 20 17 15 13 11 8 8 7 6 6 6 6 6 8 10 12 14 13 13 13 14 15 14 15 15 14 16 15 16 16 17 18 18 19 21
27 27 25 24 24 24 21 18 17 15 13 11 9 6 4 4 4 4 5 6 8 9 11 12 14 15 15 15 15 16 16 15 14 15 15 15 16 16 17 18 19 19 20 20
25 25 23 22 20 18 16 13 13 11 8 6 4 2 2 4 6 6 7 8 10 11 12 14 15 15 16 16 17 17 16 15 15 15 16 17 17 18 18 19 20 20 20 20
27 26 24 23 20 16 14 13 10 9 7 5 3 3 5 6 7 8 9 10 12 13 15 16 16 17 16 17 16 16 16 15 16 17 18 18 18 19 19 20 20 21 20 20

GFSNGP_850_spd_057.txt.gz
Wind_Speed
21 19 16 17 23 21 20 18 17 15 17 12 11 13 12 6 9 10 12 12 13 13 13 14 15 16 15 19 21 20 17 13 12 9 7 7 7 7 7 9 10 10 12 10
22 19 19 18 18 18 20 18 17 19 20 11 14 15 7 5 8 11 12 13 13 14 14 15 15 16 14 13 14 13 12 10 10 8 9 10 9 8 7 6 5 4 5 5
16 17 19 16 17 18 18 17 15 17 15 15 9 11 11 15 9 11 11 12 13 15 15 15 15 15 16 13 12 12 12 14 14 14 13 12 11 10 8 5 1 3 6 8
9 2 13 10 14 20 21 20 18 17 17 15 14 15 6 4 11 10 11 14 16 17 17 17 17 18 18 17 16 16 17 16 15 14 14 12 11 8 4 2 2 4 5 4
8 13 13 18 9 12 15 16 16 16 15 17 10 2 6 8 12 15 15 15 17 18 19 19 19 19 19 19 18 18 17 17 16 13 11 10 8 6 3 2 2 2 1 2
6 14 18 14 15 14 14 14 15 15 12 7 7 7 11 20 18 19 18 18 19 19 19 19 18 19 19 19 18 18 17 15 13 12 10 8 5 6 4 4 2 1 2 4
12 8 8 10 15 16 12 16 14 8 8 10 9 10 7 21 21 21 21 20 19 19 19 19 19 20 20 19 17 16 16 14 12 10 8 7 7 6 4 2 1 4 7 9
10 11 15 4 10 15 16 22 11 12 12 12 11 12 20 23 25 25 23 21 19 19 19 19 19 19 18 17 17 16 14 12 11 9 8 7 6 4 2 1 3 5 9 9
9 6 6 14 18 22 24 16 10 14 14 15 19 20 23 25 27 26 25 23 21 21 21 19 18 18 19 18 17 16 14 12 10 9 7 6 4 2 1 1 4 6 6 7
13 15 15 17 16 19 14 18 15 12 13 17 23 23 26 27 28 28 27 25 24 24 23 22 20 19 18 18 17 15 14 12 11 9 6 4 2 1 1 4 5 5 5 6
15 15 15 20 16 13 18 17 14 11 15 20 22 26 29 30 29 28 28 26 26 25 24 22 21 20 18 17 16 15 14 12 10 8 6 3 5 5 4 7 7 7 8 10
8 12 13 15 16 13 16 21 19 17 17 20 23 28 30 30 30 30 30 28 26 25 24 23 21 20 18 16 15 15 14 12 10 8 7 5 4 6 7 8 9 9 10 11
15 18 19 16 9 12 11 18 17 17 19 21 23 26 29 28 29 29 28 28 27 26 25 24 22 20 17 17 15 13 11 9 9 6 6 5 4 4 3 11 14 14 13 14
21 17 14 15 11 13 13 14 15 16 19 20 22 26 28 27 27 27 27 26 25 26 23 22 21 19 18 16 15 13 10 8 6 5 5 4 4 5 5 5 6 6 12 17
18 15 17 13 11 10 10 12 13 17 19 22 25 27 28 29 29 26 25 26 24 22 20 19 18 17 15 14 12 10 8 6 6 6 7 7 7 6 6 6 7 8 9 10
15 15 14 15 13 10 9 10 14 18 19 22 24 25 24 25 27 27 26 24 25 24 22 22 19 15 12 10 8 7 6 4 5 5 6 6 6 5 5 6 7 8 9 11
8 11 14 15 12 10 10 10 10 13 15 19 22 26 27 27 31 27 27 30 30 26 24 19 15 13 10 8 7 5 2 3 5 6 6 8 7 7 7 8 8 9 10 13
9 11 11 9 10 9 8 8 10 14 17 19 24 30 35 35 30 29 29 30 28 25 22 18 13 9 6 7 6 6 6 6 7 8 9 10 10 9 9 8 8 9 11 12
7 6 5 3 1 5 7 8 13 19 26 31 35 38 37 34 29 28 28 26 23 19 15 12 8 6 6 6 6 6 6 7 8 10 10 12 10 10 9 8 9 11 11 12
8 7 5 7 12 15 18 16 19 24 27 31 33 31 27 28 31 30 25 22 17 15 12 9 7 5 4 5 5 6 7 8 9 11 12 11 10 11 9 11 12 11 11 12
13 12 14 15 17 15 15 16 19 22 24 25 29 34 33 29 24 21 20 17 13 9 8 6 4 4 5 5 7 8 9 9 10 10 9 9 10 9 10 10 11 11 11 12
19 20 22 22 24 24 22 23 25 27 28 30 29 28 26 24 20 16 11 9 9 7 4 3 4 5 7 8 9 9 10 11 11 11 10 10 10 11 11 11 12 11 12 13
23 24 26 28 29 30 30 31 30 29 27 24 23 21 20 16 12 9 9 5 3 3 3 5 6 8 9 10 10 11 11 11 11 10 11 12 12 12 12 12 12 13 13 14
29 30 32 31 32 32 31 26 24 22 21 19 18 15 12 9 7 4 3 1 2 4 7 8 11 12 11 11 11 11 12 10 11 13 14 14 15 13 13 13 13 13 14 16
29 29 28 27 28 26 24 22 21 19 17 16 13 10 8 6 3 3 1 2 3 5 9 10 11 12 12 11 12 12 12 11 12 15 14 14 14 14 14 14 14 14 17 19
27 29 28 26 24 21 20 19 19 16 14 13 11 9 7 6 4 3 3 4 6 6 6 12 12 14 12 12 12 13 12 12 12 13 14 14 14 14 15 15 15 16 17 18
27 24 23 24 22 20 19 17 15 14 14 11 9 8 7 6 6 4 4 4 6 9 10 10 11 12 12 11 11 11 13 13 14 15 14 14 14 14 14 14 15 18 20 20

GFSNGP_850_spd_060.txt.gz
Wind_Speed
17 18 19 20 20 20 21 17 13 19 16 14 10 4 9 8 15 9 12 15 14 17 16 17 18 23 27 27 28 27 25 24 19 16 16 15 13 12 11 10 10 10 8 7
19 17 22 15 21 21 20 19 17 17 17 15 13 13 11 12 12 12 12 13 12 19 24 21 23 25 27 30 27 24 20 15 14 14 13 13 12 11 10 10 8 6 5 6
17 16 18 19 17 17 15 19 16 16 12 11 11 8 8 13 12 15 9 8 10 13 23 26 17 20 20 24 22 19 17 14 14 15 14 13 13 11 11 11 8 6 5 4
4 3 21 11 15 16 15 16 15 14 13 12 12 13 3 2 6 12 14 14 15 14 20 19 21 15 15 15 18 17 18 20 19 18 17 17 16 16 12 8 6 5 4 3
5 11 13 16 15 11 11 17 18 18 17 14 16 5 4 7 6 13 18 17 17 17 18 19 24 21 19 21 23 23 22 21 20 21 19 18 15 11 11 9 7 9 7 7
3 5 14 9 14 21 9 13 14 14 10 9 8 4 2 13 10 16 19 18 19 20 22 24 24 26 26 25 23 23 24 23 19 17 16 17 14 9 11 11 12 11 9 9
6 4 7 8 16 21 15 9 10 15 17 16 4 4 9 13 18 19 22 23 24 24 25 26 26 27 27 27 26 26 22 20 19 19 17 15 15 13 13 14 12 12 11 9
3 4 13 8 11 20 8 21 7 17 11 4 8 11 17 23 24 25 25 26 27 28 27 27 27 28 28 28 24 24 23 20 18 18 15 14 14 14 14 12 11 9 8 8
7 6 8 20 13 11 15 17 19 15 15 10 17 18 23 25 25 27 28 29 28 29 30 29 28 30 25 25 26 24 21 21 19 17 16 15 13 12 10 9 9 9 7 7
10 19 8 21 15 12 12 12 15 11 14 10 19 21 23 25 28 29 30 30 29 30 30 30 27 24 26 26 23 24 23 20 18 18 17 15 12 10 12 11 8 6 8 9
13 10 11 21 18 15 8 14 15 15 9 13 17 24 27 28 30 30 30 29 29 29 28 28 27 27 26 26 24 23 21 20 20 18 15 15 13 12 11 8 8 9 10 11
5 8 6 7 19 22 21 20 23 18 12 14 17 24 27 28 30 31 31 29 28 26 26 26 26 25 23 22 21 22 23 22 19 20 16 9 9 9 9 8 9 9 9 11
13 22 18 19 15 17 18 21 24 19 16 15 19 21 26 27 29 29 29 31 29 28 27 25 23 22 20 20 21 21 22 19 18 15 14 16 12 8 7 8 9 9 10 11
25 21 18 15 9 9 17 18 16 14 13 15 19 22 25 25 27 29 30 30 28 31 30 30 29 27 24 24 23 20 16 14 13 11 11 8 8 9 10 10 10 10 12 14
26 18 13 10 12 16 16 14 13 13 9 11 14 20 23 24 25 24 25 29 32 32 28 26 24 21 22 22 21 17 17 15 13 11 8 7 8 8 9 9 8 9 8 8
15 12 11 8 8 9 10 11 9 7 7 10 13 17 20 22 24 25 27 30 32 26 24 24 24 18 20 18 17 13 11 8 6 4 4 8 8 8 8 8 9 9 10 12
15 14 15 10 10 9 7 6 4 4 5 9 13 18 23 28 28 28 27 28 29 28 27 24 22 20 18 13 10 9 5 1 6 7 7 8 9 9 10 11 11 11 13 16
10 9 7 7 9 7 0 1 3 5 9 12 18 23 28 33 32 28 28 29 30 27 22 20 18 15 12 10 7 5 4 6 7 8 8 9 10 11 12 12 12 12 13 15
7 7 5 5 6 8 11 9 9 12 12 18 26 29 29 28 28 28 29 26 20 21 19 16 16 13 9 4 2 4 5 6 7 9 9 11 11 11 12 11 13 16 17 15
10 9 8 10 9 8 10 11 12 15 19 23 26 28 27 25 23 23 19 22 20 17 16 13 10 8 6 5 4 4 6 7 8 10 12 11 11 13 14 12 14 15 13 15
19 19 20 21 22 19 18 16 18 22 23 23 25 26 25 25 25 24 22 20 15 11 10 7 5 3 2 1 5 6 8 9 10 10 11 11 12 12 11 15 15 15 16 16
23 26 27 26 27 27 23 22 23 24 25 26 28 29 28 24 19 15 12 10 12 8 5 3 1 1 3 5 8 9 10 11 12 11 11 11 12 14 15 14 16 17 17 20
28 29 30 31 31 32 30 30 30 30 30 28 26 22 19 16 12 11 11 9 7 4 1 2 3 4 7 8 10 10 10 11 12 12 13 13 13 15 17 16 17 19 19 17
32 34 34 33 33 33 33 29 27 26 26 24 21 17 14 13 11 9 9 7 5 1 4 5 7 8 8 8 9 10 11 11 12 12 13 14 15 16 15 17 19 19 19 21
32 31 31 31 31 29 27 25 25 23 22 20 17 14 12 10 9 7 5 4 5 5 7 7 9 10 10 10 10 12 12 13 14 16 17 17 14 15 18 18 19 21 22 24
28 29 30 29 26 23 23 23 23 18 16 17 16 14 12 11 9 7 6 5 4 1 6 9 13 13 11 8 11 14 13 14 16 16 17 18 19 19 18 18 20 22 22 23
26 25 25 25 23 20 20 19 17 19 17 13 13 11 12 11 9 9 5 5 8 7 6 10 10 13 14 16 17 14 14 15 16 17 19 20 18 18 18 20 21 23 25 24

GFSNGP_850_spd_063.txt.gz
Wind_Speed
8 18 12 16 11 14 18 15 9 7 12 9 10 8 11 13 9 22 22 24 23 19 14 14 11 13 19 22 27 30 26 21 19 23 21 19 17 15 14 14 13 13 14 16
19 12 11 11 17 7 8 10 11 14 18 18 18 16 12 14 18 28 20 25 27 26 26 22 19 18 19 22 23 20 18 22 23 20 18 15 15 15 15 15 14 14 14 13
13 12 10 14 12 14 14 14 11 14 15 9 12 8 13 15 28 25 23 17 22 31 31 29 25 25 21 19 18 18 20 21 21 20 17 16 16 17 17 17 16 14 13 12
4 5 13 5 9 7 11 12 7 5 3 6 8 16 10 18 25 27 22 22 21 30 33 33 29 27 26 23 20 15 17 19 19 17 19 19 20 20 20 19 16 13 11 11
5 9 5 16 7 5 7 11 7 6 5 7 16 13 5 12 17 27 24 23 22 25 35 36 33 31 29 24 21 23 24 23 22 22 24 23 21 21 20 17 13 12 13 13
3 2 15 2 8 11 5 9 5 2 6 5 4 5 5 16 14 19 21 24 25 25 28 28 28 27 23 20 27 28 26 25 24 24 24 23 21 19 15 12 15 16 15 13
3 3 6 5 9 13 7 4 8 14 7 5 6 11 16 19 15 15 21 25 24 25 27 27 26 25 23 26 28 27 27 26 25 24 22 21 19 17 19 21 21 20 18 16
3 4 6 8 10 9 1 19 21 22 10 3 9 17 24 23 21 21 23 24 26 27 27 27 26 25 26 29 30 30 29 28 27 24 22 20 20 21 22 23 22 21 19 16
8 7 10 3 5 9 20 23 12 10 3 5 13 16 26 24 23 22 23 27 28 28 28 28 28 26 30 32 32 32 30 29 27 25 23 22 22 24 24 22 20 19 17 16
5 7 13 18 3 14 16 26 27 16 4 2 12 7 20 24 24 25 27 28 29 29 31 30 28 29 30 33 31 30 29 28 28 26 25 23 23 23 23 20 18 17 16 15
3 8 6 9 17 24 21 33 32 27 18 9 10 18 30 27 26 27 29 30 30 31 32 31 30 30 31 30 31 30 30 30 29 28 28 27 24 21 19 17 15 14 14 12
4 12 11 9 4 11 17 19 20 20 20 14 9 21 26 25 24 27 30 31 29 31 32 29 29 29 29 30 29 30 30 28 28 27 26 24 22 21 18 13 13 13 13 13
4 9 17 17 17 14 16 17 17 17 17 18 22 18 25 24 24 28 28 28 29 30 29 28 28 29 28 27 27 28 28 27 25 23 21 19 16 13 12 10 9 8 9 11
15 17 16 23 11 7 7 9 13 15 14 10 13 19 23 23 24 26 26 28 31 32 31 31 31 28 25 24 24 25 23 22 23 21 17 14 11 10 9 9 8 9 10 10
23 15 11 12 8 6 6 10 12 13 13 9 5 10 21 24 25 25 28 31 33 34 32 31 29 23 20 21 23 22 19 18 17 16 14 13 12 11 12 11 11 11 11 11
22 15 14 14 11 7 5 6 9 9 7 3 9 19 24 26 29 30 30 31 36 34 30 29 27 20 17 15 16 15 15 14 9 7 7 8 8 8 10 11 11 11 13 15
19 20 18 14 12 13 11 5 3 2 4 10 18 24 28 31 32 32 32 32 33 32 28 25 23 18 16 13 11 10 6 9 14 12 9 7 8 10 12 13 14 15 16 16
8 8 9 10 8 8 6 5 5 6 8 14 20 25 29 31 33 33 32 30 30 29 23 18 15 12 12 13 12 13 11 11 8 6 7 7 10 12 14 15 14 15 16 17
5 4 4 5 7 8 10 10 9 11 14 17 21 24 25 29 31 31 30 24 19 16 14 11 13 14 13 10 8 6 4 4 5 6 8 10 12 12 14 14 14 16 17 18
15 14 14 14 14 14 15 14 14 16 17 19 23 26 28 27 26 25 20 19 17 15 16 12 10 9 7 5 2 2 3 3 6 8 10 11 12 13 14 15 17 17 16 16
22 22 24 24 25 23 22 20 22 25 24 24 27 29 28 25 21 19 18 21 18 14 11 9 6 4 2 1 2 4 4 6 7 9 11 13 13 14 14 14 16 17 17 18
26 28 29 29 31 31 29 28 28 28 27 27 27 27 26 24 20 19 16 17 15 10 8 7 5 4 4 5 6 6 8 9 9 10 10 11 12 14 16 16 17 18 19 20
32 33 33 34 34 34 32 32 32 31 31 28 26 24 24 21 17 17 19 13 10 9 7 6 6 7 6 3 5 6 7 9 10 10 11 12 13 14 15 17 17 16 19 22
34 33 34 33 33 34 35 31 30 28 27 26 23 20 17 18 19 15 13 10 8 6 7 7 7 7 5 6 7 8 9 11 12 12 13 15 16 18 18 15 17 21 21 21
32 32 32 32 32 29 27 25 25 23 23 22 20 19 17 15 13 12 9 8 6 6 8 8 9 9 9 10 11 12 13 13 13 15 16 16 17 19 20 21 19 17 19 23
27 28 27 27 27 25 24 22 24 20 19 20 19 16 15 14 12 10 9 8 6 7 8 11 11 11 13 12 13 13 12 13 15 16 17 19 20 21 21 19 19 21 23 25
26 25 24 23 21 19 19 20 18 18 15 14 15 13 12 12 10 7 6 5 4 4 7 8 9 11 13 14 13 14 16 16 16 18 19 20 22 23 24 22 22 23 25 26

GFSNGP_850_spd_066.txt.gz
Wind_Speed
14 13 10 7 6 14 14 10 8 8 8 8 9 9 14 23 18 27 26 26 25 21 18 17 18 23 39 40 39 38 37 37 35 39 36 44 47 41 34 26 27 26 26 25
10 9 16 16 18 13 7 6 7 9 9 8 18 22 14 25 28 30 34 32 30 26 22 19 16 18 32 41 39 40 41 36 35 33 29 36 32 34 33 28 27 25 25 23
14 11 15 11 17 10 6 5 7 7 10 10 11 10 16 24 29 29 31 36 35 31 28 26 23 21 21 31 34 36 37 34 33 33 34 32 30 29 28 27 25 24 22 20
4 2 11 20 8 7 12 12 11 6 8 12 15 25 26 35 38 33 29 32 35 35 33 33 30 27 25 27 28 28 27 27 31 31 31 31 29 28 26 24 23 22 22 22
4 7 6 13 7 15 16 10 8 7 7 9 19 14 6 16 21 31 33 32 31 34 39 38 35 29 27 26 26 26 27 29 30 31 31 29 27 26 25 26 25 25 24 24
0 7 13 2 7 4 2 6 5 4 6 7 6 3 5 16 19 29 28 27 24 27 36 37 32 30 28 27 26 28 29 28 29 29 28 27 28 27 26 26 26 24 23 21
2 7 7 7 5 3 9 5 3 1 7 12 4 11 14 23 21 23 26 21 20 21 25 34 34 31 28 26 26 25 26 25 27 28 27 26 25 25 26 26 23 22 20 19
3 4 7 3 5 3 5 0 9 14 22 15 17 13 15 26 23 23 22 18 20 21 25 30 31 29 26 24 24 23 24 26 26 26 26 22 21 23 22 22 22 21 22 23
9 7 9 4 11 2 14 10 10 11 18 17 14 12 21 26 27 26 22 22 22 23 25 26 26 25 24 23 23 24 25 26 26 25 23 21 21 23 24 22 21 22 22 21
2 7 8 12 6 11 13 28 19 16 19 19 18 13 18 22 22 23 25 26 24 24 25 25 25 25 22 22 23 25 25 25 24 23 22 21 21 20 20 22 23 22 22 21
5 5 3 3 8 12 16 14 19 15 11 20 20 24 23 23 25 27 29 26 24 24 24 24 25 24 22 21 24 24 24 24 24 23 22 24 23 22 22 22 20 19 18 16
5 9 8 8 3 7 18 17 5 6 12 19 21 18 24 26 28 30 29 27 26 24 24 27 26 25 24 23 23 24 25 25 25 26 26 25 24 23 20 16 15 14 14 14
6 10 12 11 15 15 15 20 13 6 7 10 20 19 22 28 27 26 26 25 24 25 29 29 29 28 27 27 25 23 25 26 25 24 24 22 20 16 15 13 15 14 14 15
22 16 3 6 10 7 12 11 6 3 5 8 11 10 14 21 16 19 25 28 30 28 28 28 28 27 26 26 26 26 27 26 25 22 20 17 12 10 10 9 9 10 10 12
24 16 15 8 3 4 2 1 5 8 10 11 10 8 10 14 21 25 27 27 29 31 30 29 30 27 26 27 27 28 27 24 21 17 14 11 9 7 9 15 12 11 12 13
19 13 14 19 17 10 7 6 6 6 6 3 2 7 18 25 29 29 29 30 34 32 30 31 29 25 25 25 26 24 20 16 14 13 13 13 16 16 13 14 16 13 12 14
15 18 20 18 13 10 10 8 6 6 5 6 10 16 22 26 28 28 27 27 30 32 30 30 31 27 23 18 15 14 14 14 13 15 16 14 12 14 13 10 10 12 14 15
5 6 7 7 5 3 4 6 7 7 9 12 16 20 24 26 29 30 31 31 32 30 24 18 13 10 9 8 8 9 11 11 9 9 8 8 8 8 9 10 12 13 14 15
5 4 5 3 1 2 7 8 9 11 14 16 19 22 24 28 31 33 30 24 21 21 19 14 13 11 12 11 8 7 7 6 5 4 4 5 6 7 8 9 11 12 14 16
14 14 12 13 13 14 16 16 16 19 20 20 24 27 30 30 27 25 21 24 21 20 15 12 10 10 9 6 5 3 2 2 1 3 4 6 8 8 9 11 13 13 13 15
23 22 23 24 26 25 25 23 24 27 26 26 29 31 30 26 23 21 22 27 21 16 14 11 9 9 7 6 5 4 4 4 4 5 6 7 8 9 10 11 13 15 16 16
26 28 28 30 31 32 30 31 32 32 32 31 30 29 27 26 24 25 24 24 18 14 13 12 10 8 7 6 6 6 6 6 7 8 8 8 10 11 11 13 15 16 17 17
30 31 31 33 34 35 34 34 33 32 31 29 27 26 26 25 23 23 24 18 15 12 11 11 9 7 7 7 7 6 7 7 8 9 10 11 12 13 14 15 15 14 17 20
31 30 29 29 29 31 33 30 29 28 28 26 25 23 21 21 22 19 17 13 11 11 11 11 9 7 7 7 8 9 10 11 10 11 11 12 13 14 16 18 20 21 20 18
26 26 27 27 29 28 26 25 25 24 24 24 22 20 17 16 15 14 11 10 9 8 8 8 8 9 11 11 11 10 10 10 12 13 14 15 16 17 18 19 20 20 20 21
23 24 23 22 23 20 20 19 21 19 18 19 18 17 16 14 13 10 9 8 8 8 9 10 10 11 12 12 12 12 14 15 15 15 16 16 17 18 20 21 21 20 21 23
22 21 20 20 18 17 16 16 16 17 15 13 14 12 9 8 7 6 5 5 6 8 9 10 10 11 12 13 14 14 14 14 16 17 16 18 18 19 18 18 19 20 21 22

GFSNGP_850_spd_069.txt.gz
Wind_Speed
12 14 15 14 10 14 18 12 11 10 10 10 10 10 15 26 22 19 18 21 26 30 28 28 30 32 36 39 41 42 44 46 50 51 51 42 42 43 41 38 40 39 37 33
5 8 14 17 18 12 8 7 12 10 6 7 16 22 13 22 27 21 18 25 27 31 29 24 22 24 28 34 37 39 42 43 44 46 42 40 40 40 46 50 48 42 39 30
5 13 12 8 17 14 14 6 6 10 8 8 7 9 15 28 33 32 30 26 33 34 35 29 27 22 21 26 31 37 41 42 42 43 44 40 43 43 43 41 35 36 31 29
3 6 4 7 8 11 15 14 8 5 6 8 10 24 30 33 24 26 29 31 32 40 37 35 30 27 26 27 31 35 37 39 40 42 43 37 36 33 33 34 34 32 31 29
2 3 7 16 7 4 7 17 11 8 9 8 18 4 19 25 23 26 25 31 36 35 40 39 34 31 29 27 30 34 36 37 37 34 32 31 31 29 30 32 31 30 28 26
2 3 6 10 11 18 17 16 7 18 11 5 4 1 5 18 24 22 22 23 35 34 35 39 35 31 29 27 27 29 30 28 24 22 23 26 29 31 31 32 30 27 26 25
3 4 7 8 13 9 4 6 5 8 0 15 5 8 16 23 29 27 26 28 26 28 30 33 32 29 28 28 29 29 26 20 21 26 28 30 34 32 31 30 28 27 28 27
3 3 7 1 6 4 9 8 6 11 18 13 10 11 16 20 23 25 22 19 18 17 16 17 24 28 29 28 26 22 21 24 28 28 29 31 30 28 29 29 30 31 29 26
7 6 5 8 8 10 18 23 6 16 13 16 18 15 19 20 15 19 19 17 14 16 19 21 24 25 26 25 22 21 23 25 25 26 28 26 26 28 28 28 29 29 28 26
2 8 13 26 24 23 24 27 14 18 15 18 18 17 18 18 13 15 16 17 19 21 21 21 21 21 20 19 19 20 23 26 26 26 26 24 22 22 26 27 27 25 25 26
13 14 14 21 22 23 20 17 15 13 18 22 23 14 22 25 18 17 19 21 20 20 20 18 18 18 18 18 16 18 21 25 25 26 25 24 23 22 21 22 22 21 24 24
4 9 9 21 22 11 12 14 17 13 12 14 23 18 23 24 31 24 21 25 22 19 18 17 17 17 16 15 14 16 22 25 26 25 25 23 24 25 23 21 21 19 16 16
7 26 33 24 20 11 14 17 12 9 7 9 10 12 12 29 33 31 21 20 21 20 19 18 18 18 18 16 16 17 19 23 25 26 26 27 27 26 26 19 15 14 14 15
17 23 7 17 13 14 9 4 1 2 5 8 10 8 12 17 19 18 16 20 20 19 18 19 19 19 19 18 20 22 23 24 27 28 27 25 23 20 14 10 11 10 10 12
14 15 10 10 4 6 5 5 6 6 5 4 4 5 6 10 12 13 14 16 17 19 19 19 20 20 20 22 26 27 27 26 26 25 22 18 15 13 13 13 14 15 14 12
15 13 11 11 12 11 11 9 7 8 6 5 2 2 7 11 14 16 15 16 19 20 19 20 19 17 18 19 23 24 23 21 18 13 12 11 10 10 10 10 10 11 12 13
12 10 14 13 12 12 12 9 7 6 5 6 8 10 13 16 19 19 20 20 22 23 22 21 22 19 19 16 14 14 11 11 8 7 6 6 7 7 7 8 9 8 8 9
4 5 6 6 6 5 7 7 6 6 7 9 11 14 18 19 25 26 28 29 31 31 26 22 17 14 12 10 9 9 8 7 7 6 6 5 4 4 4 5 7 8 9 10
7 6 6 6 7 7 9 10 10 11 12 14 16 21 24 29 34 35 30 29 28 27 24 17 14 13 13 11 9 9 9 8 7 5 3 1 1 2 3 4 6 7 9 11
13 14 13 14 13 14 16 15 15 18 19 20 26 32 34 31 28 27 25 30 27 25 17 16 15 15 14 12 9 9 8 7 5 4 3 3 4 4 5 6 7 8 10 11
21 21 22 23 24 23 23 23 25 29 30 30 32 33 31 28 27 26 27 30 22 17 16 15 15 14 13 11 9 9 7 7 6 6 5 6 6 6 7 9 10 11 12 13
25 28 29 30 31 32 31 31 32 32 31 30 30 29 29 30 28 29 27 26 19 15 15 15 14 12 11 10 10 9 8 8 8 7 7 7 8 9 10 11 12 13 14 15
28 29 30 32 32 32 32 31 31 30 30 28 27 25 27 26 24 24 26 19 16 14 13 13 12 11 11 10 10 9 9 9 8 9 9 9 10 11 12 13 15 16 17 17
28 28 28 28 28 30 33 30 29 28 26 24 23 22 21 22 23 21 19 15 13 12 12 12 11 10 10 10 10 10 9 9 9 9 10 11 12 12 13 14 15 16 16 16
23 24 24 25 27 27 25 24 24 22 21 22 20 18 16 16 15 15 13 12 11 10 10 10 10 10 11 11 11 11 11 11 11 11 11 11 11 12 14 15 16 16 17 18
19 20 20 20 20 18 18 16 19 18 16 17 17 15 14 13 12 10 9 9 9 10 10 10 11 11 11 11 11 11 11 11 12 12 13 13 14 14 15 16 17 18 19 20
18 17 17 17 16 14 13 14 14 15 13 11 11 11 9 8 7 7 7 7 8 9 10 10 11 12 12 11 11 11 11 11 12 13 13 13 14 15 16 17 19 20 21 21

GFSNGP_850_spd_072.txt.gz
Wind_Speed
2 7 10 11 13 13 11 12 12 3 11 9 11 12 16 25 21 17 21 18 18 22 23 23 26 29 28 29 29 31 37 43 46 44 43 46 47 47 46 40 33 42 43 39
3 4 9 17 12 11 11 6 11 9 14 7 13 17 14 23 25 25 22 22 19 25 27 28 27 27 27 25 25 27 30 33 37 42 45 46 48 48 49 48 43 38 41 42
4 2 3 9 4 3 8 8 7 11 8 7 7 8 13 26 25 27 29 29 28 27 27 28 32 29 28 26 27 26 26 29 31 32 36 42 45 46 46 44 39 41 39 40
1 2 3 7 5 6 5 12 11 11 6 8 10 20 22 22 23 24 27 31 34 33 31 29 35 34 29 30 29 27 28 30 29 31 34 36 36 37 39 42 41 42 38 37
2 2 6 4 6 4 5 18 8 9 14 9 18 7 13 19 15 9 14 22 29 32 35 32 34 36 34 31 30 30 30 32 31 30 31 32 33 34 37 36 38 34 32 29
3 3 6 4 3 9 1 13 7 10 14 13 8 7 4 18 19 15 19 22 24 25 30 33 35 35 35 33 30 29 31 31 31 30 31 30 32 34 35 32 31 27 29 29
3 2 8 7 5 5 4 7 14 19 16 18 8 9 11 13 18 18 20 26 25 24 25 29 30 29 34 31 27 27 27 28 26 22 20 21 19 20 24 28 29 29 28 26
4 3 8 6 1 3 5 9 15 25 21 23 24 25 22 16 15 16 16 15 18 17 19 20 21 23 25 25 24 21 17 17 18 18 18 22 24 24 27 29 29 27 25 24
8 7 4 2 1 6 7 6 10 16 21 26 25 22 21 28 23 18 15 13 4 6 11 12 16 18 17 17 16 15 15 14 16 19 22 23 23 25 27 26 25 25 26 25
2 2 9 22 18 16 24 30 27 21 35 31 28 22 19 20 25 31 21 9 8 7 11 9 12 10 9 11 12 13 13 16 19 18 20 21 22 22 23 23 24 24 25 24
10 7 14 18 18 24 24 30 30 31 34 26 22 26 17 18 26 25 27 13 8 7 6 5 7 9 8 10 11 12 13 15 15 18 19 19 19 18 15 15 16 18 20 19
5 4 6 10 23 26 25 25 18 23 28 14 14 17 16 13 24 21 21 14 10 10 8 7 6 7 9 10 11 9 13 13 14 14 16 18 17 16 15 13 13 15 15 16
6 19 22 15 14 19 18 19 9 4 5 8 7 9 9 7 9 13 10 15 9 5 8 10 10 11 13 11 12 11 12 14 18 19 19 20 20 20 22 23 20 16 13 13
10 17 5 16 13 18 15 11 8 6 5 6 8 8 7 7 8 5 1 2 6 4 9 11 14 14 13 14 15 16 19 22 26 26 26 27 23 21 19 16 15 12 10 10
12 11 10 11 15 14 11 12 8 11 12 10 10 10 7 6 4 5 6 6 10 15 14 13 12 9 11 14 17 20 22 24 22 19 18 18 16 12 8 5 4 5 7 8
17 13 10 9 14 16 16 15 15 14 13 12 10 10 10 10 11 11 11 11 11 16 14 12 14 13 11 11 14 15 16 17 18 17 15 11 8 5 4 4 5 4 5 6
13 10 13 11 11 12 14 14 13 12 9 8 11 12 12 14 17 19 21 21 22 24 23 23 24 21 18 16 17 20 19 17 15 13 11 9 8 7 6 6 5 5 5 5
7 8 8 8 8 8 9 8 7 6 8 10 11 12 18 22 30 32 33 32 32 33 30 26 23 21 20 18 17 17 15 14 13 11 10 9 7 6 4 3 2 2 3 4
7 5 4 3 4 5 6 8 9 10 11 12 14 21 28 31 30 30 29 31 31 32 27 20 18 19 19 17 15 15 14 13 12 11 9 7 6 4 3 1 0 2 4 5
10 10 10 10 11 12 15 15 15 20 22 26 30 32 34 34 28 26 26 33 30 27 20 19 18 19 18 16 14 13 12 11 10 9 7 6 5 4 3 3 3 4 6 7
17 18 20 21 22 21 21 20 24 28 27 27 29 31 31 31 29 26 28 33 25 20 19 18 18 18 17 15 13 13 11 10 8 8 7 6 5 5 4 5 6 7 8 9
21 24 26 27 28 29 27 28 29 29 28 28 29 29 29 31 30 28 26 25 19 16 16 17 17 16 15 13 12 11 10 8 8 7 6 5 5 6 6 7 8 9 10 11
24 25 27 28 28 28 28 28 27 27 27 26 26 25 27 28 25 23 24 18 15 14 14 15 14 13 13 11 10 9 9 8 8 8 8 8 8 8 9 10 11 12 12 13
23 24 25 24 25 26 28 26 25 24 24 23 23 22 21 21 22 19 18 15 13 12 13 14 13 13 12 12 11 11 11 11 10 10 10 10 10 10 11 11 11 11 12 13
18 19 20 21 23 23 21 19 19 18 18 18 17 17 16 16 15 15 12 12 12 11 12 12 12 13 12 12 11 11 11 11 11 10 10 10 10 10 11 12 14 15 16 17
15 16 17 17 18 16 16 14 16 16 15 16 16 14 13 13 12 10 10 10 10 11 12 13 13 13 13 11 11 11 10 10 10 10 11 12 13 13 14 15 16 16 17 17
14 14 14 15 15 13 12 12 11 13 11 10 11 12 9 8 8 9 9 10 11 12 12 12 12 11 11 11 11 11 11 12 12 13 13 13 13 14 15 16 16 17 17 17

GFSNGP_850_spd_075.txt.gz
Wind_Speed
6 11 7 8 7 10 10 10 10 6 13 9 13 13 16 19 26 26 25 16 16 15 17 21 21 22 23 24 27 29 32 38 42 42 41 42 41 43 45 42 46 43 39 39
5 10 11 8 10 17 15 10 13 12 14 12 19 18 13 23 24 23 27 27 23 24 21 23 25 25 25 23 24 25 29 31 33 36 40 42 41 42 42 42 42 40 40 38
3 5 7 6 9 8 2 5 4 6 9 10 13 12 13 23 24 26 25 25 27 24 25 20 25 27 27 26 25 25 25 26 28 30 34 37 39 40 42 41 40 42 40 39
1 2 7 3 4 5 6 9 9 7 9 12 17 23 27 28 19 19 23 25 28 28 26 27 27 29 31 31 28 28 28 27 27 28 30 32 35 36 38 38 39 40 37 34
3 6 8 9 7 4 6 8 7 4 10 14 19 15 18 21 20 23 22 18 15 16 17 22 28 31 34 32 33 33 32 31 28 27 28 30 30 30 31 29 28 29 31 31
3 3 5 3 2 3 1 6 5 5 7 10 18 8 7 25 24 21 20 22 20 17 16 17 21 26 31 33 38 35 34 32 30 29 28 27 25 21 20 22 25 26 27 29
4 4 6 9 8 3 2 5 8 4 9 4 3 6 13 23 19 16 15 16 18 18 16 15 15 18 22 29 35 34 33 30 27 25 23 20 17 18 21 23 24 26 26 27
5 4 8 0 2 1 7 9 12 22 19 12 18 19 14 15 23 29 27 15 12 15 13 12 12 14 18 25 28 27 23 20 18 16 15 15 16 18 18 19 19 22 24 26
8 6 2 3 6 14 17 20 22 26 35 29 27 27 28 19 22 23 27 22 15 11 7 3 4 8 15 18 19 16 15 14 12 14 13 13 14 17 21 21 19 23 25 26
0 3 7 9 10 12 21 21 25 27 28 30 26 29 30 22 18 16 17 23 15 10 6 3 6 8 9 12 13 13 14 16 16 15 13 14 14 13 15 18 21 24 28 29
5 7 14 11 13 22 25 23 24 28 20 19 18 21 17 15 11 10 11 13 12 9 7 4 3 5 8 10 11 10 12 13 12 9 11 11 12 13 13 14 17 21 25 25
5 2 4 10 19 16 21 20 20 22 17 9 8 12 12 7 6 8 6 12 8 9 8 1 6 8 10 11 10 12 14 12 10 9 13 12 14 16 16 12 13 13 14 16
2 9 12 9 12 14 19 17 16 15 15 15 12 9 9 7 6 4 3 3 5 5 5 4 5 11 13 14 14 13 10 10 11 13 14 17 20 20 20 17 16 14 12 11
6 8 4 5 8 15 15 15 13 10 14 13 10 9 6 8 8 8 7 6 4 5 10 10 5 4 7 9 13 13 13 13 18 18 19 20 19 18 16 16 19 18 14 9
12 11 12 13 12 13 12 14 13 12 10 12 12 10 9 9 10 12 11 10 9 9 9 9 12 11 10 10 7 10 11 16 16 16 17 17 18 18 17 15 14 12 9 4
16 13 7 8 9 12 12 10 10 10 10 10 10 11 13 14 14 14 13 12 12 17 15 14 14 13 9 8 12 16 19 19 22 24 24 22 19 15 13 11 10 9 7 4
14 12 15 14 13 12 10 8 8 7 7 8 10 11 13 16 21 23 24 24 25 27 25 24 24 20 20 20 23 26 26 23 23 22 19 16 15 13 12 10 9 7 6 4
8 8 9 9 8 6 6 6 6 6 8 10 12 15 20 24 31 32 31 30 31 32 30 26 23 23 23 22 22 22 21 20 18 18 16 14 13 12 11 9 9 8 6 5
8 6 4 4 5 5 7 9 11 12 14 16 21 28 30 31 31 31 29 29 30 30 28 22 21 22 22 20 18 18 18 17 17 16 14 13 11 11 9 8 7 5 3 1
8 9 8 8 9 10 13 14 16 20 23 26 30 31 31 30 29 29 30 34 30 25 21 21 22 22 21 18 16 17 16 15 14 14 12 11 10 9 7 6 4 3 2 2
13 13 16 18 20 19 19 19 23 26 25 26 29 31 30 28 28 28 30 31 24 20 19 19 20 19 17 15 14 14 13 12 11 11 10 10 8 6 5 5 4 3 4 4
16 19 20 22 24 26 24 25 26 27 27 28 28 28 27 28 27 27 26 24 18 15 15 17 18 15 14 12 12 12 12 11 10 10 9 9 7 7 6 6 5 5 5 5
20 21 22 23 25 26 25 25 26 26 26 25 24 23 23 23 21 21 22 18 16 14 14 15 14 13 12 13 13 13 13 13 12 11 11 10 9 8 7 7 7 7 7 7
20 20 21 22 22 24 26 24 23 23 23 22 21 20 18 18 20 20 18 14 13 12 13 15 14 14 14 15 15 15 15 14 13 11 10 9 8 9 8 8 8 8 8 9
16 17 18 18 20 21 19 17 17 16 16 17 17 16 16 16 15 15 12 12 12 12 13 14 14 14 14 14 14 13 13 12 11 10 9 8 8 8 8 8 8 9 9 10
14 15 15 15 15 14 12 11 13 14 13 13 15 14 13 13 12 10 11 11 11 12 12 12 13 12 13 13 12 11 11 10 9 8 8 7 7 8 9 9 10 10 11 11
12 12 12 12 12 11 9 9 9 11 9 9 10 11 9 9 9 9 10 10 11 11 11 11 11 10 10 10 10 9 9 9 8 8 8 8 9 10 10 10 11 11 11 12

GFSNGP_850_spd_078.txt.gz
Wind_Speed
6 4 4 5 7 7 9 8 8 11 13 12 12 14 18 21 23 24 21 17 14 14 17 20 24 25 28 30 33 36 39 40 44 41 39 39 39 41 42 41 39 39 41 42
9 11 10 12 12 12 13 15 15 15 16 13 17 20 19 21 22 23 25 22 18 18 17 19 22 25 27 29 31 32 36 39 38 38 40 41 40 39 39 42 41 37 39 39
10 5 9 11 16 17 13 8 7 8 9 3 10 12 17 23 21 19 20 23 18 17 18 20 23 25 29 30 28 30 31 32 33 34 36 37 37 37 37 37 35 37 39 41
2 3 8 3 4 9 10 8 8 10 7 8 12 21 23 23 22 22 20 22 20 16 14 18 22 24 23 25 29 31 31 31 32 32 32 30 30 33 33 33 35 34 33 32
4 10 13 14 8 7 7 6 4 5 5 9 14 15 4 17 16 18 18 19 18 14 18 17 17 21 23 26 29 31 34 33 32 32 31 30 30 29 27 28 29 27 32 32
5 6 6 5 9 4 3 5 6 6 10 14 17 7 7 17 18 20 17 17 19 21 21 21 18 16 21 26 29 33 34 34 28 28 28 28 26 25 30 27 26 24 25 26
12 7 4 4 7 4 8 5 13 13 17 18 10 10 22 23 22 21 21 22 20 18 17 18 18 18 18 21 27 26 26 29 29 27 29 29 28 26 25 23 21 24 25 26
9 7 9 3 3 3 10 12 14 16 17 19 20 21 19 19 24 22 20 18 21 17 16 15 14 14 12 13 16 25 31 33 30 28 29 26 24 24 22 23 23 23 22 23
6 6 4 3 7 6 8 10 12 18 23 22 22 22 19 16 16 18 18 16 13 18 17 12 9 8 7 14 15 18 19 22 24 23 22 20 19 21 21 21 20 21 21 20
3 6 6 4 3 8 10 12 13 14 18 19 18 18 15 12 10 12 13 14 13 12 15 12 7 5 5 7 11 13 17 18 19 21 23 22 20 19 17 18 20 21 20 20
10 11 11 9 8 14 16 13 15 15 15 17 16 15 15 11 9 10 12 13 11 9 10 12 8 3 1 4 7 12 15 16 18 18 18 18 18 16 14 14 13 14 16 18
8 7 4 8 13 11 16 17 16 16 16 15 15 13 12 9 10 12 12 9 5 4 3 4 4 2 2 4 6 10 14 17 18 18 17 18 17 15 15 9 7 7 9 14
6 11 11 15 13 8 13 15 14 12 12 13 14 12 11 11 10 8 7 10 7 5 3 4 5 3 3 2 6 12 15 16 15 14 15 15 14 17 20 18 18 15 16 14
10 13 7 6 11 13 14 14 12 9 10 10 10 9 8 9 7 7 7 8 7 6 5 5 4 6 5 7 4 3 6 8 8 10 12 15 17 21 23 26 29 27 23 21
12 11 11 11 8 13 13 14 11 10 11 10 8 7 8 8 8 9 8 8 8 8 9 8 8 9 7 4 10 13 14 17 17 18 17 20 23 24 25 26 26 25 21 17
15 12 8 9 9 10 11 10 9 8 7 5 5 8 9 9 10 11 11 10 10 17 17 16 15 14 10 9 9 12 17 19 22 25 26 26 26 25 24 24 22 20 17 14
13 10 13 11 11 8 7 6 5 5 4 3 6 7 11 15 18 21 22 22 24 26 26 25 24 21 20 21 22 25 25 25 26 26 24 22 21 21 18 18 17 16 14 11
7 7 7 7 6 3 4 5 4 3 5 6 10 13 19 22 26 27 28 28 28 29 29 26 23 22 22 23 23 22 22 21 21 20 18 16 17 18 16 15 14 12 11 8
6 5 5 5 5 5 6 7 9 10 11 14 18 23 26 26 26 27 25 26 28 29 27 22 20 20 20 20 20 19 19 18 18 17 16 15 15 15 13 11 11 10 8 5
6 7 7 8 9 9 11 11 15 19 21 22 24 25 27 27 26 26 25 30 28 25 20 19 19 20 18 17 16 16 15 15 15 14 13 12 12 12 10 10 10 9 8 6
9 10 11 13 16 17 18 18 20 22 22 22 23 24 25 25 25 24 25 27 22 18 17 15 16 15 14 12 11 11 11 11 11 11 10 10 10 9 8 8 7 7 6 6
11 13 15 17 19 21 20 21 22 23 24 24 25 24 23 23 22 22 22 20 15 13 13 13 14 13 12 10 11 11 11 11 11 10 10 9 9 9 8 8 7 6 5 5
13 15 17 18 20 21 22 22 22 22 22 21 20 18 18 17 15 14 17 16 14 12 13 14 14 12 11 12 13 13 13 12 12 11 10 10 9 8 7 6 5 5 5 5
14 15 17 18 19 19 21 20 19 19 19 18 17 15 13 13 15 15 15 13 13 12 13 14 14 13 12 14 13 13 12 11 10 9 9 8 7 7 6 5 6 6 6 7
13 14 15 15 15 16 15 14 14 13 12 13 13 13 13 13 13 12 11 12 12 11 12 12 12 12 12 12 12 11 10 9 9 8 7 6 6 5 5 5 5 6 6 7
9 10 10 10 11 10 9 8 10 10 9 10 11 11 11 12 11 11 11 11 10 10 10 10 10 10 11 10 9 8 7 7 6 5 5 5 5 5 5 6 6 7 8 8
9 9 8 8 8 7 7 7 7 8 8 8 8 9 9 10 10 10 9 9 8 8 8 8 8 8 7 7 6 6 6 5 5 6 6 6 7 7 7 7 8 8 9 10

GFSNGP_850_spd_081.txt.gz
Wind_Speed
11 8 5 5 5 8 12 12 10 12 10 10 9 10 12 15 17 17 17 17 17 10 13 17 23 27 30 31 32 33 33 36 40 41 39 36 39 42 42 43 43 45 45 45
11 11 11 12 11 12 13 12 14 14 16 16 19 13 14 19 20 21 20 18 17 18 17 18 20 25 27 29 33 33 38 42 38 37 40 40 41 41 42 44 46 44 46 47
11 9 8 10 14 15 14 14 15 15 7 1 4 7 11 17 20 22 21 19 16 16 17 16 19 21 25 28 28 32 35 36 36 39 41 42 40 39 42 44 42 45 45 44
7 3 10 9 4 6 9 14 6 8 5 5 6 10 15 10 15 18 19 20 21 18 17 12 13 18 23 25 28 31 32 33 34 38 42 40 39 42 42 42 43 43 44 43
7 10 13 18 6 6 9 11 5 4 5 9 12 13 0 11 11 14 16 16 18 19 17 16 14 14 16 22 26 30 33 35 34 36 38 38 40 42 41 39 40 43 40 40
6 11 11 13 5 6 4 8 9 4 6 8 12 7 4 17 18 17 20 18 19 21 18 14 13 12 13 17 23 29 33 34 31 32 38 38 38 37 36 35 36 34 34 36
12 8 6 7 7 3 10 2 7 7 10 12 10 12 20 22 21 18 17 18 19 20 19 17 17 16 15 14 19 24 25 27 28 31 34 35 33 32 32 32 35 34 33 35
8 5 14 9 6 7 8 4 9 10 12 14 16 18 18 20 20 18 18 17 17 17 19 20 21 16 13 10 13 20 21 24 24 24 25 28 28 38 42 40 37 32 32 32
11 8 6 8 9 3 7 8 11 13 15 16 16 18 18 18 16 14 14 14 15 16 16 19 20 18 13 14 16 15 16 22 26 30 30 29 32 32 32 31 31 33 29 29
3 8 7 9 2 10 10 10 12 13 14 15 16 16 16 15 14 15 14 15 13 11 14 16 16 14 14 11 11 8 13 17 21 25 28 27 27 26 27 28 28 27 28 25
9 12 9 11 12 9 11 11 12 13 13 14 15 16 17 14 13 14 14 15 15 13 14 16 13 12 12 13 12 8 9 12 15 18 20 21 22 19 18 18 15 20 19 19
2 12 9 10 16 12 13 15 15 16 16 16 16 16 15 13 13 12 13 14 14 13 11 12 13 11 8 9 13 9 3 5 7 11 14 15 16 17 12 11 7 4 6 9
6 12 10 10 7 12 11 13 14 13 13 15 14 14 12 11 12 11 10 12 13 14 12 10 10 10 9 6 6 8 7 2 5 9 10 12 12 12 16 18 18 15 15 17
11 14 6 11 9 9 11 11 10 10 10 11 12 10 10 9 9 10 10 10 11 10 9 10 11 10 11 10 5 11 12 10 6 7 6 14 18 21 22 27 30 30 26 25
13 11 7 9 11 11 11 11 9 10 10 10 10 9 9 7 8 8 7 6 8 10 12 12 12 15 13 10 8 9 12 15 16 16 15 17 21 26 28 30 32 31 27 22
12 10 7 10 10 11 11 10 9 9 8 8 8 8 8 8 8 9 10 10 13 18 19 18 20 19 15 15 15 17 18 17 20 24 26 27 28 27 27 27 25 24 21 19
12 11 12 10 10 9 8 8 7 6 6 6 7 8 8 11 14 18 19 22 24 25 25 25 25 20 21 22 23 26 25 26 26 26 26 24 23 22 20 20 21 21 19 15
8 8 8 8 8 6 5 5 5 5 6 5 6 10 14 18 21 21 20 22 26 27 27 24 21 19 20 21 21 22 22 23 22 22 22 21 21 20 19 18 17 16 15 11
9 8 8 7 5 4 4 5 7 8 9 11 13 18 19 19 19 17 16 19 24 25 24 20 18 18 18 17 17 17 18 18 18 19 18 17 18 18 16 15 14 13 11 9
9 9 9 8 8 7 9 9 10 12 13 16 19 21 23 22 20 19 19 24 23 20 16 16 15 16 15 14 14 15 15 16 15 15 15 15 15 15 14 13 12 11 9 9
10 10 11 13 14 13 13 13 14 14 14 15 18 19 19 18 18 16 16 18 16 14 13 12 12 14 13 13 13 13 13 13 13 13 12 13 13 12 12 11 11 10 9 9
11 12 12 13 15 16 16 15 17 18 19 20 20 18 17 17 16 16 16 16 13 11 11 12 13 13 11 11 13 13 14 14 13 13 13 13 12 11 10 10 9 9 8 7
12 13 14 15 16 17 17 17 17 17 17 16 16 15 15 14 12 10 12 13 12 11 12 13 13 11 11 13 14 14 14 13 13 12 11 11 10 9 8 8 7 6 5 5
12 13 14 13 14 15 17 16 15 14 13 12 11 11 10 10 11 11 11 11 11 11 12 12 12 11 11 12 12 12 12 12 11 10 9 9 8 7 6 5 5 5 5 6
11 11 11 11 11 12 11 10 10 11 10 11 10 10 10 9 8 8 9 9 8 9 9 9 9 8 10 10 10 10 9 8 8 7 7 6 6 5 5 6 6 6 6 7
7 7 7 8 8 7 7 7 7 6 6 8 8 8 8 8 8 8 7 7 7 7 8 8 8 9 9 9 9 8 7 7 7 6 6 5 6 6 6 6 6 7 7 7
7 8 7 7 6 6 5 5 5 5 5 5 6 6 6 7 7 7 7 6 7 7 7 8 8 8 8 7 7 6 6 6 5 6 7 7 7 7 7 7 7 7 8 9

GFSNGP_850_spd_084.txt.gz
Wind_Speed
11 4 11 3 6 16 17 19 11 8 14 8 11 12 10 9 11 12 13 14 15 20 16 10 18 24 28 30 32 34 34 39 39 40 40 39 38 39 39 46 46 47 48 49
13 12 9 12 15 17 15 19 12 9 13 15 21 20 5 7 10 13 18 23 24 20 14 20 20 22 26 30 31 33 35 38 38 37 40 42 44 42 42 43 48 49 48 49
10 11 12 8 9 11 9 8 7 10 10 7 1 5 10 12 18 17 17 19 19 18 19 23 24 20 20 26 30 31 36 36 37 39 40 42 42 44 46 46 45 49 49 50
7 8 4 6 11 3 6 12 13 12 7 7 4 3 14 20 18 17 18 20 20 19 22 21 23 22 17 12 25 30 34 36 37 38 41 40 41 44 46 48 49 48 48 48
4 6 12 18 6 3 6 7 7 9 11 5 5 4 16 18 17 17 14 15 16 18 19 16 13 15 16 17 14 23 31 35 36 35 37 38 40 45 44 42 43 47 47 47
5 7 5 5 16 6 9 5 6 11 1 8 7 5 9 20 18 19 18 15 13 12 14 16 18 16 14 16 16 17 15 27 34 34 35 38 40 39 38 39 41 39 39 42
9 7 5 9 5 7 6 4 9 12 15 15 9 11 20 18 17 17 11 17 17 17 12 18 19 18 13 12 10 13 19 22 17 36 34 35 35 37 36 37 39 39 41 42
8 5 11 3 5 6 9 12 8 12 12 14 13 13 14 16 18 22 23 22 19 16 14 19 20 20 19 18 18 20 20 18 15 21 26 28 30 34 35 38 40 40 40 41
8 7 5 10 18 12 11 13 13 14 13 12 12 13 15 16 18 18 19 19 19 16 14 16 18 19 17 17 20 23 20 19 17 12 18 26 26 29 33 36 35 32 35 40
5 4 12 10 17 15 16 16 15 13 12 12 12 13 15 14 15 15 17 17 17 15 16 17 16 14 14 14 15 18 22 18 14 14 12 15 15 19 22 29 33 33 35 32
9 10 13 17 10 10 16 14 12 12 13 14 14 15 16 14 14 15 15 16 15 15 16 16 16 16 14 14 13 15 19 24 16 11 7 6 7 11 13 16 20 27 27 21
4 10 10 9 13 13 12 11 11 12 12 12 13 13 13 12 12 14 14 15 16 15 14 14 14 15 14 13 13 10 11 11 13 12 8 7 8 10 12 9 6 1 14 15
5 11 9 11 14 12 10 11 11 9 9 9 11 11 11 9 11 10 12 14 15 15 14 13 13 13 13 11 10 6 5 8 8 8 7 8 9 16 24 28 26 24 21 30
14 13 9 15 9 13 14 14 11 11 13 12 12 11 9 8 9 10 11 12 12 12 12 12 11 12 12 11 9 8 7 9 11 13 13 16 22 26 31 35 35 36 28 35
16 13 8 9 11 12 12 12 10 10 10 10 10 10 9 9 11 12 9 8 10 12 14 14 15 15 13 11 11 13 15 15 16 17 19 22 26 26 32 32 32 32 29 27
13 9 12 12 11 11 10 10 8 9 8 8 8 10 10 11 12 14 17 17 18 23 22 21 19 16 15 16 18 19 22 24 25 27 28 28 29 29 32 31 29 27 23 18
13 14 13 12 12 12 9 8 8 6 6 6 6 7 10 13 16 18 21 22 23 25 23 23 21 18 19 19 20 22 23 23 24 23 23 23 23 24 24 24 24 22 20 14
9 9 10 9 9 8 9 9 8 7 8 7 9 11 13 15 17 17 19 19 20 21 23 21 18 17 19 19 20 20 20 20 20 22 22 21 22 21 20 19 19 17 15 13
11 10 10 9 8 7 8 8 10 11 11 11 14 17 16 16 15 15 14 17 18 20 20 18 17 17 19 19 18 17 18 19 20 20 18 18 18 17 17 16 14 12 11 9
11 12 11 9 9 10 11 11 11 13 13 15 16 18 20 18 15 15 15 19 19 17 12 12 12 14 15 14 14 15 15 16 16 16 15 16 15 16 15 13 11 11 11 10
11 11 11 13 15 14 14 13 13 16 16 16 17 17 16 12 10 11 14 16 15 13 12 12 10 11 11 11 11 12 12 13 13 13 12 13 12 12 11 10 10 10 9 8
11 11 12 13 14 15 13 14 15 17 16 16 16 15 13 13 12 13 13 13 11 10 10 12 13 13 12 12 12 13 13 13 13 12 12 12 11 11 10 9 8 7 7 5
11 11 13 13 15 16 15 15 15 14 15 15 15 14 13 11 9 9 11 12 11 10 12 13 12 11 11 12 13 14 13 12 12 12 11 10 9 8 8 7 5 4 5 3
11 11 12 12 13 13 15 13 12 11 10 9 9 7 7 7 9 9 10 10 11 11 12 13 11 11 11 12 11 10 10 11 10 9 9 7 6 5 5 4 3 3 3 3
11 11 11 10 10 10 10 10 10 9 8 8 8 7 7 7 6 7 7 8 8 8 9 9 9 10 11 10 10 10 10 9 8 6 6 5 5 5 4 5 4 4 4 5
5 5 6 7 7 6 6 5 6 5 5 6 6 6 6 6 7 7 8 8 8 8 8 8 8 8 9 10 9 9 8 7 7 6 6 6 5 7 6 6 6 6 7 7
7 7 6 5 3 3 5 5 3 3 2 2 3 4 6 8 8 7 7 6 6 7 8 9 10 9 8 7 8 7 6 9 8 7 8 8 8 9 9 8 9 9 9 9

GFSNGP_850_spd_087.txt.gz
Wind_Speed
11 8 7 2 11 3 12 10 6 0 10 9 11 10 18 21 22 27 26 27 26 27 25 19 4 18 32 30 31 29 28 35 37 36 35 34 39 44 44 45 45 45 47 47
8 11 7 11 14 3 1 4 11 12 12 7 19 14 9 16 22 22 23 25 22 22 24 25 23 16 6 31 32 31 32 33 36 37 37 40 39 40 42 45 47 46 47 49
3 9 14 5 10 13 11 16 11 10 11 1 2 17 12 16 22 20 22 22 20 18 20 22 20 17 14 5 13 34 35 34 35 40 41 41 41 40 43 45 45 49 49 48
4 6 3 4 6 4 2 10 5 12 10 9 15 17 23 22 20 18 14 12 12 12 15 20 22 21 16 12 10 5 33 37 34 36 40 43 42 45 46 46 46 46 49 50
2 3 6 14 4 3 2 7 11 12 9 13 12 19 20 23 23 20 22 18 22 17 15 16 19 20 18 12 9 5 3 11 21 32 39 39 42 44 45 48 50 51 49 50
2 4 5 5 2 10 1 5 7 12 11 11 18 7 6 25 34 29 30 23 18 13 11 16 17 17 18 18 15 15 14 14 13 17 28 42 39 39 43 45 47 47 47 48
7 3 6 5 7 10 4 4 10 18 17 18 10 9 16 22 27 21 20 18 16 15 15 15 17 16 17 18 19 18 17 19 19 15 13 28 36 40 41 44 43 43 46 48
4 3 6 13 6 4 6 18 20 24 23 22 21 18 19 17 20 18 18 18 18 18 18 16 16 17 18 18 18 18 19 20 22 18 15 11 24 28 34 38 41 42 45 46
6 5 9 22 18 24 23 24 22 25 21 17 19 16 19 17 16 16 17 18 18 16 15 17 16 16 17 17 18 17 17 19 22 23 18 17 12 13 16 24 34 38 39 43
3 10 12 22 24 20 22 24 23 18 17 15 16 14 15 13 15 15 16 17 18 16 16 17 18 17 17 16 15 15 13 14 16 21 25 21 15 11 9 8 11 20 24 26
4 11 19 17 14 14 22 18 18 16 12 9 10 12 10 11 13 14 15 16 16 16 15 15 16 16 16 15 13 13 12 10 12 15 16 18 18 18 20 18 11 9 8 9
3 9 14 12 14 13 14 14 10 5 7 7 6 8 6 5 9 12 16 15 14 14 14 14 14 14 14 14 13 11 9 8 9 9 11 14 17 17 12 13 16 13 8 6
5 8 17 16 14 12 10 9 7 8 8 7 7 3 2 4 6 7 10 11 12 12 11 11 12 12 11 11 10 7 6 6 5 8 11 13 16 21 27 29 30 31 32 32
20 7 16 14 10 10 10 10 10 8 10 8 6 5 5 6 6 8 9 9 9 8 9 9 10 11 10 9 9 8 8 8 9 11 13 16 20 25 29 32 34 35 31 30
16 14 13 9 10 11 6 5 9 10 7 8 10 10 10 11 13 14 12 12 11 11 13 13 14 15 12 11 10 11 13 14 15 17 19 22 24 27 29 30 30 30 26 25
11 13 13 14 12 9 8 9 8 8 7 7 8 11 13 15 15 16 17 16 16 20 18 17 16 15 12 12 14 16 17 17 17 21 23 24 26 27 26 25 26 24 23 21
13 15 14 12 11 10 10 9 8 7 5 6 9 11 13 12 14 16 17 17 18 20 19 19 18 15 13 13 15 18 18 19 19 21 21 22 22 22 22 21 21 20 19 14
9 8 7 9 8 8 10 10 8 7 8 7 8 8 8 11 16 16 16 15 16 17 19 18 16 14 15 14 13 15 16 17 18 20 19 20 20 19 18 17 17 16 15 13
7 7 7 11 8 8 9 10 10 11 11 11 13 15 15 14 13 13 12 12 15 17 17 15 14 14 15 13 13 13 14 15 16 17 17 17 17 15 15 14 13 12 10 9
7 7 7 6 6 6 9 9 9 12 12 12 14 15 16 14 12 11 10 14 16 15 11 10 11 12 12 10 10 10 11 11 12 13 12 12 12 12 12 11 10 10 9 9
10 10 11 12 13 13 12 12 13 16 16 13 13 13 12 10 8 9 10 12 13 11 10 9 9 10 9 8 8 9 10 10 11 11 11 11 11 11 10 10 10 8 8 7
8 10 10 10 12 14 13 13 14 14 13 11 10 9 9 9 10 11 11 12 11 9 9 10 11 10 10 10 10 9 10 10 11 10 10 9 9 8 8 7 6 5 4 3
9 10 10 11 12 14 12 11 11 10 11 10 10 10 9 9 8 8 11 12 11 10 10 11 10 9 10 10 10 10 10 10 10 9 8 7 6 5 4 5 4 1 1 2
8 8 10 11 10 10 10 9 8 7 7 7 6 5 5 6 7 8 9 9 9 9 9 9 9 9 9 8 7 8 8 8 8 7 6 6 5 4 3 3 3 2 3 5
9 9 8 7 6 6 6 7 7 7 7 6 5 4 5 6 5 7 6 7 8 8 8 9 8 8 7 7 8 7 7 7 6 6 6 5 4 4 3 2 3 4 4 4
5 6 7 7 5 3 2 3 2 2 4 6 7 8 6 6 6 7 8 8 8 8 8 8 7 7 6 6 6 6 6 6 6 6 6 6 7 7 6 6 7 7 6 6
5 3 3 1 1 3 4 5 4 1 2 3 3 5 7 7 6 5 5 5 5 5 7 9 8 8 7 6 6 7 8 8 7 7 7 7 8 7 6 6 7 8 8 9

GFSNGP_850_spd_090.txt.gz
Wind_Speed
7 14 6 6 6 7 4 12 4 2 4 5 3 4 8 22 17 22 24 33 33 31 28 21 9 3 13 23 30 32 30 28 29 29 31 31 32 36 39 38 38 38 39 43
4 8 10 14 14 11 5 11 11 16 14 7 4 7 2 15 16 17 19 30 32 27 24 21 19 15 10 5 19 27 36 36 33 31 33 34 34 34 35 37 40 40 42 42
3 6 12 8 7 15 7 12 7 2 7 1 9 9 6 4 11 15 20 24 29 27 23 20 17 12 10 5 4 9 22 35 32 32 36 38 39 38 39 39 40 43 44 44
3 3 5 7 13 9 5 4 15 3 12 16 17 21 28 25 19 25 23 25 25 21 19 19 17 15 10 7 8 8 7 20 28 31 31 36 37 41 44 43 44 45 45 45
2 3 10 14 2 3 10 5 8 10 5 18 18 22 26 24 26 26 23 21 21 19 18 17 16 17 15 13 8 7 6 1 5 9 26 33 35 41 43 41 44 47 48 48
1 3 4 5 6 21 3 3 4 9 5 5 8 7 6 16 17 20 20 18 18 16 13 14 16 14 14 16 16 17 16 14 10 8 9 13 27 37 40 45 49 46 45 46
7 3 6 5 16 18 8 3 10 16 15 14 7 9 16 12 15 16 17 18 16 14 15 14 14 14 13 15 17 19 17 14 14 14 12 12 14 22 34 39 43 46 45 45
3 4 9 18 7 4 5 18 20 19 18 21 19 16 15 14 15 17 18 17 16 15 16 15 13 12 14 15 16 14 14 14 16 17 15 14 13 16 18 24 31 34 41 44
6 4 7 17 17 22 17 21 19 21 17 17 15 13 13 15 15 17 17 16 16 16 15 14 15 14 13 14 14 15 14 12 11 12 14 13 10 8 11 13 14 19 23 24
3 8 11 16 19 22 22 18 16 16 15 15 16 11 12 12 13 16 17 18 17 15 16 16 16 14 13 12 11 11 15 13 12 13 14 13 11 11 10 9 9 11 13 14
5 10 13 16 14 11 14 11 12 8 9 13 11 12 10 10 11 13 15 17 17 17 16 15 14 14 14 13 12 11 11 12 11 12 13 15 16 16 15 13 11 10 8 5
2 9 9 6 10 10 8 7 8 5 8 11 9 9 7 9 10 11 13 14 14 14 14 14 14 13 12 11 10 9 8 6 6 7 9 12 16 18 18 17 16 16 15 13
5 13 15 14 12 10 10 6 5 8 12 11 9 8 8 8 8 9 10 10 11 12 11 11 11 11 11 10 8 7 5 5 5 6 9 14 17 20 24 27 29 32 30 28
14 5 15 13 8 10 9 7 8 10 12 12 11 9 7 6 6 7 9 10 9 9 9 10 10 11 11 9 7 6 6 6 7 8 10 13 17 20 22 24 27 28 27 25
14 13 10 7 5 5 5 5 6 8 8 9 10 8 6 7 9 9 9 9 9 9 10 10 11 12 11 10 7 6 7 9 10 12 14 16 18 19 20 22 25 24 21 19
7 6 6 8 5 4 4 4 4 5 6 6 7 8 9 9 10 9 9 9 8 13 14 12 12 12 9 8 7 9 10 10 12 14 16 17 18 19 20 20 20 20 18 17
3 9 8 5 5 5 6 6 3 2 1 3 8 5 4 7 10 11 12 12 12 13 13 13 13 10 9 8 9 10 11 11 12 14 14 13 14 15 15 14 15 15 16 12
6 5 5 3 3 4 7 7 5 4 6 7 8 4 6 8 11 12 11 10 10 11 12 13 11 9 9 9 8 9 9 10 11 13 13 11 11 11 10 10 11 11 11 8
7 6 6 6 6 6 7 7 7 7 8 8 8 11 11 10 10 9 8 7 9 10 13 10 10 9 9 9 7 8 8 9 10 10 10 9 8 8 8 7 7 7 7 6
6 7 5 5 5 6 8 9 8 10 10 9 10 10 10 9 7 6 5 7 10 10 7 6 5 5 6 5 4 5 6 6 7 8 7 7 6 6 6 5 5 5 6 7
9 9 10 11 12 11 10 9 9 11 9 7 6 8 7 7 5 6 6 7 9 7 6 5 5 5 4 4 4 4 4 5 5 6 5 6 5 5 5 5 5 5 5 6
8 8 9 9 11 13 11 10 9 9 8 7 7 7 6 7 7 7 8 8 7 5 5 6 7 7 6 5 5 5 6 6 6 6 6 5 4 4 3 3 2 2 3 3
8 9 9 9 9 11 10 8 7 6 6 6 6 7 6 6 5 5 6 7 6 5 5 6 6 6 6 6 7 7 7 6 6 6 5 3 2 3 2 2 2 2 3 3
8 8 8 9 8 7 6 6 5 5 5 5 5 5 4 4 3 5 6 6 5 5 5 5 5 6 6 6 6 6 6 6 6 5 4 3 2 2 2 2 3 4 4 4
7 7 6 6 4 4 4 4 5 7 7 7 5 3 3 2 2 4 4 5 6 5 4 6 6 5 4 4 4 4 4 4 4 5 5 4 4 3 3 4 4 5 5 5
1 1 3 2 1 2 3 2 4 5 6 7 6 5 4 3 4 4 4 5 5 5 5 6 5 4 5 4 4 4 4 4 4 4 4 4 3 3 3 4 5 5 5 6
2 3 4 5 5 4 4 7 7 6 5 6 5 3 4 4 3 3 4 4 6 6 6 6 6 6 7 7 6 7 6 5 5 5 5 6 5 4 5 6 7 8 9 9

GFSNGP_850_spd_093.txt.gz
Wind_Speed
5 8 5 5 10 12 9 8 6 5 5 2 0 7 5 9 26 21 21 27 28 28 26 22 15 6 5 10 14 18 23 25 25 23 25 26 27 26 27 29 31 32 34 36
4 5 2 5 14 15 12 9 11 14 16 6 7 8 10 6 15 11 16 23 23 24 26 25 18 17 7 9 13 14 14 20 23 23 24 26 27 29 29 30 31 32 37 38
4 4 7 6 7 10 3 4 2 5 5 6 7 8 8 2 6 15 18 20 21 24 23 20 19 15 13 9 4 4 12 13 14 19 23 25 26 30 32 33 33 36 37 37
3 3 3 6 11 11 6 5 16 15 6 15 17 19 19 17 16 17 15 16 16 19 20 19 17 14 9 7 8 7 6 11 11 13 17 21 21 24 27 32 37 41 42 42
2 3 8 9 4 3 10 8 6 7 11 18 23 24 17 17 19 16 16 15 16 17 17 16 17 14 12 13 11 7 5 2 3 5 8 13 20 25 30 30 31 33 35 42
1 2 3 4 3 15 11 3 2 8 10 6 2 5 4 8 13 16 15 14 15 15 14 13 15 13 11 13 13 13 11 9 6 1 5 6 10 14 20 28 34 38 39 36
6 6 6 4 11 13 4 3 9 10 14 5 3 9 12 9 12 13 9 12 12 13 15 15 12 11 11 12 13 13 12 11 10 10 9 8 8 9 10 12 18 28 30 35
3 4 7 15 4 1 4 16 15 17 18 23 20 17 12 10 11 12 11 11 12 13 14 13 12 11 12 12 12 11 11 11 11 11 11 11 11 10 9 8 7 11 18 26
5 3 8 19 15 18 18 20 20 19 17 15 16 14 11 10 11 12 15 14 13 13 12 13 13 14 13 13 11 10 10 9 10 11 12 11 11 11 10 9 7 5 3 7
3 7 9 14 15 19 17 16 16 16 16 14 14 10 10 9 10 12 13 14 13 12 12 12 12 12 12 10 9 9 10 11 9 10 11 12 12 14 13 10 11 9 7 6
2 6 6 18 14 12 15 11 12 10 13 11 8 11 10 8 8 10 12 13 13 13 13 12 12 11 10 8 7 8 8 8 7 8 9 10 11 14 15 15 12 10 10 8
3 11 6 8 11 10 14 13 13 12 10 10 7 8 7 6 7 8 9 10 9 9 9 10 11 11 10 10 8 7 5 4 5 7 8 9 13 14 14 12 10 14 14 15
5 12 16 14 17 14 13 11 13 12 11 11 10 7 6 7 7 7 8 9 9 10 10 10 11 11 11 10 9 6 5 5 5 6 7 8 11 14 17 17 15 18 20 18
13 1 9 16 9 10 10 10 10 10 11 11 10 9 6 5 6 7 10 10 10 10 9 11 11 12 13 11 10 8 7 5 5 7 9 11 14 16 17 18 19 20 18 16
13 11 7 4 4 7 7 7 9 10 9 9 9 7 5 7 9 10 9 10 10 9 11 11 11 13 13 12 10 9 8 8 8 9 10 10 11 13 15 16 18 18 14 13
8 7 7 6 6 7 8 8 8 8 8 9 7 9 9 9 10 10 10 10 8 13 14 13 13 14 12 11 11 9 9 9 9 10 11 12 13 13 14 14 15 14 14 14
1 6 8 6 7 8 9 8 6 5 4 2 5 7 6 5 7 9 10 11 11 11 11 12 13 11 11 10 9 9 9 9 9 10 11 11 11 11 11 10 11 11 12 10
4 3 2 1 2 4 6 6 6 5 4 3 3 4 3 4 7 8 8 8 8 8 9 11 11 9 8 9 8 8 7 7 7 8 9 9 9 8 8 8 8 8 8 7
4 4 3 2 1 1 2 3 5 5 4 2 1 2 4 5 5 5 5 4 4 5 9 9 8 7 7 8 7 6 5 5 5 6 6 6 5 6 5 4 5 5 6 5
6 5 3 4 4 5 7 7 7 8 8 6 5 5 5 5 5 4 4 5 7 8 8 7 6 5 5 4 4 3 3 3 3 3 3 3 3 4 4 4 4 5 5 5
9 9 10 10 10 10 9 8 6 7 7 5 5 6 6 6 5 5 4 4 6 7 8 8 6 6 6 5 4 3 2 2 2 2 3 3 3 4 4 5 5 5 5 4
9 8 10 9 9 11 10 7 6 6 5 5 5 6 6 6 6 5 5 6 6 7 7 7 7 7 7 6 5 4 4 4 4 4 4 4 3 3 3 4 4 4 4 4
9 9 9 8 7 8 7 6 5 5 6 6 7 7 6 6 5 5 4 5 5 6 7 7 6 6 6 6 6 5 5 4 4 3 3 2 2 2 3 3 3 3 3 4
9 9 8 7 6 5 4 5 5 6 7 7 7 7 6 5 4 3 4 5 4 5 5 5 6 6 5 4 4 4 4 4 4 3 3 3 3 3 2 2 3 3 4 4
7 6 5 5 4 3 3 3 4 7 8 9 9 7 5 4 3 3 3 4 5 4 4 4 5 5 5 5 5 5 4 4 3 3 3 3 3 3 4 4 4 5 5 6
1 1 1 2 3 5 6 6 6 7 7 8 8 6 4 3 3 3 3 4 5 5 5 5 5 5 5 5 4 5 4 4 4 4 4 4 5 6 6 5 6 7 8 8
1 2 4 4 4 5 5 6 8 9 8 8 7 4 4 4 4 5 6 7 6 6 7 6 6 6 6 6 5 5 5 5 5 5 5 6 7 7 8 8 9 9 9 8

GFSNGP_850_spd_096.txt.gz
Wind_Speed
1 4 3 6 9 9 11 12 7 6 14 16 10 3 2 1 11 17 23 31 32 31 27 22 15 11 10 8 10 12 15 16 17 14 10 10 17 17 16 17 20 22 24 26
2 5 2 5 9 12 15 15 13 13 15 9 9 4 4 7 10 14 17 23 26 26 28 24 26 17 11 10 9 7 8 9 12 14 14 13 12 14 17 18 18 19 21 25
2 2 6 7 4 5 6 4 2 6 7 14 5 7 6 9 13 15 18 25 27 28 25 25 20 17 14 14 6 7 9 9 10 10 11 12 12 14 16 18 17 19 21 24
2 3 2 6 10 5 4 4 7 10 13 5 12 17 22 18 11 17 19 21 23 21 23 21 16 13 13 11 10 10 9 7 5 7 10 12 14 16 18 20 22 19 19 19
1 1 6 8 3 4 4 8 4 4 10 11 16 19 18 15 16 16 17 18 19 16 16 13 12 14 14 13 12 11 10 6 2 1 2 5 10 14 19 23 23 25 24 22
1 0 3 5 4 15 6 3 14 5 8 8 17 2 4 11 13 15 15 16 16 15 13 10 10 12 12 13 14 16 15 13 10 8 5 3 3 5 9 14 18 21 25 29
2 4 5 4 11 12 2 4 12 14 3 12 5 5 9 10 12 13 14 11 12 13 14 14 11 12 13 13 16 15 13 12 11 10 9 9 8 7 5 5 8 9 10 17
2 3 6 14 4 4 4 16 17 20 19 24 18 16 12 11 11 16 17 14 13 13 15 15 14 13 14 14 14 13 12 10 9 10 11 11 10 9 8 6 4 4 4 6
5 2 8 12 12 11 13 13 17 22 18 15 20 15 12 10 13 16 15 14 14 13 12 12 13 13 12 13 12 12 13 12 11 11 10 9 9 10 11 10 9 6 3 3
5 5 9 11 13 15 15 18 17 17 14 12 15 11 9 12 15 13 13 13 11 10 11 12 12 12 12 11 10 11 12 12 10 10 12 11 9 12 11 11 11 10 8 8
2 6 6 19 14 12 14 15 16 16 15 13 11 12 10 12 11 11 10 10 10 9 10 10 10 9 10 9 8 8 8 8 9 9 11 12 10 15 16 15 12 10 11 10
3 12 5 10 12 12 16 16 16 16 14 15 12 10 7 9 9 9 10 10 10 10 11 11 11 10 8 8 7 6 5 4 4 4 5 6 8 11 11 14 14 15 15 15
4 5 11 13 14 14 15 13 15 15 15 13 12 10 9 9 8 8 9 11 12 13 13 12 12 12 12 12 10 7 5 4 3 3 4 5 7 9 11 13 14 18 18 18
11 2 3 15 9 11 11 11 12 11 12 12 11 10 8 7 8 10 11 12 12 12 12 12 12 13 14 13 12 10 8 6 3 4 6 8 10 11 12 13 14 17 17 16
11 10 5 3 5 9 9 9 10 12 11 11 12 12 11 11 12 11 9 10 10 10 11 11 12 13 13 12 10 7 6 5 6 7 8 8 9 11 11 12 14 16 15 13
4 6 6 7 8 10 10 9 9 9 9 9 11 12 11 11 11 11 12 11 10 13 13 12 12 13 12 11 10 8 9 9 8 9 10 11 11 12 12 12 12 12 13 15
3 6 7 7 8 10 11 9 8 6 5 6 8 8 7 8 9 10 11 11 11 11 11 11 12 11 9 9 8 8 7 7 8 8 9 9 9 8 9 8 9 10 11 11
4 2 4 4 5 6 7 8 8 8 8 7 7 7 6 6 8 8 8 8 8 7 8 9 10 9 8 8 8 7 5 5 5 6 7 7 6 7 6 6 7 7 8 7
2 2 4 6 6 5 7 9 10 10 10 10 8 8 8 8 7 7 7 6 5 5 8 8 7 7 6 6 7 5 4 4 4 4 4 4 3 4 4 5 5 6 6 6
4 4 3 3 4 7 9 11 10 10 11 10 10 8 8 8 8 7 7 9 10 10 11 9 8 7 6 6 4 3 3 2 2 2 3 2 3 3 4 5 6 6 6 7
7 8 8 8 8 10 10 11 9 9 10 9 9 9 9 9 8 9 8 7 7 8 9 9 8 7 6 5 5 4 3 2 2 3 3 3 4 5 5 5 5 5 5 5
9 9 11 10 9 10 10 9 8 9 8 8 8 7 7 7 7 6 5 6 6 7 8 8 7 7 7 6 5 5 4 4 4 4 4 4 4 4 4 4 3 4 4 5
10 9 9 8 7 7 7 6 6 7 7 7 7 7 6 6 6 5 5 6 6 7 7 7 7 7 6 6 6 5 5 4 4 3 3 3 3 3 3 3 3 3 3 4
9 9 8 7 6 6 5 6 6 8 8 10 10 9 7 6 6 6 6 6 6 6 7 6 6 5 5 5 5 4 4 4 4 3 3 3 3 3 3 3 4 4 4 5
7 5 4 4 4 4 5 6 6 8 9 11 11 11 8 6 5 4 5 6 7 7 7 7 7 6 6 5 5 5 5 5 4 4 5 5 5 5 5 6 6 6 7 7
2 1 1 2 3 5 6 9 9 9 9 10 11 9 7 6 5 6 6 6 7 7 7 7 7 7 7 7 6 7 7 7 7 6 6 7 7 7 7 7 8 8 8 8
1 2 3 4 5 6 7 8 9 10 11 11 9 7 7 6 5 5 6 7 8 8 7 7 7 8 8 7 7 6 7 8 8 8 8 9 10 10 10 10 10 10 10 10

GFSNGP_850_spd_099.txt.gz
Wind_Speed
5 3 3 2 3 5 7 10 7 10 14 19 11 15 6 6 12 22 16 18 25 32 30 25 24 20 18 16 13 13 10 8 7 6 5 7 15 15 14 15 16 17 18 18
1 3 4 4 7 10 9 10 13 17 19 15 10 16 1 9 12 20 19 25 26 26 31 32 28 23 18 15 12 8 7 6 3 5 6 6 7 14 16 15 14 15 17 17
2 3 4 5 4 7 7 6 5 10 13 12 11 12 15 17 15 15 13 19 23 25 28 27 28 28 26 24 15 12 10 10 7 6 9 10 8 7 10 13 16 18 18 19
1 2 2 2 8 2 8 8 11 12 9 10 14 18 23 22 17 15 17 20 22 24 27 26 25 24 23 21 16 15 12 6 8 8 8 10 12 15 16 17 17 15 16 16
1 1 5 2 6 5 5 8 13 10 8 11 6 6 20 22 19 17 18 18 18 19 19 21 24 24 20 17 9 13 10 4 6 6 5 5 8 11 14 18 19 20 21 21
1 1 2 4 10 13 6 3 17 19 6 9 12 3 3 17 18 18 17 17 18 16 14 17 20 18 16 18 19 19 14 11 10 9 7 4 4 2 3 5 8 11 14 16
2 2 4 7 16 12 2 4 15 18 14 10 5 8 9 11 16 17 17 17 17 19 20 19 15 13 15 16 18 17 14 11 12 13 12 10 8 6 6 4 2 3 3 5
1 2 2 15 5 5 1 8 11 15 16 22 18 15 14 15 17 17 17 16 17 18 19 18 17 15 15 15 15 13 11 11 11 12 13 12 10 10 9 7 6 4 2 2
3 4 7 15 15 11 11 11 14 14 13 15 16 12 13 14 14 14 14 14 14 14 15 15 15 15 13 13 12 12 11 11 11 11 12 11 9 10 11 10 9 8 6 5
2 7 12 16 16 16 15 16 14 14 13 12 12 11 12 12 11 12 13 14 13 12 13 13 13 13 13 10 10 9 9 10 10 11 12 10 9 10 10 11 11 10 8 7
1 5 3 18 16 13 14 14 15 15 14 12 10 11 10 10 10 10 10 11 12 14 14 14 12 11 10 9 9 8 8 9 10 10 12 13 11 13 14 13 11 10 11 10
3 8 8 10 11 11 13 14 14 13 13 13 11 9 8 10 10 10 11 11 11 12 12 13 13 12 11 10 8 7 7 8 9 8 9 11 12 13 15 12 13 15 16 15
3 4 12 10 10 9 10 11 11 11 12 11 10 9 9 10 10 10 12 13 14 14 13 12 12 12 11 11 10 8 7 6 6 6 7 8 9 9 11 13 14 17 18 17
8 5 6 9 6 7 7 7 8 10 11 11 11 10 10 10 9 10 12 13 13 12 13 13 13 13 14 12 11 10 8 7 6 6 7 7 8 9 10 10 11 14 14 14
8 7 6 5 5 7 7 5 8 10 10 11 11 11 11 11 12 12 11 11 11 11 12 12 12 13 13 13 11 10 9 9 8 8 7 7 8 8 9 9 10 11 11 11
3 5 4 5 6 7 7 8 8 8 8 9 10 10 10 11 11 11 11 11 9 12 13 12 12 12 12 11 11 10 10 10 8 8 8 8 8 8 8 8 8 8 8 9
6 3 4 5 6 8 9 8 7 6 6 7 8 7 7 8 8 9 10 11 11 10 11 10 11 11 10 10 10 9 8 7 7 6 6 6 6 6 6 6 6 6 7 7
5 6 5 5 5 5 7 8 8 8 9 10 9 8 7 6 8 8 8 8 8 7 7 8 9 9 9 8 8 8 6 5 4 4 4 4 4 5 5 5 5 4 4 4
6 7 7 7 7 7 8 10 10 11 11 11 9 8 8 8 8 8 8 7 6 6 8 8 8 7 6 5 5 5 4 4 3 3 3 2 2 2 3 3 3 3 4 4
6 6 6 7 9 10 11 11 10 10 11 11 10 9 8 8 8 8 8 8 9 10 10 10 8 7 6 5 4 2 2 1 1 0 1 1 1 1 2 3 4 4 4 4
9 10 11 10 11 12 12 13 11 11 12 11 9 10 10 10 9 8 6 7 8 8 9 9 8 7 6 5 5 4 3 2 1 1 1 2 2 3 3 3 3 3 3 3
11 11 11 11 9 9 10 9 8 9 9 9 9 9 9 8 8 8 8 8 9 8 8 8 7 7 7 6 5 5 4 3 2 2 2 2 2 2 2 2 1 1 1 1
10 9 9 9 8 7 6 6 7 7 8 9 9 10 9 8 8 7 6 7 7 7 8 7 7 6 5 5 5 4 4 3 2 1 1 1 0 0 0 0 1 1 1 2
9 9 8 7 5 5 5 5 5 7 8 10 11 11 10 8 8 6 6 7 8 7 7 7 6 6 5 5 5 4 3 3 2 2 2 2 2 1 2 2 2 3 3 4
8 6 5 4 3 3 3 4 5 6 7 9 10 11 9 6 5 5 5 6 6 7 6 7 7 6 5 5 4 4 4 3 3 3 3 3 3 3 3 4 4 4 5 5
4 3 1 0 2 3 4 6 8 9 9 9 10 8 6 6 5 5 5 6 6 6 6 6 7 7 7 7 6 5 5 5 5 5 5 5 5 5 6 6 6 6 6 7
3 1 0 2 4 5 7 8 8 8 8 9 8 5 5 4 3 4 4 5 6 6 6 6 7 8 8 8 7 6 7 7 7 7 7 7 7 7 7 7 8 8 8 8

GFSNGP_850_spd_102.txt.gz
Wind_Speed
11 10 8 8 7 5 2 5 4 10 14 15 14 15 17 10 14 16 24 31 27 29 27 18 17 13 15 15 15 21 21 20 18 18 15 16 16 15 15 16 17 17 17 17
9 7 5 3 1 4 3 4 6 8 9 17 23 25 25 20 18 17 22 23 29 25 26 26 21 20 17 19 22 22 22 19 16 14 12 11 10 15 15 15 15 15 16 17
4 1 1 3 7 6 2 5 7 9 12 14 13 15 21 20 18 17 17 22 22 25 27 28 26 23 23 20 17 19 18 18 17 16 16 14 11 9 11 13 13 15 15 15
3 3 3 6 6 6 4 11 16 15 8 11 13 15 23 22 20 21 22 22 22 25 26 27 24 23 25 23 19 19 18 17 14 13 13 11 11 11 12 14 16 17 18 17
1 4 6 8 8 9 8 7 16 17 4 7 11 10 19 19 18 20 20 21 20 20 22 24 25 24 22 20 23 21 19 17 14 10 10 7 8 10 13 14 14 15 17 17
0 2 3 7 11 12 8 2 15 15 11 8 10 1 5 15 16 17 20 20 22 20 18 19 23 20 21 20 18 19 18 17 13 9 8 9 7 6 6 8 10 11 12 14
2 3 5 11 16 18 4 6 12 13 14 18 6 7 5 10 15 16 18 20 19 20 22 20 18 17 21 22 22 16 16 13 10 10 7 10 8 7 7 6 6 7 6 5
1 1 2 21 8 6 5 12 11 12 12 14 13 10 10 13 15 16 16 16 17 18 19 18 17 16 17 19 17 16 17 13 12 10 12 10 9 9 9 9 7 7 5 4
5 3 7 16 14 11 12 10 13 12 10 10 11 11 11 12 13 15 15 16 16 16 15 15 15 15 14 15 12 13 13 13 13 14 14 13 10 10 9 9 9 7 6 5
4 6 10 12 13 13 12 13 11 11 10 9 10 9 10 11 12 13 14 14 14 14 14 14 14 13 13 11 11 9 10 11 12 12 13 12 12 12 11 11 10 9 9 9
4 8 9 13 12 10 11 11 11 11 11 10 8 9 9 10 11 11 11 12 12 12 13 14 14 13 11 9 9 9 8 9 9 10 11 12 11 12 13 13 11 12 12 12
2 4 8 7 8 8 10 11 10 9 9 10 9 8 8 9 10 10 11 11 12 13 13 14 13 12 12 11 9 7 6 6 6 6 7 9 11 13 15 14 15 16 16 16
2 7 11 8 7 7 8 8 8 8 9 9 9 8 8 8 9 10 11 11 12 12 12 13 13 12 11 11 9 8 7 6 5 5 6 8 9 11 14 15 13 15 16 15
5 7 6 5 4 5 5 6 7 8 9 9 9 9 8 8 8 10 11 10 10 10 11 11 11 12 12 12 10 9 8 8 7 8 8 9 10 10 10 9 11 14 13 14
6 5 5 4 5 5 4 3 4 6 7 8 9 8 8 8 9 10 9 9 9 10 10 10 10 11 11 11 11 9 8 8 8 8 8 8 9 9 9 9 10 10 11 11
4 5 5 6 5 5 5 5 5 5 6 6 6 7 7 7 8 8 8 8 8 10 10 10 10 10 10 9 9 8 8 8 7 7 7 7 8 7 8 8 8 8 8 9
6 2 2 3 3 5 5 6 6 5 5 6 5 6 6 6 6 6 7 8 9 9 9 9 9 9 8 7 6 6 6 6 6 6 6 6 6 6 6 6 7 7 6 6
7 6 5 4 4 4 6 7 7 7 7 7 7 7 6 5 6 6 7 7 7 7 7 7 7 7 7 6 6 6 5 5 4 4 4 4 5 4 4 4 5 4 4 3
8 8 8 7 7 7 8 8 9 9 8 8 7 6 6 6 6 6 7 7 6 6 8 7 7 7 6 5 4 4 4 4 4 3 3 3 2 2 2 2 1 2 2 1
9 9 10 10 10 9 10 10 9 8 8 7 7 6 5 5 5 5 6 8 8 8 9 9 8 7 6 5 4 3 2 2 2 1 1 2 1 1 1 1 2 2 2 2
11 11 11 11 12 11 10 10 8 7 7 7 6 4 4 5 5 5 6 6 8 7 7 7 7 6 6 5 6 5 4 3 3 3 3 3 3 3 2 2 2 2 2 2
13 13 13 11 10 9 8 7 7 7 8 8 8 8 8 7 7 6 6 5 7 7 7 7 6 6 5 4 4 4 3 3 3 3 3 3 3 2 2 1 1 1 1 0
12 11 10 9 7 5 5 5 5 5 6 7 8 9 7 5 5 4 3 7 6 7 6 7 7 6 5 5 4 3 3 2 2 2 1 1 0 0 0 0 1 1 1 2
10 9 7 6 4 3 2 1 2 4 5 7 8 9 6 4 5 4 5 6 7 7 6 7 7 6 5 4 4 3 3 3 2 2 2 2 2 2 2 3 3 4 4 4
8 6 5 3 1 1 3 4 5 6 6 6 8 9 7 4 2 2 3 5 6 5 5 7 7 6 6 5 5 4 4 4 4 4 3 3 3 3 4 5 5 6 6 6
6 4 3 3 3 3 4 5 6 7 6 6 5 6 5 5 4 3 4 6 6 6 5 6 7 7 7 7 6 5 4 5 5 5 5 5 5 5 5 6 6 7 7 8
4 4 3 2 2 3 4 5 6 7 8 6 5 4 3 3 3 3 5 5 6 7 7 7 7 8 8 8 7 6 6 7 7 7 6 5 5 6 6 7 7 7 8 8

GFSNGP_850_spd_105.txt.gz
Wind_Speed
5 11 12 11 10 6 4 2 3 9 10 14 15 13 15 17 19 21 25 28 29 29 26 34 29 13 8 13 13 14 17 20 25 24 20 19 18 19 18 17 17 16 17 15
12 10 10 10 6 2 2 3 6 8 10 13 16 17 21 22 21 22 21 23 26 28 33 32 31 19 13 12 15 19 23 22 21 21 20 21 20 19 18 17 14 14 14 14
4 5 7 7 9 6 5 19 12 8 12 14 15 15 19 17 20 20 21 22 27 29 32 30 30 25 20 15 17 19 21 22 23 23 22 21 18 16 16 16 14 10 12 13
4 4 4 7 10 7 16 18 15 14 10 10 12 15 20 20 17 18 19 23 24 27 30 30 32 27 27 23 19 17 18 16 16 20 21 22 22 21 20 20 18 16 17 17
1 4 13 8 9 9 8 10 16 14 13 5 10 8 18 19 16 17 18 20 21 22 23 26 25 27 27 28 29 27 23 19 13 16 17 17 18 18 18 18 19 22 23 22
2 4 3 7 16 17 8 4 15 15 13 10 9 1 5 15 15 16 19 20 22 21 19 18 22 22 22 26 25 28 27 17 19 18 16 14 11 10 10 11 14 16 17 17
2 2 7 11 23 25 4 4 11 13 14 18 7 7 5 10 14 15 17 18 16 19 20 20 17 16 18 20 24 23 18 18 18 19 20 17 17 17 12 11 8 9 10 9
3 2 4 24 9 6 5 9 11 12 12 12 10 8 8 10 13 16 18 17 17 17 19 18 17 17 18 19 19 16 16 14 13 15 16 13 13 11 12 11 9 10 10 8
6 3 4 10 11 10 9 8 11 11 10 9 8 9 10 11 12 14 15 16 15 16 16 18 18 17 17 18 16 15 13 11 13 12 12 13 11 10 11 7 7 7 6 6
5 5 8 10 11 11 12 11 10 10 10 9 9 9 9 11 12 13 14 15 14 14 16 17 17 17 16 14 14 11 10 12 14 15 14 12 11 11 10 11 9 10 10 10
5 8 9 10 10 9 10 11 10 10 11 10 9 10 10 11 12 13 13 14 14 15 16 17 16 16 16 13 11 11 10 11 13 15 15 15 13 13 12 11 10 10 9 10
3 3 9 7 7 7 8 10 10 9 9 11 11 10 9 10 11 12 13 14 14 15 15 16 16 16 16 14 11 10 10 11 11 10 10 11 13 16 15 13 13 13 13 13
4 8 11 8 6 6 7 7 8 9 9 9 10 9 9 9 11 12 13 14 14 14 14 14 15 16 16 15 14 12 9 9 8 9 9 10 10 10 13 14 12 11 12 12
6 7 6 4 3 4 4 5 6 7 8 8 8 8 9 9 9 11 13 13 13 13 14 14 14 14 14 16 13 12 11 9 9 9 9 8 7 7 8 8 10 13 12 12
6 5 6 4 3 4 3 3 3 5 6 7 8 8 8 8 10 11 11 11 10 12 14 14 14 14 12 13 14 12 9 10 9 8 7 7 7 7 7 8 9 10 9 8
4 4 6 5 4 4 4 4 3 4 5 5 6 7 8 8 8 9 11 11 11 13 13 13 13 14 13 11 12 11 11 9 9 8 8 8 7 8 7 7 6 5 6 9
5 4 3 2 3 4 5 5 4 4 4 5 5 4 5 6 7 8 10 10 11 12 11 11 11 10 10 9 10 9 8 9 9 8 7 7 7 7 7 6 5 5 6 8
5 5 4 4 4 5 6 6 6 5 5 4 4 5 5 5 7 8 9 9 10 12 12 11 10 10 9 8 8 8 8 7 6 5 4 5 6 5 6 6 6 6 6 5
7 8 8 8 8 8 7 7 7 6 6 6 6 6 7 7 8 8 9 9 8 9 12 12 11 12 10 8 7 8 7 6 6 5 6 6 4 4 5 5 5 5 5 5
9 9 10 10 10 8 8 7 6 5 4 4 4 5 6 6 7 7 9 14 13 10 10 10 9 10 10 9 9 7 6 5 5 6 3 4 5 6 6 4 5 4 4 4
10 10 10 9 9 8 7 6 4 3 4 4 4 5 6 7 7 7 6 5 13 10 10 12 10 7 9 7 8 7 6 6 5 4 4 4 4 3 3 3 3 3 3 3
10 11 10 9 8 7 5 4 4 4 5 6 7 7 9 10 12 12 12 6 8 10 7 7 8 6 5 7 6 6 5 5 4 4 3 3 3 2 2 2 2 2 2 2
11 10 9 7 5 3 3 3 3 5 6 8 9 9 7 7 6 5 4 12 5 5 5 8 8 6 5 6 5 5 5 4 4 3 3 3 2 2 1 1 2 2 2 2
9 7 6 4 2 2 3 2 2 6 6 10 12 9 6 4 5 5 7 10 10 8 10 8 8 6 6 6 5 5 4 4 4 4 4 4 2 2 2 2 2 3 4 4
7 6 4 2 1 2 4 6 5 8 8 5 7 7 6 5 3 6 4 7 10 5 6 15 10 8 7 6 6 5 5 5 4 3 4 4 3 3 3 5 5 5 6 6
6 3 2 4 4 3 4 5 7 8 9 8 8 8 7 7 6 5 6 10 6 8 6 7 9 9 6 7 6 6 5 5 5 6 7 5 6 5 6 7 7 6 6 7
4 3 2 2 4 4 5 6 7 7 7 8 8 8 6 6 6 6 8 6 8 8 8 9 8 10 8 8 6 7 7 7 11 10 8 6 6 6 7 8 8 8 9 10

GFSNGP_850_spd_108.txt.gz
Wind_Speed
9 17 12 7 7 6 6 3 4 12 18 17 15 14 17 19 20 20 22 25 27 30 32 37 29 26 19 12 3 9 13 17 24 29 26 26 22 22 18 19 21 21 20 17
9 12 21 10 4 10 15 17 18 13 11 14 16 17 22 21 20 21 22 24 28 31 32 34 40 32 27 19 12 7 12 16 20 24 23 22 22 19 18 19 19 20 20 17
10 12 11 11 16 17 19 19 12 11 9 10 12 15 19 19 18 19 20 20 25 31 33 30 32 37 35 29 20 16 13 14 16 18 23 24 22 21 20 19 17 19 19 22
2 1 4 6 18 21 22 20 17 14 12 9 13 16 18 18 17 18 18 22 21 24 27 29 30 31 30 33 34 29 23 15 13 15 19 22 23 25 25 25 24 25 25 24
2 2 10 12 16 14 10 14 18 15 15 8 13 8 19 19 16 16 19 21 21 21 22 24 26 27 26 27 31 34 33 31 25 15 9 14 17 23 28 28 27 26 26 25
2 4 1 6 20 24 14 7 16 17 15 16 5 3 4 15 17 17 18 18 18 18 20 21 23 23 24 27 29 26 27 25 24 24 24 22 14 11 14 21 22 22 22 18
4 3 5 15 23 20 3 4 10 15 16 18 9 7 6 12 16 19 19 18 17 19 22 23 22 21 23 23 23 22 20 18 20 18 20 22 22 17 18 20 17 18 14 12
6 5 4 29 7 6 2 7 10 12 13 13 11 10 12 16 17 18 19 19 19 19 22 22 22 20 22 25 21 18 16 16 17 15 17 18 15 13 15 16 17 14 15 11
6 3 5 11 12 11 11 11 12 12 13 10 11 11 13 14 14 15 16 17 17 18 19 22 22 20 20 21 20 18 16 17 14 13 13 12 12 12 10 14 14 14 13 12
6 6 9 10 10 11 11 11 10 11 11 11 10 11 11 13 14 15 16 17 17 17 19 21 20 19 17 14 15 15 16 16 17 17 15 13 11 12 12 13 11 12 11 12
5 9 11 10 9 8 9 10 10 10 12 13 11 12 12 13 14 14 15 16 16 17 18 19 19 19 18 15 11 13 14 13 15 16 16 16 15 15 15 13 11 12 12 12
2 5 8 6 6 7 8 10 10 11 11 13 13 13 11 12 13 13 14 15 15 16 16 17 17 18 20 18 16 11 12 13 13 11 13 15 16 17 17 14 11 12 13 14
5 4 10 7 5 5 7 8 10 11 11 11 13 12 12 12 13 13 14 14 15 15 14 14 16 16 18 19 16 17 12 11 9 9 10 11 13 14 14 15 13 12 13 14
7 8 6 2 3 3 4 6 7 9 11 12 11 12 11 11 12 13 13 14 12 13 14 15 15 14 15 18 17 12 13 13 11 10 9 8 8 8 8 9 14 16 15 13
5 5 6 4 4 5 4 4 6 9 10 11 11 11 11 11 11 12 12 10 10 12 14 14 14 13 10 13 14 15 10 10 11 11 10 9 8 8 7 7 10 10 10 10
6 5 6 6 6 7 7 8 8 8 9 9 9 10 10 9 8 9 12 13 15 16 15 14 14 15 12 11 12 11 13 11 9 8 8 7 7 7 6 5 4 4 5 8
5 5 4 5 6 8 9 8 8 8 8 8 8 7 5 6 8 11 12 13 14 15 15 15 13 13 12 10 11 10 8 8 8 7 7 6 7 6 6 5 6 6 6 5
8 8 7 8 7 7 8 8 8 6 6 7 6 7 7 8 9 10 11 11 9 14 13 12 11 13 9 7 9 8 7 7 6 7 4 4 5 5 4 5 5 6 5 5
9 10 11 11 10 10 8 7 6 6 7 7 8 9 10 10 10 10 10 13 14 13 13 13 10 11 9 8 12 10 6 6 6 4 5 5 2 3 5 4 3 1 1 2
12 12 13 13 11 9 8 6 5 5 5 5 6 8 9 10 10 9 10 11 16 18 12 15 12 8 10 7 9 7 6 6 5 8 6 3 6 7 7 3 2 2 2 1
13 11 9 8 9 7 6 4 3 3 3 4 5 6 8 8 13 12 7 3 16 16 9 14 14 9 6 7 7 5 4 3 3 5 3 4 4 3 1 1 1 2 1 1
10 10 9 8 7 5 3 2 1 2 4 6 7 7 7 10 11 13 12 8 10 14 8 15 14 9 5 5 8 7 6 4 3 2 2 1 1 3 4 3 3 3 3 2
11 10 8 6 4 2 2 2 3 4 7 9 10 10 8 7 7 7 6 15 17 9 8 13 13 8 6 8 7 6 6 7 6 6 4 1 3 3 5 5 3 4 5 4
10 8 7 4 3 5 6 8 8 10 11 9 10 15 10 5 4 5 9 15 16 11 12 16 17 7 6 8 8 6 6 6 5 3 5 5 4 4 5 5 4 5 6 3
9 7 4 4 5 1 5 7 9 9 8 4 10 10 9 11 9 11 12 8 14 11 7 14 17 13 8 10 9 8 3 10 10 4 5 5 5 5 5 8 8 7 9 6
7 3 1 2 5 3 2 5 6 6 7 8 7 8 8 13 11 10 7 12 12 12 12 11 13 16 9 9 9 8 10 6 9 10 9 5 8 7 9 11 9 6 6 10
7 6 3 0 2 3 5 7 9 6 8 9 6 8 9 12 10 11 11 9 10 13 11 11 13 14 18 15 10 8 10 8 11 14 14 8 7 7 9 12 10 10 11 11

GFSNGP_850_spd_111.txt.gz
Wind_Speed
13 10 14 10 15 9 9 7 7 8 17 12 14 14 18 18 19 22 26 28 30 32 33 37 39 42 36 24 17 10 4 4 11 16 17 25 29 29 27 24 22 20 17 17
13 16 20 15 22 19 19 15 10 13 10 9 15 16 20 21 22 23 25 25 29 30 32 34 36 36 40 35 25 16 11 1 3 10 20 21 29 26 23 19 21 22 18 17
4 11 10 13 19 21 22 20 12 10 6 7 13 17 20 20 20 23 23 25 26 29 28 28 30 32 33 36 34 32 25 18 9 7 17 23 25 25 23 21 24 26 26 23
2 6 5 7 15 21 24 19 18 15 10 12 16 19 20 21 20 22 22 21 26 26 25 25 25 28 29 30 33 34 38 37 28 18 13 12 25 29 28 28 26 27 27 26
3 3 5 11 14 9 5 12 18 15 13 9 11 7 21 22 21 18 20 17 25 23 23 22 24 26 25 27 29 30 32 34 36 35 28 19 11 12 18 27 28 29 28 29
1 4 4 6 19 18 5 7 16 17 16 18 8 5 4 15 19 20 19 22 21 22 20 22 24 24 26 26 25 27 27 24 28 30 30 31 26 24 20 14 19 14 18 15
5 4 3 14 21 20 3 3 10 15 15 17 8 6 7 13 18 20 20 19 18 22 23 21 20 21 26 28 28 22 19 19 20 22 21 20 22 23 22 18 23 21 22 19
4 4 4 29 8 6 4 12 13 14 13 12 13 13 14 16 16 17 17 20 19 20 22 20 18 19 22 25 24 22 21 17 18 17 16 15 14 15 15 13 12 12 15 18
5 4 5 12 16 15 14 12 11 13 11 11 12 13 13 15 15 18 17 17 17 16 18 19 18 18 19 19 19 19 19 21 20 16 13 11 10 11 12 11 11 12 14 13
3 5 10 10 11 12 12 10 10 10 13 12 14 12 14 16 14 14 17 15 14 16 19 20 20 17 16 14 15 17 18 20 20 18 16 13 13 12 11 12 13 13 13 14
5 10 12 8 8 9 11 11 13 14 12 15 14 13 12 13 15 13 13 13 14 15 18 18 18 18 17 16 14 15 16 16 18 19 18 17 17 17 16 16 12 13 14 14
2 8 8 6 6 6 10 11 10 13 15 12 13 13 9 13 13 15 14 13 15 15 16 17 17 19 19 19 17 14 14 14 13 14 16 17 18 17 17 16 15 16 16 15
6 6 11 9 7 6 8 10 10 10 12 16 12 10 9 8 6 6 10 13 15 15 14 15 14 16 18 20 16 16 15 13 12 9 10 12 11 14 16 15 13 13 14 15
13 13 9 5 6 6 7 8 10 10 9 9 10 9 7 8 8 9 8 10 12 14 14 15 14 13 14 15 18 14 13 14 12 11 10 9 8 10 10 11 14 16 14 12
7 7 13 8 9 7 7 8 8 8 8 10 10 10 7 8 10 11 10 10 12 14 15 15 14 12 12 12 13 15 13 11 9 9 9 9 6 5 5 5 7 9 7 7
8 10 12 11 9 7 8 6 6 5 3 3 5 7 7 7 9 10 11 12 14 17 15 14 14 12 9 9 9 10 11 9 9 7 6 5 4 6 6 5 3 4 3 3
13 13 14 11 7 5 6 5 4 3 4 7 8 6 3 6 9 10 11 11 13 15 13 12 12 10 9 7 7 8 8 9 8 5 5 4 5 5 7 7 6 6 4 2
14 12 9 7 7 10 8 5 5 7 7 7 7 7 7 8 10 10 9 11 14 15 12 11 11 9 6 7 8 8 6 7 7 8 7 5 4 3 3 5 5 3 2 2
9 12 15 14 11 8 7 7 7 7 7 7 8 9 11 11 10 9 10 9 13 17 16 12 12 9 3 3 6 7 5 7 8 3 5 7 4 1 2 2 3 4 4 3
13 13 13 13 10 7 8 8 6 6 6 6 7 8 8 8 9 8 10 8 14 17 18 17 15 8 2 2 4 4 2 2 4 5 6 4 4 4 3 3 4 4 4 5
13 12 11 10 9 8 6 5 4 3 3 4 5 6 5 5 7 7 7 10 13 15 15 14 14 6 2 4 6 5 4 4 2 1 1 2 3 3 4 4 5 5 5 5
12 11 11 10 8 5 3 2 2 3 4 5 6 7 6 5 7 9 9 9 15 18 13 13 12 6 4 5 6 5 4 3 3 4 4 4 3 3 5 5 5 4 4 5
13 12 10 8 5 4 3 3 4 3 7 8 8 14 10 6 5 5 10 13 17 16 11 10 14 6 6 8 7 4 4 5 6 5 3 4 5 7 7 7 7 6 8 8
13 11 8 7 5 4 4 7 8 5 8 9 8 10 10 11 11 12 14 17 15 15 11 10 14 13 9 9 11 7 6 7 9 7 6 5 6 6 7 6 7 10 8 6
11 10 9 7 5 1 5 6 8 10 9 9 9 10 10 13 15 16 11 11 13 12 14 14 14 15 16 15 14 10 8 8 9 9 8 7 6 6 10 10 11 10 11 11
10 9 7 3 3 4 1 3 3 4 3 4 5 7 10 12 15 15 13 10 9 11 15 13 13 16 16 17 17 9 8 9 8 12 14 12 10 9 10 11 13 12 9 10
9 7 3 3 2 4 7 9 12 11 11 11 9 7 10 12 14 12 12 11 12 13 13 13 15 13 14 15 16 12 12 11 12 13 14 10 7 9 11 13 15 15 15 15

GFSNGP_850_spd_114.txt.gz
Wind_Speed
2 3 13 10 8 10 12 9 4 8 8 8 10 13 14 15 20 27 31 31 35 36 36 36 37 38 40 40 37 29 19 15 8 6 7 13 16 24 29 29 30 28 27 25
12 17 22 20 24 20 16 13 13 13 9 9 14 15 20 21 22 26 28 27 27 29 32 34 34 35 36 38 40 40 28 21 16 6 4 13 19 26 29 30 30 26 25 22
2 7 1 15 16 21 20 18 7 5 6 8 14 16 18 19 20 22 23 23 29 29 30 31 34 33 34 33 33 37 41 34 27 19 10 6 14 28 28 28 28 23 26 25
2 7 6 4 9 19 22 16 14 10 10 12 17 18 20 18 16 20 20 25 29 27 26 25 26 27 26 28 30 31 34 36 38 32 27 18 9 20 24 29 31 29 28 26
1 6 7 8 9 6 6 11 11 10 4 10 11 6 21 21 22 23 20 21 24 22 21 22 24 26 28 27 28 28 29 30 31 33 34 32 27 26 17 9 18 25 27 29
1 4 3 4 17 14 7 8 13 14 14 14 4 4 5 17 21 21 19 16 22 23 19 20 23 22 24 28 30 28 25 24 23 24 26 27 28 31 27 27 23 16 9 13
5 4 4 13 20 4 3 3 10 12 13 16 7 9 11 15 16 15 18 18 21 23 23 20 19 20 22 24 27 27 24 20 19 19 20 19 20 23 22 20 19 17 20 22
3 4 3 26 5 5 6 12 11 11 10 14 15 13 14 14 16 17 17 18 21 22 22 18 17 17 20 23 21 22 23 21 19 17 15 14 15 15 15 15 16 14 18 17
5 3 6 12 17 16 14 12 12 12 10 13 15 15 12 14 15 16 17 18 19 20 18 19 18 18 18 19 19 19 20 22 21 18 17 15 13 14 15 13 12 13 14 14
3 4 9 10 12 13 10 11 12 14 14 13 14 11 12 12 13 14 16 18 17 18 19 21 20 18 17 15 16 16 18 20 21 20 19 17 16 16 15 15 14 14 13 14
4 8 11 9 9 10 13 14 13 13 13 12 8 10 8 9 10 11 12 15 16 18 17 18 18 19 17 17 16 15 15 16 18 19 20 20 18 18 18 18 16 14 14 14
2 12 8 7 8 8 11 12 13 10 11 10 7 7 6 7 8 10 13 14 16 17 16 14 15 17 18 16 17 17 15 15 14 15 16 17 17 14 14 15 14 15 15 14
5 8 13 13 10 8 11 9 8 9 9 7 7 6 6 7 8 7 11 14 16 15 14 14 12 13 15 17 15 15 16 14 12 12 11 13 13 12 11 11 11 13 13 12
11 14 11 7 8 9 11 10 7 7 6 6 6 6 7 9 8 9 11 14 14 14 12 12 11 11 12 12 13 12 10 11 12 11 10 10 10 10 8 8 7 7 9 8
8 4 15 14 10 15 12 9 5 6 6 5 5 6 8 9 9 9 9 11 13 13 13 13 12 10 10 11 12 12 11 11 10 9 9 8 8 8 7 6 5 5 5 3
9 10 14 14 13 12 9 5 3 6 4 4 3 4 7 8 8 8 9 10 12 14 14 13 14 13 11 10 10 10 11 11 10 9 8 7 8 8 7 4 2 3 4 5
21 18 17 13 10 8 5 4 4 5 6 6 4 3 3 4 6 7 8 10 12 12 13 12 11 11 11 10 10 9 9 10 10 8 6 6 8 8 9 6 3 3 4 5
11 14 11 6 7 8 9 7 7 6 5 5 4 2 2 3 4 5 6 9 11 12 11 12 11 8 9 10 10 11 10 9 9 9 7 6 5 5 6 6 6 6 7 8
11 16 14 9 7 8 9 8 7 6 5 4 3 2 4 5 6 7 8 7 10 16 16 13 14 9 8 10 10 11 11 9 8 7 7 8 4 3 5 6 6 7 7 7
13 13 13 11 9 7 9 9 7 5 3 2 2 3 3 4 6 7 8 10 13 15 19 17 15 11 8 9 10 11 10 10 9 8 6 5 5 6 7 7 8 8 8 8
14 14 12 11 12 11 8 6 4 2 1 3 4 5 7 8 7 7 8 10 12 18 17 14 13 10 9 9 11 12 11 9 9 7 6 4 4 6 7 7 8 8 9 9
15 14 13 12 10 8 6 4 2 0 3 4 4 4 4 6 7 8 8 10 14 17 15 13 13 8 8 9 11 11 10 9 8 9 9 8 7 6 6 7 7 8 8 8
15 14 13 12 9 7 5 4 2 1 1 2 2 5 5 6 9 11 12 13 14 13 11 9 10 8 8 10 11 10 9 10 10 9 9 9 8 9 10 9 9 9 9 10
17 16 13 11 9 7 6 4 4 2 1 3 5 6 6 6 9 11 14 12 9 9 10 9 8 10 12 13 14 12 9 9 8 8 8 11 11 10 10 10 10 11 11 11
16 14 13 12 10 9 5 4 3 3 5 6 8 10 12 10 11 13 15 12 10 8 10 11 11 12 14 13 13 12 8 9 8 8 10 10 10 11 11 10 10 11 12 12
16 13 11 10 6 7 5 5 7 8 10 11 10 11 12 12 10 12 12 12 12 12 12 13 13 14 13 12 13 12 10 11 12 12 13 13 12 10 11 13 13 13 13 12
15 14 12 10 9 8 6 7 8 12 13 12 13 10 10 11 12 11 11 12 10 12 12 11 12 14 15 15 13 12 12 13 13 13 13 12 12 12 13 12 12 13 14 14

GFSNGP_850_spd_117.txt.gz
Wind_Speed
20 16 20 16 4 10 14 9 5 5 6 9 11 12 18 19 25 26 29 32 33 33 34 36 38 36 35 37 39 34 30 26 22 18 8 8 7 14 17 23 27 30 31 31
6 11 25 23 23 18 21 15 11 10 9 8 12 12 17 20 21 22 24 26 26 29 31 33 33 33 33 34 36 39 39 35 30 24 16 11 7 9 15 19 25 31 26 31
4 5 7 14 16 16 16 16 5 6 5 5 9 14 18 16 18 18 21 22 25 28 28 28 29 32 32 32 32 34 36 39 37 34 30 23 14 7 9 14 22 29 29 32
1 2 6 2 11 10 20 15 12 12 8 8 14 18 19 20 18 17 22 27 26 23 24 24 24 24 28 29 30 31 33 34 35 36 35 32 28 25 18 12 4 15 28 33
2 5 5 4 8 6 7 9 12 8 8 10 12 9 17 19 20 16 20 24 24 20 20 20 22 23 24 28 30 31 32 30 30 30 30 31 33 30 30 27 22 17 8 16
2 3 2 4 12 11 6 5 11 11 10 8 8 3 4 14 15 15 16 20 23 20 15 16 21 23 24 27 32 35 32 28 26 25 25 26 25 24 25 24 25 24 22 18
4 3 3 11 14 4 1 1 7 9 12 15 6 7 8 8 12 13 17 20 19 18 20 21 20 22 25 27 30 30 28 26 24 23 22 20 20 20 19 20 19 18 20 22
3 4 3 20 3 3 7 8 9 9 10 12 13 11 9 10 14 16 19 19 20 20 22 21 21 21 24 26 25 24 25 25 25 24 22 20 18 17 16 15 15 18 19 19
5 3 5 10 14 13 11 11 9 11 14 14 12 10 9 10 12 14 17 19 19 20 21 22 23 24 24 23 22 23 23 25 25 24 22 20 19 18 18 17 17 18 19 22
2 4 9 9 12 10 11 14 13 13 14 10 12 9 9 10 12 16 19 20 19 18 20 22 24 23 22 21 20 21 22 23 23 25 24 22 20 19 17 17 18 17 18 19
4 8 10 9 10 12 12 10 11 11 9 9 6 9 9 11 13 16 17 18 18 19 20 20 21 22 22 22 21 21 21 22 22 22 23 22 21 20 19 18 18 17 18 15
2 12 8 8 9 7 7 8 7 6 8 8 7 9 8 11 12 13 16 17 17 18 18 19 19 20 21 22 22 22 21 22 21 21 20 20 18 15 14 12 12 13 13 13
4 8 8 14 9 6 8 7 5 6 6 6 8 8 9 11 12 12 14 16 17 18 17 17 17 17 18 19 21 21 21 20 19 18 18 17 16 15 14 12 11 10 10 11
13 16 12 12 9 11 7 7 5 6 6 6 8 8 9 10 10 11 14 15 15 14 15 15 15 15 16 16 16 17 17 17 17 17 16 16 16 15 14 13 11 10 9 10
12 5 12 13 14 15 10 7 5 5 6 6 6 7 8 8 9 11 11 12 14 13 14 15 15 15 15 15 16 17 17 17 17 16 15 15 15 16 14 11 10 10 10 9
10 14 15 12 16 14 10 5 2 3 3 4 4 4 6 8 8 8 9 11 13 16 16 15 15 16 16 15 16 16 15 15 16 16 15 14 14 14 14 12 11 11 11 12
17 14 15 15 13 11 8 5 4 5 5 4 2 2 4 5 6 7 9 10 12 14 15 16 16 15 15 15 15 16 16 15 14 14 13 14 13 12 12 12 12 13 13 14
9 9 11 7 10 11 11 9 8 6 5 3 2 3 4 5 7 8 10 11 12 15 13 14 14 13 14 14 14 15 15 14 14 13 12 11 11 10 11 11 12 13 14 14
12 12 12 9 8 10 10 9 7 6 4 2 2 3 5 6 8 10 12 12 14 15 17 14 13 14 13 13 14 15 15 13 12 12 11 10 9 9 10 11 11 12 12 13
13 15 14 11 11 9 9 8 6 4 1 1 3 4 7 9 10 11 11 12 13 16 19 16 15 15 13 13 13 15 16 15 12 11 9 8 9 9 10 11 11 11 11 12
15 16 13 12 11 11 9 6 5 3 1 2 4 6 8 8 9 10 11 12 13 16 18 17 15 14 13 12 13 15 15 13 12 10 10 9 8 10 11 10 11 11 10 11
15 16 14 13 11 10 9 7 5 3 2 3 3 4 5 5 6 9 10 12 15 16 15 14 13 13 12 12 13 15 14 13 13 13 11 10 9 9 10 11 12 12 11 11
16 15 14 13 11 9 8 6 5 3 1 1 2 3 4 5 8 10 12 14 13 13 12 11 11 11 12 11 13 14 13 12 12 12 11 11 11 12 11 10 10 10 11 11
17 15 14 14 12 9 7 5 5 5 4 4 6 8 9 9 10 11 12 14 13 12 11 12 12 12 13 14 14 15 13 13 13 11 11 13 13 12 11 12 12 12 12 11
16 16 16 13 10 9 9 6 6 5 6 8 10 12 14 15 14 12 13 13 14 12 12 13 13 13 14 14 14 15 14 12 13 13 13 14 14 14 12 12 12 12 12 10
19 17 13 10 8 9 8 8 7 8 9 11 13 13 15 16 16 15 15 13 12 11 12 13 12 13 14 15 16 15 14 14 15 15 14 14 13 13 12 12 12 12 11 11
17 15 15 14 13 11 11 10 8 9 12 14 15 15 12 11 12 14 11 10 11 12 14 15 15 16 17 18 17 15 15 16 16 16 16 15 15 14 13 13 14 13 13 12